[[{"header":{"parameterUnit":"m.s-1","parameterCategory":1,"la1":30.6,"la2":29.2853,"lo1":-89.7004,"lo2":-87.6739,"dy":0.0162,"dx":0.0183,"nx":112,"ny":82,"refTime":"2023-03-10T06:00:00:Z","depth":0,"parameterNumber":2,"parameterNumberName":"U-component_of_WINDS"},"data":[0.0,0.0,0.0,0.0,0.0,0.0,0.0,0.0,0.0,0.0,0.0,0.0,0.0,0.0,0.0,0.0,0.0,0.0,0.0,0.0,0.0,0.0,0.0,0.0,0.0,0.0,0.0,0.0,0.0,0.0,0.0,0.0,0.0,0.0,0.0,0.0,0.0,0.0,0.0,0.0,0.0,0.0,0.0,0.0,0.0,0.0,0.0,0.0,0.0,0.0,0.0,0.0,0.0,0.0,0.0,0.0,0.0,0.0,0.0,0.0,0.0,0.0,0.0,0.0,0.0,0.0,0.0,0.0,0.0,0.0,0.0,0.0,0.0,0.0,0.0,0.0,0.0,0.0,0.0,0.0,0.0,0.0,0.0,0.0,0.0,0.0,0.0,0.0,0.0,0.0,3.2285,3.0474,2.9624,2.908,2.8732,2.8386,2.8064,2.7752,0.0,0.0,0.0,0.0,0.0,0.0,0.0,0.0,0.0,0.0,0.0,0.0,0.0,0.0,0.0,0.0,0.0,0.0,0.0,0.0,0.0,0.0,0.0,0.0,0.0,0.0,0.0,0.0,0.0,0.0,0.0,0.0,0.0,0.0,0.0,0.0,0.0,0.0,0.0,0.0,0.0,0.0,0.0,0.0,0.0,0.0,0.0,0.0,0.0,0.0,0.0,0.0,0.0,0.0,0.0,0.0,0.0,0.0,0.0,0.0,0.0,0.0,0.0,0.0,0.0,0.0,0.0,0.0,0.0,0.0,0.0,0.0,0.0,0.0,0.0,0.0,0.0,0.0,0.0,0.0,0.0,0.0,0.0,0.0,0.0,0.0,0.0,0.0,0.0,0.0,0.0,0.0,0.0,0.0,0.0,0.0,0.0,0.0,0.0,0.0,0.0,0.0,0.0,0.0,3.0681,3.0337,3.0215,2.9956,2.9659,2.7795,2.6539,2.6202,0.0,0.0,0.0,0.0,0.0,0.0,0.0,0.0,0.0,0.0,0.0,0.0,0.0,0.0,0.0,0.0,0.0,0.0,0.0,0.0,0.0,0.0,0.0,0.0,0.0,0.0,0.0,0.0,0.0,0.0,0.0,0.0,0.0,0.0,0.0,0.0,0.0,0.0,0.0,0.0,0.0,0.0,0.0,0.0,0.0,0.0,0.0,0.0,0.0,0.0,0.0,0.0,0.0,0.0,0.0,0.0,0.0,0.0,0.0,0.0,0.0,0.0,0.0,0.0,0.0,0.0,0.0,0.0,0.0,0.0,0.0,0.0,0.0,0.0,0.0,0.0,0.0,0.0,0.0,0.0,0.0,0.0,0.0,0.0,0.0,0.0,0.0,0.0,0.0,0.0,0.0,0.0,0.0,0.0,0.0,0.0,0.0,0.0,0.0,0.0,0.0,0.0,0.0,3.0499,2.9782,2.9763,2.8913,2.8414,2.8618,2.6784,2.5557,2.5354,2.4141,0.0,0.0,0.0,0.0,0.0,0.0,0.0,0.0,0.0,0.0,0.0,0.0,0.0,0.0,0.0,0.0,0.0,0.0,0.0,0.0,0.0,0.0,0.0,0.0,0.0,0.0,0.0,0.0,0.0,0.0,0.0,0.0,0.0,0.0,0.0,0.0,0.0,0.0,0.0,0.0,0.0,0.0,0.0,0.0,0.0,0.0,0.0,0.0,0.0,0.0,0.0,0.0,0.0,0.0,0.0,0.0,0.0,0.0,0.0,0.0,0.0,0.0,0.0,0.0,0.0,0.0,0.0,0.0,0.0,0.0,0.0,0.0,0.0,0.0,0.0,0.0,0.0,0.0,0.0,0.0,0.0,0.0,0.0,0.0,0.0,0.0,0.0,0.0,0.0,0.0,0.0,0.0,0.0,0.0,0.0,0.0,0.0,0.0,0.0,0.0,0.0,0.0,3.0054,2.9295,2.908,2.784,2.7033,2.7139,2.5623,2.4518,2.4338,2.2667,0.0,0.0,0.0,0.0,0.0,0.0,0.0,0.0,0.0,0.0,0.0,0.0,0.0,0.0,0.0,0.0,0.0,0.0,0.0,0.0,0.0,0.0,0.0,0.0,0.0,0.0,0.0,0.0,0.0,0.0,0.0,0.0,0.0,0.0,0.0,0.0,0.0,0.0,0.0,0.0,0.0,0.0,0.0,0.0,0.0,0.0,0.0,0.0,0.0,0.0,0.0,0.0,0.0,0.0,0.0,0.0,0.0,0.0,0.0,0.0,0.0,0.0,0.0,0.0,0.0,0.0,0.0,0.0,0.0,0.0,0.0,0.0,0.0,0.0,0.0,0.0,0.0,0.0,0.0,0.0,0.0,0.0,0.0,0.0,0.0,0.0,0.0,0.0,0.0,0.0,0.0,0.0,0.0,0.0,0.0,0.0,0.0,0.0,0.0,0.0,0.0,0.0,2.9514,2.9317,2.8556,2.8141,2.7264,2.5716,2.4381,2.3202,2.2257,2.1278,0.0,0.0,0.0,0.0,0.0,0.0,0.0,0.0,0.0,0.0,0.0,0.0,0.0,0.0,0.0,0.0,0.0,0.0,0.0,0.0,0.0,0.0,0.0,0.0,0.0,0.0,0.0,0.0,0.0,0.0,0.0,0.0,0.0,0.0,0.0,0.0,0.0,0.0,0.0,0.0,0.0,0.0,0.0,0.0,0.0,0.0,0.0,0.0,0.0,0.0,0.0,0.0,0.0,0.0,0.0,0.0,0.0,0.0,0.0,0.0,0.0,0.0,0.0,0.0,0.0,0.0,0.0,0.0,0.0,0.0,0.0,0.0,0.0,0.0,0.0,0.0,0.0,0.0,0.0,0.0,0.0,0.0,0.0,0.0,0.0,0.0,0.0,0.0,0.0,0.0,0.0,0.0,0.0,0.0,0.0,0.0,0.0,0.0,0.0,0.0,0.0,0.0,2.778,2.75,2.7184,2.6581,2.5981,2.5425,2.3921,2.2724,2.2004,0.0,0.0,0.0,0.0,0.0,0.0,0.0,0.0,0.0,0.0,0.0,0.0,0.0,0.0,0.0,0.0,0.0,0.0,0.0,0.0,0.0,0.0,0.0,0.0,0.0,0.0,0.0,0.0,0.0,0.0,0.0,0.0,0.0,0.0,0.0,0.0,0.0,0.0,0.0,0.0,0.0,0.0,0.0,0.0,0.0,0.0,0.0,0.0,0.0,0.0,0.0,0.0,0.0,0.0,0.0,0.0,0.0,0.0,0.0,0.0,0.0,0.0,0.0,0.0,0.0,0.0,0.0,0.0,0.0,0.0,0.0,0.0,0.0,0.0,0.0,0.0,0.0,0.0,0.0,0.0,0.0,0.0,0.0,0.0,0.0,0.0,0.0,0.0,0.0,0.0,0.0,0.0,0.0,0.0,0.0,0.0,0.0,0.0,0.0,0.0,0.0,0.0,2.6814,2.6533,2.6187,2.576,2.5118,2.4602,2.4284,2.3054,2.2045,2.1602,0.0,0.0,0.0,0.0,0.0,0.0,0.0,0.0,0.0,0.0,0.0,0.0,0.0,0.0,0.0,0.0,0.0,0.0,0.0,0.0,0.0,0.0,0.0,0.0,0.0,0.0,0.0,0.0,0.0,0.0,0.0,0.0,0.0,0.0,0.0,0.0,0.0,0.0,0.0,0.0,0.0,0.0,0.0,0.0,0.0,0.0,0.0,0.0,0.0,0.0,0.0,0.0,0.0,0.0,0.0,0.0,0.0,0.0,0.0,0.0,0.0,0.0,0.0,0.0,0.0,0.0,0.0,0.0,0.0,0.0,0.0,0.0,0.0,0.0,0.0,0.0,0.0,0.0,0.0,0.0,0.0,0.0,0.0,0.0,0.0,0.0,0.0,0.0,0.0,0.0,0.0,0.0,0.0,0.0,0.0,0.0,0.0,0.0,0.0,0.0,0.0,0.0,2.5967,2.6076,2.5648,2.4421,2.3987,2.3261,2.1982,2.1538,2.1171,0.0,0.0,0.0,0.0,0.0,0.0,0.0,0.0,0.0,0.0,0.0,0.0,0.0,0.0,0.0,0.0,0.0,0.0,0.0,0.0,0.0,0.0,0.0,0.0,0.0,0.0,0.0,0.0,0.0,0.0,0.0,0.0,0.0,0.0,0.0,0.0,0.0,0.0,0.0,0.0,0.0,0.0,0.0,0.0,0.0,0.0,0.0,0.0,0.0,0.0,0.0,0.0,0.0,0.0,0.0,0.0,0.0,0.0,0.0,0.0,0.0,0.0,0.0,0.0,0.0,0.0,0.0,0.0,0.0,0.0,0.0,0.0,0.0,0.0,0.0,0.0,0.0,0.0,0.0,0.0,0.0,0.0,0.0,0.0,0.0,0.0,0.0,0.0,0.0,0.0,0.0,0.0,0.0,0.0,0.0,0.0,0.0,0.0,0.0,0.0,0.0,0.0,0.0,2.512,2.4456,2.3666,2.2735,2.254,2.2089,2.1093,2.0212,1.9733,1.9733,0.0,0.0,0.0,0.0,0.0,0.0,0.0,0.0,0.0,0.0,0.0,0.0,0.0,0.0,0.0,0.0,0.0,0.0,0.0,0.0,0.0,0.0,0.0,0.0,0.0,0.0,0.0,0.0,0.0,0.0,0.0,0.0,0.0,0.0,0.0,0.0,0.0,0.0,0.0,0.0,0.0,0.0,0.0,0.0,0.0,0.0,0.0,0.0,0.0,0.0,0.0,0.0,0.0,0.0,0.0,0.0,0.0,0.0,0.0,0.0,0.0,0.0,0.0,0.0,0.0,0.0,0.0,0.0,0.0,0.0,0.0,0.0,0.0,0.0,0.0,0.0,0.0,0.0,0.0,0.0,0.0,0.0,0.0,0.0,0.0,0.0,0.0,0.0,0.0,0.0,0.0,0.0,0.0,0.0,0.0,0.0,0.0,0.0,0.0,0.0,0.0,0.0,2.3736,2.3244,2.2565,2.1741,2.0954,2.0366,2.019,1.8889,1.8205,1.8425,0.0,0.0,0.0,0.0,0.0,0.0,0.0,0.0,0.0,0.0,0.0,0.0,0.0,0.0,0.0,0.0,0.0,0.0,0.0,0.0,0.0,0.0,0.0,0.0,0.0,0.0,0.0,0.0,0.0,0.0,0.0,0.0,0.0,0.0,0.0,0.0,0.0,0.0,0.0,0.0,0.0,0.0,0.0,0.0,0.0,0.0,0.0,0.0,0.0,0.0,0.0,0.0,0.0,0.0,0.0,0.0,0.0,0.0,0.0,0.0,0.0,0.0,0.0,0.0,0.0,0.0,0.0,0.0,0.0,0.0,0.0,0.0,0.0,0.0,0.0,0.0,0.0,0.0,0.0,0.0,0.0,0.0,0.0,0.0,0.0,0.0,0.0,0.0,0.0,0.0,0.0,0.0,0.0,0.0,0.0,0.0,0.0,0.0,0.0,0.0,0.0,0.0,2.2128,2.2213,2.2019,2.0956,1.928,1.8488,1.9253,1.7605,1.6613,1.6676,0.0,0.0,0.0,0.0,0.0,0.0,0.0,0.0,0.0,0.0,0.0,0.0,0.0,0.0,0.0,0.0,0.0,0.0,0.0,0.0,0.0,0.0,0.0,0.0,0.0,0.0,0.0,0.0,0.0,0.0,0.0,0.0,0.0,0.0,0.0,0.0,0.0,0.0,0.0,0.0,0.0,0.0,0.0,0.0,0.0,0.0,0.0,0.0,0.0,0.0,0.0,0.0,0.0,0.0,0.0,0.0,0.0,0.0,0.0,0.0,2.1684,2.1544,0.0,0.0,0.0,0.0,0.0,0.0,0.0,0.0,0.0,0.0,0.0,0.0,0.0,0.0,0.0,0.0,0.0,0.0,0.0,0.0,0.0,0.0,0.0,0.0,0.0,0.0,0.0,0.0,0.0,0.0,0.0,0.0,0.0,0.0,0.0,0.0,0.0,0.0,0.0,0.0,2.1372,2.0685,1.9677,1.8288,1.7722,1.7424,1.7332,1.6183,1.5257,1.4944,1.4918,0.0,0.0,0.0,0.0,0.0,0.0,0.0,0.0,0.0,0.0,0.0,0.0,0.0,0.0,0.0,0.0,0.0,0.0,0.0,0.0,0.0,0.0,0.0,0.0,0.0,0.0,0.0,0.0,0.0,0.0,0.0,0.0,0.0,0.0,0.0,0.0,0.0,0.0,0.0,0.0,0.0,0.0,0.0,0.0,0.0,0.0,0.0,0.0,0.0,0.0,0.0,0.0,0.0,0.0,0.0,0.0,0.0,0.0,0.0,1.8701,1.8924,0.0,0.0,0.0,0.0,0.0,0.0,0.0,0.0,0.0,0.0,0.0,0.0,0.0,0.0,0.0,0.0,0.0,0.0,0.0,0.0,0.0,0.0,0.0,0.0,0.0,0.0,0.0,0.0,0.0,0.0,0.0,0.0,0.0,0.0,0.0,0.0,0.0,0.0,0.0,0.0,1.8308,1.7939,1.7156,1.5499,1.49,1.4686,1.4719,1.3698,1.2862,1.2578,1.2776,0.0,0.0,0.0,0.0,0.0,0.0,0.0,0.0,0.0,0.0,0.0,0.0,0.0,0.0,0.0,0.0,0.0,0.0,0.0,0.0,0.0,0.0,0.0,0.0,0.0,0.0,0.0,0.0,0.0,0.0,0.0,0.0,0.0,0.0,0.0,0.0,0.0,0.0,0.0,0.0,0.0,0.0,0.0,0.0,0.0,0.0,0.0,0.0,0.0,0.0,0.0,0.0,0.0,2.0196,1.9393,1.8433,1.6734,1.5628,1.517,1.5178,1.5817,1.6821,1.6073,0.0,0.0,0.0,0.0,0.0,0.0,0.0,0.0,0.0,0.0,0.0,0.0,0.0,0.0,0.0,0.0,0.0,0.0,0.0,0.0,0.0,0.0,1.4775,1.3659,1.2744,1.214,1.2697,0.0,0.0,0.0,0.0,0.0,0.0,0.0,0.0,0.0,0.0,0.0,1.4783,1.4907,1.4572,1.3039,1.2129,1.1832,1.2207,1.1348,1.0691,1.041,1.1038,1.1158,0.0,0.0,0.0,0.0,0.0,0.0,0.0,0.0,0.0,0.0,0.0,0.0,0.0,0.0,0.0,0.0,0.0,0.0,0.0,0.0,0.0,0.0,0.0,0.0,0.0,0.0,0.0,0.0,0.0,0.0,0.0,0.0,2.9686,2.8147,0.0,0.0,0.0,0.0,0.0,0.0,0.0,0.0,0.0,0.0,0.0,0.0,0.0,2.3257,2.136,2.0732,1.9795,1.8703,1.7388,1.673,1.649,1.4256,1.3118,1.2851,1.1051,0.0,1.3205,1.329,0.0,0.0,0.0,0.0,0.0,0.0,0.0,0.0,0.0,0.0,0.0,0.0,0.0,0.0,0.0,0.0,0.0,0.0,0.0,0.0,0.0,0.0,1.1986,1.0994,1.006,0.9266,0.8548,1.0027,1.1505,1.1482,1.1364,1.131,0.0,0.0,0.0,0.0,0.0,0.0,1.2952,1.2656,1.2169,1.1472,1.1263,1.1258,1.1263,1.1115,1.0626,0.9502,1.0556,1.0769,0.9913,1.0932,0.0,0.0,0.0,0.0,0.0,0.0,0.0,0.0,0.0,0.0,0.0,0.0,0.0,0.0,0.0,0.0,0.0,0.0,0.0,0.0,0.0,0.0,0.0,0.0,0.0,0.0,0.0,0.0,0.0,2.9648,2.9445,2.6539,2.7285,2.7047,0.0,0.0,0.0,0.0,0.0,0.0,0.0,0.0,0.0,2.2105,2.103,1.9739,1.827,1.77,1.6677,1.5355,1.4549,1.3992,1.3642,1.1757,1.0948,1.0914,0.9311,0.9127,1.0031,1.0658,1.1206,1.1811,0.0,0.0,0.0,0.0,1.3271,1.348,1.2881,1.2135,1.1563,1.1592,0.0,0.0,0.0,0.0,0.0,0.0,0.0,1.1833,1.0568,1.0262,1.0025,0.912,0.8604,0.8332,0.7928,0.8724,0.9485,0.9198,0.9135,0.9288,0.9819,1.0285,0.0,0.0,0.0,1.1807,1.082,1.0629,1.0245,0.9244,0.9208,0.9218,0.9218,0.9205,0.9069,0.8556,0.9069,0.9176,0.8763,0.9275,0.99,0.0,0.0,0.0,0.0,0.0,0.0,0.0,0.0,0.0,0.0,0.0,0.0,0.0,0.0,0.0,0.0,0.0,0.0,0.0,0.0,0.0,0.0,0.0,0.0,0.0,0.0,0.0,0.0,2.9261,2.9217,2.5396,2.6871,2.6925,0.0,0.0,0.0,0.0,0.0,0.0,2.2621,2.1721,2.0663,1.9505,1.7978,1.6619,1.5333,1.4993,1.4174,1.2985,1.2176,1.178,1.168,0.9819,0.9068,0.9172,0.8371,0.8048,0.8028,0.8703,0.9324,0.9974,1.0102,1.0711,1.1431,1.0532,1.0601,1.0945,1.0524,1.0,0.9605,0.9656,0.9659,0.9631,0.9357,0.0,0.0,0.0,0.0,0.969,0.8625,0.8521,0.8656,0.8143,0.8041,0.8109,0.8147,0.8214,0.8191,0.7828,0.7845,0.8101,0.8841,0.8895,0.0,1.008,1.0255,0.9926,0.9017,0.8995,0.8759,0.7836,0.7836,0.7836,0.7836,0.7836,0.7935,0.8038,0.8038,0.8038,0.8038,0.8038,0.8144,0.8553,0.0,0.0,0.0,0.0,0.0,0.0,0.0,0.0,0.0,0.0,0.0,0.0,0.0,0.0,0.0,0.0,0.0,0.0,0.0,0.0,0.0,0.0,0.0,0.0,0.0,0.0,0.0,0.0,0.0,2.6047,2.751,0.0,0.0,0.0,0.0,2.249,2.182,2.0955,1.9788,1.8609,1.742,1.6275,1.5987,1.4945,1.2884,1.2739,1.2655,1.2704,1.0874,1.0654,1.1812,0.8979,0.7674,0.7684,0.7915,0.7972,0.7959,0.7875,0.7894,0.7976,0.7837,0.8337,0.9072,0.8153,0.8239,0.8617,0.7948,0.7517,0.7333,0.7372,0.7419,0.7319,0.7515,0.7415,0.0,0.0,0.7614,0.7543,0.7873,0.7913,0.8057,0.8411,0.835,0.8296,0.8431,0.836,0.8265,0.8248,0.8126,0.8024,0.8021,0.0,0.7691,0.7785,0.79,0.7973,0.7842,0.8014,0.8041,0.7939,0.7939,0.8038,0.8038,0.8038,0.8038,0.8038,0.8038,0.8038,0.8038,0.8038,0.8556,0.99,1.1141,0.0,0.0,0.0,0.0,0.0,0.0,0.0,0.0,0.0,0.0,0.0,0.0,0.0,0.0,0.0,0.0,0.0,0.0,0.0,0.0,0.0,0.0,0.0,0.0,0.0,0.0,0.0,0.0,2.749,2.7657,0.0,2.2712,2.2091,2.0977,1.8573,1.8877,1.8177,1.6069,1.5514,1.5111,1.4658,1.2891,1.1828,1.1675,1.0278,0.9548,0.9407,0.6923,0.619,0.6814,0.579,0.5156,0.5006,0.5259,0.6445,0.7979,0.7918,0.7888,0.7878,0.7835,0.8105,0.8286,0.8,0.799,0.8192,0.8055,0.7908,0.7915,0.7968,0.7818,0.7637,0.7543,0.7444,0.7463,0.7449,0.7576,0.7706,0.7953,0.813,0.82,0.8448,0.8374,0.8286,0.8336,0.8377,0.8381,0.8289,0.8299,0.8296,0.8204,0.8102,0.7997,0.7896,0.7926,0.7953,0.7936,0.7997,0.8038,0.8038,0.8038,0.8038,0.8038,0.8038,0.8038,0.8038,0.8038,0.8038,0.8038,0.8784,0.9087,0.8759,1.0631,1.1981,0.0,0.0,0.0,0.0,0.0,0.0,0.0,0.0,0.0,0.0,0.0,0.0,0.0,0.0,0.0,0.0,0.0,0.0,0.0,0.0,0.0,0.0,0.0,0.0,0.0,2.868,2.8704,2.6684,2.6082,2.4314,2.0479,1.9325,1.7924,1.582,1.6005,1.5624,1.4138,1.3089,1.2569,1.2744,0.9588,0.8164,0.8733,0.7344,0.6975,0.7714,0.5682,0.4025,0.2637,0.2611,0.2536,0.2427,0.2583,0.473,0.8002,0.8002,0.7999,0.7889,0.6962,0.6651,0.6748,0.7669,0.7969,0.7979,0.8123,0.8272,0.8272,0.8272,0.8167,0.7942,0.7743,0.7782,0.7844,0.7833,0.7997,0.816,0.8252,0.8347,0.8428,0.8472,0.8411,0.834,0.834,0.8377,0.8411,0.8418,0.8455,0.8452,0.836,0.8303,0.8252,0.8197,0.8102,0.8058,0.8109,0.8072,0.8038,0.8038,0.8038,0.8038,0.8038,0.8038,0.8038,0.8038,0.8425,0.8707,0.8696,0.9575,0.9575,0.8696,1.0186,1.1255,1.1945,0.0,0.0,0.0,0.0,0.0,0.0,0.0,0.0,0.0,0.0,0.0,0.0,0.0,0.0,0.0,0.0,0.0,0.0,0.0,0.0,0.0,0.0,0.0,2.551,2.7249,2.7108,2.3604,2.2783,2.0898,1.686,1.6126,1.5452,1.4326,1.3536,1.3326,1.3913,1.1204,0.9786,1.0285,0.6225,0.3969,0.371,0.3678,0.4951,0.7597,0.7006,0.4342,-0.0,-0.0,-0.0,-0.0,-0.0,0.2922,0.7717,0.7922,0.8026,0.7714,0.4933,0.3915,0.4218,0.6862,0.7885,0.7905,0.7926,0.8166,0.8265,0.8265,0.8163,0.8038,0.8038,0.8153,0.8279,0.8272,0.8387,0.8615,0.8489,0.8591,0.8662,0.8516,0.8479,0.8476,0.8476,0.837,0.836,0.8642,0.8584,0.8486,0.8482,0.8374,0.8326,0.8452,0.8228,0.0,0.8245,0.8133,0.8041,0.8045,0.8045,0.8045,0.8045,0.8045,0.8045,0.8038,0.919,0.9938,0.99,1.0027,1.0036,0.9998,1.0031,1.0631,1.179,0.0,0.0,0.0,0.0,0.0,0.0,0.0,0.0,0.0,0.0,0.0,0.0,0.0,0.0,0.0,0.0,0.0,0.0,0.0,0.0,0.0,2.2018,2.2805,2.544,2.4482,2.326,2.2585,2.026,1.8362,1.7598,1.6429,1.486,1.2698,1.2309,1.1273,0.9146,0.681,0.4717,0.2717,0.4987,0.3631,-0.1776,-0.3684,-0.3372,-0.0678,-0.0859,-0.0571,-0.0,-0.0,-0.0,-0.0,-0.0,0.0807,0.2524,0.6398,0.8049,0.7532,0.2927,0.1107,0.1407,0.413,0.5138,0.5336,0.7305,0.8036,0.813,0.8036,0.8092,0.8041,0.7959,0.7995,0.8153,0.8255,0.8223,0.8186,0.8397,0.8469,0.8421,0.8598,0.8418,0.833,0.833,0.8377,0.8418,0.8394,0.853,0.8611,0.8503,0.854,0.8492,0.8204,0.8187,0.818,0.8113,0.8065,0.8082,0.8197,0.8208,0.8208,0.8208,0.8208,0.816,0.8045,0.8326,0.8513,0.8506,0.9517,1.001,0.9972,0.9958,0.9693,0.0,0.0,0.0,0.0,0.0,0.0,0.0,0.0,0.0,0.0,0.0,0.0,0.0,0.0,0.0,0.0,0.0,0.0,0.0,0.0,0.0,0.0,2.0176,1.999,2.2019,2.154,2.1001,2.0862,1.8315,1.6243,1.5497,1.2619,1.0138,0.8728,0.8598,0.8284,0.753,0.6078,0.2604,-0.342,-0.0757,-0.0765,-0.3924,-0.6675,-0.7265,-0.5691,-0.5674,-0.4884,-0.3227,-0.0987,-0.0,-0.0,-0.0,-0.0,0.0202,0.334,0.4661,0.4356,0.0,0.0,0.0,0.0,0.2315,0.2511,0.4124,0.5334,0.6545,0.7679,0.7459,0.7033,0.7766,0.7975,0.7995,0.8174,0.7271,0.6468,0.7058,0.7785,0.8286,0.8313,0.8292,0.8252,0.8187,0.8289,0.8387,0.8364,0.855,0.0,0.8594,0.8598,0.8547,0.835,0.8235,0.8187,0.8221,0.8174,0.8194,0.8343,0.836,0.836,0.836,0.8303,0.0,0.0,0.0,0.8825,0.8825,0.9608,0.0,0.0,0.0,0.8763,0.8038,0.9533,0.0,0.0,1.0904,1.1114,0.0,0.0,0.0,0.0,0.0,0.0,0.0,0.0,0.0,0.0,0.0,0.0,0.0,0.0,0.0,0.0,1.8254,1.6279,1.6784,1.8018,1.8567,1.7755,1.5628,1.3526,1.1642,0.7244,0.4219,0.3615,0.3502,0.4618,0.6991,0.6573,0.0,0.0,0.0,-0.6843,-0.4496,-0.6851,-0.8038,-0.8024,-0.765,-0.7724,-0.7847,-0.3034,-0.0606,-0.0,-0.0,-0.0,-0.0,-0.0,-0.0,-0.0,-0.0,-0.0,-0.0,-0.0,0.0403,0.0905,0.0905,0.0,0.0,0.6859,0.6748,0.6027,0.7559,0.7979,0.7985,0.7769,0.5934,0.4218,0.5425,0.7021,0.8214,0.8075,0.8147,0.8208,0.8069,0.8174,0.8333,0.8459,0.8618,0.8737,0.8737,0.8625,0.8567,0.8669,0.836,0.8197,0.8428,0.8347,0.8319,0.8445,0.8459,0.0,0.8479,0.8367,0.8289,0.8272,0.9214,0.9805,0.9805,0.9805,0.9217,0.8038,0.8038,0.8038,0.8038,0.8038,0.8119,0.8367,0.9275,0.9903,0.0,0.0,0.0,0.0,0.0,0.0,0.0,0.0,0.0,0.0,0.0,0.0,0.0,0.0,0.0,1.6384,1.3719,1.2283,1.4454,1.2258,1.0297,1.0083,0.7793,0.6936,0.8618,0.7805,0.5457,0.1109,0.079,0.0977,0.1472,0.144,0.0478,-0.1458,-0.5704,-0.775,-0.7192,-0.7775,-0.7999,-0.7955,-0.5834,0.0,-0.7928,-0.6897,-0.4043,-0.0,-0.0,-0.0,-0.0,-0.0,-0.0,-0.0,-0.0,-0.0,-0.0,-0.0,0.2726,0.6478,0.6478,0.677,0.6951,0.5329,0.6027,0.754,0.7865,0.7975,0.0,0.6334,0.502,0.4522,0.6856,0.7792,0.8002,0.7975,0.8075,0.8075,0.8045,0.8252,0.8448,0.8476,0.8706,0.8896,0.8896,0.8869,0.8777,0.856,0.8557,0.8516,0.8333,0.8289,0.8282,0.8309,0.8313,0.8357,0.8472,0.8459,0.8391,0.8279,0.8324,0.8432,0.8432,0.8432,0.8233,0.8038,0.8038,0.8038,0.8038,0.8038,0.8119,0.8269,0.8403,0.8498,0.0,0.0,0.0,0.0,0.0,0.0,0.0,0.0,0.0,0.0,0.0,1.3866,0.0,0.0,1.2864,1.3773,1.1194,1.028,1.3653,1.0621,0.7035,0.4225,0.2814,0.2518,0.3838,0.4041,0.2929,0.0202,-0.0,-0.0,-0.0,-0.0,-0.0,-0.0,-0.2584,-0.4598,-0.5942,-0.5952,-0.667,-0.8006,-0.667,-0.5249,-0.4041,-0.4041,-0.2524,-0.0,-0.0,-0.0,-0.0,-0.0,0.1615,0.4041,0.4041,0.4041,0.4041,0.4041,0.4847,0.6158,0.7494,0.7995,0.7779,0.645,0.6948,0.7959,0.7969,0.7972,0.7769,0.6948,0.6337,0.6342,0.7672,0.7969,0.7955,0.7955,0.8048,0.8038,0.8038,0.8272,0.8482,0.8482,0.873,0.894,0.894,0.894,0.8862,0.8632,0.8598,0.857,0.8499,0.8425,0.8435,0.8587,0.8537,0.855,0.8699,0.857,0.8387,0.817,0.8082,0.8038,0.8038,0.8038,0.8038,0.8038,0.8038,0.8038,0.8038,0.8116,0.8231,0.8374,0.8296,0.8381,0.0,0.0,0.0,0.0,0.0,0.0,0.0,0.0,1.3945,1.4078,1.2135,1.0594,1.1101,0.9644,0.878,1.0067,0.8088,0.7547,1.0894,0.856,0.4806,0.0509,-0.0,-0.0,-0.0,-0.0,-0.0,-0.0,-0.0,-0.0,-0.0,-0.0,-0.0,-0.0,-0.0,-0.1006,-0.3215,-0.3215,-0.4331,-0.6483,-0.6483,-0.4144,-0.0,-0.0,-0.0,-0.0,-0.0,-0.0,0.0101,0.1111,0.4144,0.8026,0.8019,0.8016,0.8016,0.8019,0.6667,0.5125,0.7266,0.7982,0.7979,0.7979,0.7975,0.7965,0.7965,0.7965,0.7965,0.7965,0.7965,0.7965,0.7965,0.7952,0.8045,0.8075,0.8062,0.8055,0.8113,0.8313,0.8489,0.852,0.875,0.894,0.894,0.894,0.8896,0.8774,0.8648,0.8604,0.8699,0.8604,0.8611,0.8825,0.8716,0.8676,0.8798,0.8608,0.8381,0.814,0.8072,0.8055,0.8082,0.8055,0.8055,0.8082,0.8055,0.8069,0.8126,0.8221,0.836,0.8526,0.8526,0.8608,1.2921,1.3957,1.496,1.4044,1.3896,1.3651,0.0,0.0,1.2198,1.065,0.8892,0.7425,0.6659,0.6251,0.501,0.1908,0.1079,0.1092,0.1529,0.1199,0.0645,0.0104,-0.0,-0.0,-0.0,-0.0,-0.0,-0.0,-0.0,-0.0,-0.0,-0.0,-0.0,-0.0,-0.0,-0.0101,-0.0404,-0.0404,-0.0606,-0.0909,-0.0909,-0.0606,-0.0,-0.0,-0.0,-0.0,-0.0,-0.0,0.0404,0.5159,0.751,0.8022,0.8002,0.7989,0.7979,0.7992,0.7782,0.7563,0.7872,0.7962,0.8045,0.8045,0.8045,0.8041,0.8041,0.8041,0.8041,0.8041,0.8041,0.8041,0.8041,0.8041,0.8075,0.8211,0.814,0.8113,0.8377,0.8459,0.8523,0.8659,0.8821,0.894,0.894,0.894,0.8933,0.8916,0.8899,0.8845,0.8726,0.8696,0.8645,0.8543,0.8404,0.8326,0.8343,0.8428,0.8469,0.8435,0.8184,0.8102,0.8238,0.8113,0.8102,0.8241,0.8109,0.8167,0.8431,0.8323,0.8414,0.8682,0.8682,0.8767,1.4879,1.5367,1.5569,0.0,1.3452,1.2811,1.1155,1.0467,0.9446,0.6917,0.4541,0.287,0.2438,0.2364,0.1852,0.0,-0.0,-0.0,-0.0,-0.0,0.1193,0.4235,0.4932,0.3844,0.0308,-0.0,-0.0,-0.0,-0.0,-0.0,-0.0,-0.0,-0.0,-0.0,-0.0,-0.0,-0.0,-0.0,-0.0,-0.0,-0.0,0.1617,0.4663,0.4653,0.3833,0.2414,0.3937,0.3732,0.2515,0.4734,0.6561,0.7995,0.7982,0.7969,0.7955,0.7972,0.7969,0.7952,0.7952,0.8048,0.8038,0.8038,0.8038,0.8038,0.8038,0.8038,0.8038,0.8038,0.8106,0.8174,0.8174,0.8235,0.8313,0.8377,0.8343,0.833,0.8455,0.8554,0.8632,0.8699,0.8832,0.894,0.894,0.894,0.894,0.894,0.894,0.8916,0.8852,0.8764,0.8652,0.8499,0.8509,0.8459,0.8286,0.8401,0.8445,0.8364,0.8241,0.8204,0.8269,0.8289,0.8289,0.8272,0.8208,0.8275,0.8482,0.8421,0.8503,0.8713,0.8801,0.8876,1.6628,0.0,0.0,1.4388,1.3416,1.2465,1.0758,0.9436,0.8094,0.5817,0.3153,0.1208,0.1211,0.1222,0.1234,0.1351,0.1235,0.1234,0.1239,0.1223,0.2734,0.6575,0.8126,0.7113,0.2847,0.1696,0.1271,0.1254,0.1143,0.1133,0.1118,0.1112,0.1109,0.1109,0.1109,0.1109,0.1109,0.1109,0.1109,0.1109,0.1109,0.3128,0.6903,0.7711,0.6564,0.4117,0.6874,0.6874,0.5129,0.5127,0.6239,0.7972,0.7965,0.7955,0.8041,0.7959,0.7952,0.8038,0.8038,0.8038,0.8038,0.8038,0.8038,0.8038,0.8038,0.8038,0.8038,0.8038,0.815,0.8272,0.8272,0.8377,0.8492,0.8533,0.8513,0.8506,0.8587,0.8662,0.8723,0.8764,0.8862,0.894,0.894,0.894,0.894,0.894,0.894,0.894,0.894,0.8842,0.8713,0.856,0.8682,0.8652,0.8353,0.8462,0.8503,0.8397,0.835,0.8347,0.8391,0.8452,0.8455,0.8394,0.835,0.8421,0.8608,0.8567,0.8625,0.8774,0.8889,0.894,0.0,0.0,1.6753,1.4783,1.3518,1.2509,1.1133,0.9802,0.8846,0.8735,0.6369,0.4355,0.4355,0.4357,0.4492,0.4678,0.4516,0.4382,0.4334,0.4398,0.4439,0.4582,0.6874,0.8595,0.0,0.6015,0.435,0.4348,0.4068,0.3922,0.3919,0.3853,0.3915,0.3915,0.3915,0.3915,0.3915,0.3915,0.3915,0.3915,0.3915,0.3915,0.4218,0.6859,0.6553,0.4117,0.6859,0.7989,0.7885,0.7875,0.7972,0.7972,0.8048,0.8038,0.8038,0.8038,0.8038,0.8038,0.8038,0.8038,0.8038,0.8038,0.8038,0.8038,0.8038,0.8038,0.8038,0.8038,0.815,0.8272,0.8272,0.8377,0.852,0.8669,0.8587,0.8564,0.8862,0.8811,0.8754,0.8903,0.8933,0.894,0.894,0.894,0.894,0.894,0.894,0.894,0.894,0.8933,0.8872,0.872,0.8842,0.8808,0.8503,0.8615,0.8703,0.8699,0.8557,0.854,0.8689,0.856,0.855,0.8696,0.855,0.8625,0.8923,0.8774,0.8781,0.893,0.8937,0.894,0.0,0.0,1.7476,1.5095,1.3833,1.2728,1.1093,0.9768,0.895,0.9068,0.7967,0.7048,0.7278,0.7516,0.7743,0.7892,0.7972,0.787,0.7472,0.762,0.7652,0.7236,0.8291,0.0,0.0,0.0,0.0,0.7385,0.7149,0.6931,0.6638,0.6619,0.6656,0.6656,0.6656,0.6656,0.6656,0.6656,0.6656,0.6656,0.6656,0.6653,0.6648,0.7575,0.7466,0.6728,0.7563,0.7969,0.7955,0.7952,0.7952,0.8048,0.8041,0.8038,0.8038,0.8038,0.8038,0.8038,0.8038,0.8038,0.8038,0.8038,0.8038,0.8038,0.8038,0.8038,0.8038,0.8038,0.815,0.8292,0.8387,0.8523,0.8672,0.8825,0.8821,0.8815,0.8916,0.8899,0.8876,0.8927,0.894,0.894,0.894,0.894,0.894,0.894,0.894,0.894,0.894,0.8852,0.8767,0.8716,0.8757,0.8706,0.8499,0.8621,0.871,0.871,0.8662,0.8655,0.871,0.8757,0.876,0.8713,0.8659,0.8733,0.894,0.8784,0.8791,0.894,0.894,0.894,0.0,1.8697,1.8444,1.5972,1.4688,1.3586,1.2046,1.0711,0.9765,0.9824,0.943,0.9283,0.9864,1.0188,1.0286,1.0274,1.014,0.9939,0.9546,0.9332,0.9052,0.8796,0.9011,0.9018,0.0,0.0,0.0,0.8845,0.8645,0.8377,0.817,0.8079,0.7972,0.7972,0.7972,0.7972,0.7972,0.7972,0.7972,0.7972,0.7972,0.7969,0.7962,0.7969,0.7959,0.8038,0.7955,0.7952,0.8038,0.8038,0.8038,0.8038,0.8038,0.8038,0.8038,0.8038,0.8038,0.8038,0.8038,0.8038,0.8038,0.8038,0.8038,0.8038,0.8038,0.8038,0.8038,0.8038,0.8187,0.8367,0.8459,0.8635,0.8818,0.8916,0.894,0.894,0.894,0.894,0.894,0.894,0.894,0.894,0.894,0.894,0.894,0.894,0.894,0.894,0.894,0.8852,0.8791,0.8791,0.8791,0.8754,0.8655,0.8733,0.8791,0.8791,0.8791,0.8791,0.8791,0.8886,0.8893,0.8794,0.8791,0.8842,0.894,0.8842,0.8842,0.894,0.894,0.8964,1.9795,1.9477,1.9416,1.7285,1.6084,1.5085,1.3685,1.2339,1.1338,1.1278,1.0845,1.094,0.0,0.0,1.1898,1.1778,1.1245,1.0871,1.0858,0.9896,0.9126,0.0,0.0,0.0,0.0,0.0,0.0,0.894,0.8662,0.8489,0.8482,0.8208,0.8048,0.8038,0.8038,0.8038,0.8038,0.8038,0.8038,0.8038,0.8038,0.8038,0.8038,0.8038,0.8038,0.8038,0.8038,0.8038,0.8038,0.8038,0.8038,0.8038,0.8038,0.8038,0.8038,0.8038,0.8038,0.8038,0.8038,0.8038,0.8038,0.8038,0.8038,0.8038,0.8038,0.8038,0.8041,0.8048,0.8255,0.8476,0.8489,0.871,0.8927,0.8937,0.894,0.894,0.894,0.894,0.894,0.894,0.894,0.894,0.894,0.894,0.894,0.894,0.894,0.894,0.894,0.894,0.894,0.894,0.894,0.894,0.894,0.894,0.894,0.894,0.894,0.894,0.894,0.894,0.894,0.894,0.894,0.894,0.894,0.894,0.894,0.894,0.8947,0.9022,2.0096,1.928,1.855,1.71,1.6022,1.5288,1.4964,1.3931,1.313,1.3209,1.2636,1.2199,0.0,0.0,0.0,1.2654,1.3143,0.0,1.3441,1.3117,0.0,1.1064,0.0,1.0266,0.9058,0.894,0.0,0.894,0.876,0.8604,0.8486,0.8309,0.816,0.8041,0.8038,0.8038,0.8038,0.8038,0.8038,0.8038,0.8038,0.8038,0.8038,0.8038,0.8038,0.8038,0.8038,0.8038,0.8038,0.8038,0.8038,0.8038,0.8038,0.8038,0.8038,0.8038,0.8038,0.8038,0.8038,0.8038,0.8038,0.8038,0.8038,0.8038,0.8038,0.8038,0.8065,0.818,0.8265,0.8374,0.8594,0.871,0.8798,0.8913,0.894,0.894,0.894,0.894,0.894,0.894,0.894,0.894,0.894,0.894,0.894,0.894,0.894,0.894,0.894,0.894,0.894,0.894,0.894,0.894,0.894,0.894,0.894,0.894,0.894,0.894,0.894,0.894,0.894,0.894,0.894,0.894,0.894,0.894,0.894,0.894,0.9049,0.9117,2.0828,1.9984,1.9033,1.7775,1.6965,1.615,1.5497,1.4956,1.4581,1.4707,1.4283,0.0,1.4227,1.4568,1.4706,0.0,0.0,0.0,1.4841,1.4298,1.3542,0.0,1.2298,0.0,1.0033,0.9915,0.9559,0.8842,0.8696,0.8574,0.8486,0.8282,0.813,0.8041,0.8038,0.8038,0.8038,0.8038,0.8038,0.8038,0.8038,0.8038,0.8038,0.8038,0.8038,0.8038,0.8038,0.8038,0.8038,0.8038,0.8038,0.8038,0.8038,0.8038,0.8038,0.8038,0.8038,0.8038,0.8038,0.8038,0.8038,0.8038,0.8038,0.8038,0.8038,0.8038,0.8072,0.8225,0.8316,0.8418,0.8652,0.876,0.8832,0.8916,0.894,0.894,0.894,0.894,0.894,0.894,0.894,0.894,0.894,0.894,0.894,0.894,0.894,0.894,0.894,0.894,0.894,0.894,0.894,0.894,0.894,0.894,0.894,0.894,0.894,0.894,0.894,0.894,0.894,0.894,0.894,0.894,0.894,0.9001,0.9032,0.9035,0.9184,0.9289,2.1651,2.0933,2.0257,1.9102,1.8375,1.76,1.649,1.6193,1.6187,1.6465,0.0,1.6077,1.6869,1.7244,1.7197,1.6427,0.0,1.6469,1.6316,1.5223,1.4344,1.4135,1.3853,1.3048,1.1538,1.1298,1.0787,0.9355,0.9071,0.8866,0.8455,0.8228,0.8079,0.8041,0.8038,0.8038,0.8038,0.8038,0.8038,0.8038,0.8038,0.8038,0.8038,0.8038,0.8038,0.8038,0.8038,0.8038,0.8038,0.8038,0.8038,0.8038,0.8038,0.8038,0.8038,0.8038,0.8038,0.8038,0.8038,0.8038,0.8038,0.8038,0.8038,0.8041,0.8065,0.8055,0.8075,0.8248,0.8387,0.8516,0.8669,0.8825,0.894,0.894,0.894,0.8944,0.8964,0.8967,0.8967,0.8967,0.8967,0.8967,0.8967,0.8967,0.8967,0.8967,0.895,0.894,0.894,0.894,0.894,0.894,0.894,0.894,0.894,0.894,0.8947,0.8964,0.8967,0.8967,0.8967,0.8988,0.8981,0.894,0.8977,0.8988,0.8967,0.9113,0.9184,0.9188,0.934,0.9483,2.1916,2.1527,2.1007,2.081,2.0039,1.9502,2.024,1.956,0.0,0.0,1.9928,1.9382,1.9076,1.9098,1.9407,1.971,2.0111,2.0851,2.2151,2.0357,1.8673,0.0,1.6103,1.4449,1.3053,1.2671,0.0,0.0,1.1737,1.0619,0.8409,0.837,0.8292,0.8045,0.8038,0.8038,0.8038,0.8038,0.8038,0.8038,0.8038,0.8038,0.8038,0.8038,0.8038,0.8038,0.8038,0.8038,0.8038,0.8038,0.8038,0.8038,0.8038,0.8038,0.8038,0.8038,0.8038,0.8038,0.8038,0.8038,0.8038,0.8038,0.8038,0.8062,0.8194,0.814,0.8096,0.837,0.8462,0.8516,0.8669,0.8825,0.894,0.894,0.894,0.8971,0.9089,0.9117,0.9117,0.9117,0.9117,0.9117,0.9117,0.9117,0.9117,0.9117,0.9015,0.894,0.894,0.894,0.894,0.894,0.894,0.894,0.894,0.894,0.8988,0.911,0.9117,0.9117,0.9117,0.9235,0.9188,0.8944,0.9181,0.9242,0.9117,0.9269,0.934,0.9347,0.95,0.9585,2.4165,2.3176,2.2097,2.2097,2.1378,2.075,2.1189,0.0,0.0,0.0,2.1126,2.0802,2.0348,2.0326,0.0,2.0083,2.0908,2.1745,2.2159,2.1562,2.0934,2.0234,1.8618,1.6983,1.5589,1.4534,1.3618,1.2764,1.2459,1.1687,1.0378,0.9665,0.9183,0.9027,0.8333,0.8038,0.8038,0.8038,0.8038,0.8038,0.8038,0.8038,0.8038,0.8038,0.8038,0.8038,0.8038,0.8038,0.8038,0.8038,0.8038,0.8038,0.8038,0.8038,0.8038,0.8038,0.8038,0.8038,0.8038,0.8038,0.8038,0.8038,0.8038,0.8055,0.813,0.8153,0.8204,0.8421,0.854,0.8635,0.8791,0.9424,1.0025,1.0025,1.0676,1.124,1.1325,1.0687,1.0166,1.0246,0.9709,0.9178,0.9259,0.9273,0.9245,0.9164,0.9093,0.9022,0.8947,0.894,0.894,0.894,0.894,0.894,0.894,0.9008,0.9079,0.915,0.9228,0.9273,0.9273,0.9344,0.9313,0.9171,0.931,0.9344,0.9273,0.9425,0.95,0.9503,0.9649,0.972,2.6531,2.5461,2.424,2.3966,2.3032,2.218,2.1943,2.1847,0.0,0.0,2.1852,2.1693,2.1485,2.1482,2.1277,0.0,2.1318,2.1953,2.1849,2.1996,2.2147,0.0,2.0987,0.0,1.8323,1.6729,0.0,1.3853,1.3393,1.2909,1.2274,1.1081,1.0386,1.0386,0.941,0.8825,0.8825,0.8531,0.8531,0.8825,0.8528,0.8531,0.8825,0.8825,0.8726,0.8432,0.8432,0.8233,0.8038,0.8038,0.8038,0.8038,0.8038,0.8038,0.8038,0.8038,0.8134,0.8432,0.8137,0.8333,0.8825,0.8531,0.8233,0.8045,0.8371,0.8372,0.8402,0.9161,0.9323,0.9269,0.9719,1.0643,1.1538,1.1538,1.2436,1.335,1.3401,1.2535,1.1607,1.1456,1.0595,0.9731,0.948,0.9381,0.9442,0.9624,0.9349,0.9174,0.9389,0.9047,0.894,0.894,0.894,0.895,0.8981,0.9089,0.9181,0.9245,0.9364,0.9432,0.9432,0.9459,0.9445,0.9384,0.9442,0.9459,0.9432,0.9581,0.9656,0.9656,0.9771,0.994,2.77,2.7986,2.8161,2.6918,2.5302,2.4208,2.4603,0.0,0.0,2.3372,2.3258,2.2978,2.2949,2.2689,2.2476,0.0,0.0,2.306,2.5006,2.3579,2.2761,2.3886,0.0,0.0,2.0775,1.9262,1.816,1.7645,1.6327,1.4534,1.2358,1.187,1.1755,1.1755,1.1658,1.1556,1.1556,1.0386,1.0386,1.156,1.0386,1.0386,1.1556,1.1556,1.0877,0.9805,0.9805,0.9118,0.8038,0.8038,0.8038,0.8038,0.8038,0.8038,0.8038,0.8038,0.8726,0.9608,0.8432,0.9505,1.1361,1.0194,0.9019,0.8261,0.9589,0.9154,0.8805,1.1513,1.1513,1.1039,1.2317,1.2894,1.3053,1.3053,1.3312,1.3517,1.3826,1.3758,1.3255,1.219,1.1879,1.1257,0.963,0.9381,0.9781,1.0956,0.9809,0.9389,1.0785,0.9699,0.894,0.894,0.894,0.8991,0.9123,0.9147,0.9273,0.9551,0.9581,0.9588,0.9588,0.971,0.9652,0.9388,0.9642,0.9717,0.9588,0.973,0.9802,0.9802,0.9815,1.0539,3.0194,3.0264,2.9905,2.8566,2.7398,2.64,2.547,0.0,0.0,2.43,2.3918,2.3613,2.3867,2.3359,2.2861,0.0,0.0,0.0,2.4274,2.4031,2.4116,2.487,2.3608,0.0,0.0,0.0,1.9286,1.7916,1.7297,1.6231,1.4419,1.3545,1.3102,1.3102,1.2334,1.1945,1.1945,1.1361,1.1361,1.1848,1.1365,1.1365,1.1945,1.1945,1.1653,1.1072,1.0288,0.9706,0.9118,0.8333,0.8432,0.9217,0.9217,0.9706,1.0386,1.0386,1.0681,1.1072,1.0485,1.1068,1.1848,1.1268,1.0959,1.0775,1.1349,1.1258,1.1191,1.2417,1.2639,1.249,1.3021,1.3837,1.4776,1.5636,1.606,1.6186,1.6288,1.5858,1.5241,1.4787,1.4023,1.3189,1.2414,1.2284,1.2409,1.2539,1.2194,1.2024,1.2327,1.2073,1.1775,1.1551,1.088,1.0528,1.0595,1.1701,1.2356,1.2511,1.2517,1.2583,1.2583,1.1699,1.1671,1.2469,1.1667,1.1703,1.2583,1.2658,1.275,1.2986,1.2986,1.3409,3.2159,3.1902,3.1196,2.9981,2.9106,2.7993,0.0,0.0,0.0,2.4623,2.4274,2.4033,2.4199,2.374,2.3193,0.0,0.0,2.3487,2.3614,2.4108,2.4623,2.5272,0.0,2.3785,2.3595,2.1977,2.0259,1.8365,1.787,1.7318,1.6386,1.5134,1.4459,1.4459,1.3596,1.3011,1.3011,1.2721,1.2721,1.3017,1.2624,1.2721,1.3011,1.3011,1.2624,1.1848,1.0974,1.0096,0.941,0.8825,0.9118,0.9998,1.0386,1.1072,1.1945,1.1945,1.2139,1.2431,1.2042,1.2431,1.3011,1.2624,1.2932,1.3396,1.364,1.3234,1.2931,1.3926,1.4367,1.4572,1.465,1.5433,1.6429,1.7609,1.8016,1.8203,1.829,1.7661,1.6958,1.6644,1.5876,1.4924,1.4381,1.42,1.4142,1.4214,1.3896,1.3755,1.4049,1.3826,1.3668,1.3576,1.3213,1.2866,1.2248,1.359,1.4412,1.4478,1.4513,1.4604,1.4604,1.3526,1.3407,1.4604,1.3531,1.3559,1.47,1.47,1.4811,1.5151,1.5151,1.5515,3.3059,3.2877,3.2536,3.1664,3.0292,2.8896,0.0,0.0,2.572,2.4406,2.4303,2.4287,2.3867,2.3789,2.3643,2.3223,0.0,0.0,2.392,2.3771,2.3919,0.0,0.0,2.4985,2.4802,2.3101,2.1296,1.9613,1.8411,1.7684,1.7692,1.648,1.5737,1.5737,1.5737,1.573,1.573,1.4555,1.4555,1.573,1.4459,1.4555,1.573,1.573,1.437,1.1945,1.1848,1.0386,0.8137,0.941,0.9998,1.0096,1.1361,1.1848,1.1945,1.1945,1.2721,1.368,1.2334,1.3596,1.554,1.4268,1.4752,1.5843,1.6427,1.4926,1.3551,1.6401,1.7355,1.7649,1.7855,1.7935,1.8008,1.841,1.8484,1.8564,1.8851,1.8911,1.8535,1.7265,1.6962,1.6412,1.465,1.4078,1.4307,1.5736,1.4391,1.3893,1.5654,1.4586,1.3785,1.4117,1.5602,1.5881,1.406,1.4249,1.4478,1.4584,1.4599,1.4604,1.4604,1.4604,1.4604,1.4604,1.4604,1.471,1.5049,1.5049,1.5161,1.551,1.551,1.6501,3.4299,3.4677,3.4477,3.2613,3.1462,3.0277,2.8274,0.0,0.0,2.5941,2.5155,2.4496,2.4473,2.4108,2.3652,2.3164,2.3124,0.0,0.0,0.0,0.0,2.5027,2.4782,2.4754,0.0,0.0,2.219,2.0854,2.0395,1.9405,1.7785,1.7318,1.6669,1.5832,1.5832,1.5832,1.5832,1.5439,1.5439,1.5832,1.5439,1.5439,1.5832,1.5832,1.5343,1.4561,1.3686,1.2807,1.2032,1.1458,1.1848,1.2716,1.3102,1.3782,1.4567,1.4567,1.4854,1.5146,1.4758,1.5146,1.5763,1.557,1.5967,1.65,1.6894,1.6304,1.5781,1.712,1.7662,1.7869,1.7756,1.8036,1.8323,1.8217,1.8497,1.8811,1.8905,1.9085,1.913,1.8745,1.8642,1.8436,1.7569,1.7338,1.7416,1.7591,1.7407,1.7216,1.7676,1.7378,1.7222,1.7123,1.7811,1.759,1.5995,1.705,1.7842,1.7923,1.8102,1.8208,1.8208,1.7282,1.7375,1.836,1.7375,1.7416,1.8604,1.8604,1.8753,1.902,1.9212,1.9594,0.0,3.5286,3.4977,3.3436,3.2406,0.0,0.0,0.0,0.0,2.736,2.6377,2.555,2.5472,2.4743,2.4005,2.3653,2.3602,2.3787,0.0,0.0,0.0,2.5506,0.0,0.0,0.0,2.3869,2.2948,2.2041,2.1569,2.0666,1.9131,1.8234,1.7318,1.6574,1.6015,1.5832,1.5832,1.5832,1.5832,1.5832,1.5832,1.5832,1.5832,1.5832,1.5534,1.5045,1.4262,1.359,0.0,1.2813,1.3108,1.3974,1.4459,1.514,1.5832,1.5832,1.5832,1.5832,1.5832,1.5905,1.6025,1.6213,1.6547,1.6907,1.7094,1.7094,1.7114,1.7482,1.7809,1.8029,1.7949,1.8283,1.8637,1.8564,1.8824,1.9092,1.9092,1.9239,1.9366,1.9366,1.9366,1.9305,1.9125,1.8998,1.8865,1.8684,1.8718,1.8738,1.8664,1.8811,1.8898,1.8831,1.8985,1.8735,1.7778,1.8874,1.9533,1.9533,1.9806,1.996,1.996,1.914,1.9235,2.0227,1.9235,1.9286,2.0401,2.0508,2.0655,2.0842,2.1029,2.1109,0.0,0.0,0.0,0.0,0.0,0.0,0.0,0.0,0.0,0.0,0.0,0.0,2.6651,2.543,2.4464,2.4464,2.4112,2.4122,0.0,2.5763,0.0,0.0,2.5925,0.0,2.3667,2.3664,2.3574,2.3164,2.2031,2.1382,2.1293,1.9131,1.7785,1.7692,1.648,1.5832,1.5832,1.5832,1.5832,1.5832,1.5832,1.5832,1.5832,1.5832,1.5146,1.407,1.407,1.3301,1.2237,1.3494,1.407,1.4166,1.5337,1.5832,1.5832,1.5832,1.5832,1.5832,1.5852,1.6039,1.6279,1.6319,1.672,1.7181,1.7181,1.7368,1.7582,1.7582,1.7822,1.8136,1.8397,1.8704,1.9018,1.9279,1.9352,1.9366,1.9366,1.9366,1.9366,1.9366,1.9366,1.9366,1.9366,1.9138,1.8958,1.8958,1.8724,1.8651,1.8918,1.8958,1.9058,1.9339,1.9386,1.9399,1.9399,1.9646,1.98,1.98,2.0094,2.0267,2.0267,2.0281,2.0294,2.0294,2.0294,2.0434,2.0708,2.0982,2.1109,2.1109,2.1109,2.1109,0.0,0.0,0.0,0.0,0.0,0.0,0.0,0.0,0.0,0.0,0.0,0.0,0.0,0.0,2.4349,2.4002,2.4008,2.4095,2.4122,0.0,0.0,2.5675,2.5501,2.5089,2.4116,2.3537,2.3252,2.3144,2.2862,2.2306,2.1382,1.9852,1.868,1.7692,1.648,1.5832,1.5832,1.5832,1.5832,1.5832,1.5832,1.5832,1.5832,1.5832,1.5635,1.5343,1.5343,1.5146,1.4956,1.5242,1.5343,1.5343,1.5635,1.5832,1.5832,1.5832,1.5832,1.5865,1.6086,1.6213,1.6346,1.68,1.7188,1.7482,1.7482,1.7528,1.7582,1.7582,1.7969,1.835,1.819,1.8704,1.9225,1.9065,1.9199,1.9366,1.9366,1.9366,1.9366,1.9366,1.9366,1.9366,1.9366,1.9305,1.9265,1.9265,1.9205,1.9185,1.9252,1.9265,1.9292,1.9359,1.9566,1.97,1.97,1.976,1.98,1.98,2.0287,2.0575,2.0575,2.0788,2.0902,2.0902,2.0902,2.0935,2.1009,2.1076,2.1109,2.1109,2.1109,2.1109,0.0,0.0,0.0,3.3045,3.2692,3.2132,0.0,0.0,0.0,0.0,0.0,0.0,0.0,0.0,0.0,0.0,2.412,0.0,0.0,0.0,2.519,2.524,2.5083,2.4671,2.3808,2.3335,2.3135,2.3135,2.3135,2.2775,2.2129,2.0944,1.9761,1.8596,1.7311,1.6386,1.5832,1.5832,1.5832,1.5832,1.5832,1.5832,1.5832,1.5832,1.5832,1.5832,1.5832,1.5832,1.5832,1.5832,1.5912,1.6019,1.5879,1.5912,1.6019,1.5879,1.5912,1.6052,1.6219,1.6446,1.6754,1.7201,1.7455,1.7582,1.7582,1.7582,1.7609,1.7756,1.813,1.8484,1.8457,1.8905,1.9325,1.9165,1.9252,1.9366,1.9366,1.9366,1.9366,1.9366,1.9366,1.9366,1.9366,1.9366,1.9366,1.9366,1.9366,1.9366,1.9366,1.9366,1.9366,1.9366,1.9626,1.98,1.98,2.0047,2.0201,2.0201,2.0621,2.0875,2.0875,2.1029,2.1109,2.1109,2.1109,2.1109,2.1109,2.1109,2.1109,2.1109,2.1109,2.1109,2.8512,3.0384,3.187,3.196,3.1856,3.1663,3.1048,0.0,0.0,0.0,0.0,0.0,0.0,2.6535,0.0,0.0,0.0,0.0,2.4587,2.4179,2.3867,2.4008,2.3877,0.0,2.2447,2.2398,2.2398,2.2398,2.2398,2.2524,2.2766,2.1478,2.0326,1.9488,1.8133,1.685,1.5832,1.5832,1.5832,1.5832,1.5832,1.5832,1.5832,1.5832,1.5832,1.5832,1.5832,1.5832,1.5832,1.5879,1.6019,1.6186,1.6025,1.6059,1.6186,1.6025,1.6092,1.6286,1.6373,1.676,1.7255,1.7502,1.7582,1.7582,1.7582,1.7615,1.7716,1.8029,1.8297,1.8557,1.8844,1.9145,1.9366,1.9366,1.9366,1.9366,1.9366,1.9366,1.9366,1.9366,1.9366,1.9366,1.9366,1.9406,1.9432,1.9432,1.9472,1.9499,1.9499,1.9499,1.9499,1.9499,1.976,1.9933,1.9933,2.0428,2.0742,2.0742,2.0969,2.1109,2.1109,2.1109,2.1109,2.1109,2.1109,2.1109,2.1109,2.1109,2.1109,2.1109,2.1109,2.1109,2.6337,2.6901,2.8037,3.1784,3.2277,3.1796,3.1663,0.0,0.0,0.0,0.0,0.0,0.0,2.5317,2.449,0.0,0.0,2.1269,0.0,0.0,2.055,1.9582,0.0,2.0466,1.9264,1.9187,1.9273,1.9273,1.9273,1.9843,2.1145,1.9107,1.8356,1.948,1.7304,1.6015,1.5832,1.5832,1.5832,1.5832,1.5832,1.5832,1.5832,1.5832,1.5832,1.5832,1.5832,1.5832,1.5845,1.6099,1.6086,1.5945,1.6393,1.6293,1.5952,1.64,1.6446,1.6339,1.684,1.7235,1.7522,1.7569,1.7582,1.7582,1.7582,1.7769,1.8036,1.8337,1.8457,1.8557,1.8844,1.9145,1.9366,1.9366,1.9366,1.9366,1.9366,1.9366,1.9366,1.9366,1.9366,1.9366,1.9366,1.9573,1.9733,1.9733,1.9947,2.01,2.01,2.01,2.01,2.01,2.0368,2.0541,2.0541,2.0848,2.1042,2.1042,2.1082,2.1109,2.1109,2.1109,2.1109,2.1109,2.1109,2.1109,2.1109,2.1109,2.1109,2.1109,2.1109,2.1109,2.5071,2.5201,2.5576,2.8063,2.8596,2.8612,2.8824,0.0,0.0,0.0,0.0,0.0,0.0,0.0,2.4428,2.2519,0.0,1.9907,1.8701,1.8254,1.7809,0.0,1.8075,1.8593,1.851,1.8771,1.8804,1.8596,1.8587,1.9005,1.9904,1.8863,1.8579,1.948,1.8395,1.7755,1.7755,1.7755,1.7117,1.5832,1.648,1.648,1.5832,1.5832,1.5832,1.5832,1.5832,1.5832,1.5852,1.6152,1.6192,1.6112,1.654,1.654,1.6353,1.6787,1.686,1.6807,1.7235,1.7468,1.7582,1.7582,1.7582,1.7582,1.7582,1.7802,1.811,1.8404,1.8604,1.8791,1.9085,1.9265,1.9366,1.9366,1.9366,1.9366,1.9366,1.9366,1.9412,1.9573,1.9599,1.9653,1.9806,1.9947,2.0034,2.0034,2.0147,2.0234,2.0234,2.0234,2.0234,2.0234,2.0501,2.0675,2.0675,2.0942,2.1109,2.1109,2.1109,2.1109,2.1109,2.1109,2.1109,2.1109,2.1109,2.1109,2.1109,2.1109,2.1109,2.1109,2.1109,2.1109,2.3914,2.386,2.3691,2.4122,0.0,2.5942,2.6031,0.0,0.0,0.0,0.0,0.0,0.0,2.4967,0.0,2.1475,1.9791,1.8103,1.6092,1.5247,1.4782,1.5021,1.5654,1.6389,1.7148,1.7676,1.7858,1.7586,1.7571,1.7841,1.8539,1.8306,1.8417,1.9031,1.9039,1.9039,1.9039,1.967,1.8848,1.6655,1.7677,1.7584,1.6655,1.6655,1.6655,1.6655,1.6386,1.6379,1.6683,1.6511,1.671,1.7161,1.7327,1.7406,1.7326,1.719,1.7194,1.7281,1.7508,1.7582,1.7582,1.7582,1.7582,1.7595,1.7669,1.7903,1.821,1.8504,1.8804,1.9078,1.9305,1.9366,1.9366,1.9366,1.9366,1.9366,1.9366,1.9419,1.9533,1.976,1.9853,1.9973,2.0194,2.0294,2.0334,2.0334,2.0394,2.0434,2.0434,2.0434,2.0434,2.0434,2.0641,2.0775,2.0775,2.0982,2.1109,2.1109,2.1109,2.1109,2.1109,2.1109,2.1109,2.1109,2.1109,2.1109,2.1109,2.1109,2.1109,2.1109,2.1109,2.1109,2.2369,2.2147,2.1946,2.1809,0.0,0.0,2.5315,2.5518,0.0,2.5113,0.0,0.0,0.0,2.285,2.1561,2.0978,1.7363,1.4621,1.4706,1.2421,1.0974,1.1409,1.2169,1.2831,1.3155,1.3952,1.4416,1.4396,1.4396,1.5141,1.6851,1.5857,1.6056,1.7755,1.787,1.787,1.787,2.0034,2.0486,1.9214,1.9314,1.9306,1.9214,1.9214,1.9214,1.9123,1.8048,1.8226,1.9088,1.7393,1.7945,1.9841,1.9489,1.9354,1.9221,1.7743,1.7321,1.7555,1.7575,1.7582,1.7582,1.7582,1.7582,1.7635,1.7923,1.8223,1.8517,1.8811,1.9105,1.9339,1.9359,1.9366,1.9366,1.9366,1.9366,1.9366,1.9366,1.9579,1.9773,1.98,2.0013,2.0207,2.0227,2.0461,2.0641,2.0641,2.0875,2.1049,2.1049,2.1049,2.1049,2.1049,2.1069,2.1076,2.1076,2.1096,2.1109,2.1109,2.1109,2.1109,2.1109,2.1109,2.1109,2.1109,2.1109,2.1109,2.1109,2.1109,2.1109,2.1109,2.1109,2.1109,2.2224,2.1845,2.11,2.0441,0.0,0.0,0.0,0.0,2.2543,2.201,2.1651,0.0,0.0,0.0,1.9324,1.7459,1.5653,1.3638,1.1288,1.0173,0.9607,0.9597,1.02,1.1023,1.2319,1.2978,1.3553,1.4269,1.4355,1.4778,1.5903,1.5497,1.5957,1.7677,1.7692,1.8411,1.9943,2.0845,2.148,2.1774,2.0944,2.0215,1.9497,1.9497,1.9497,1.9488,1.9039,1.9039,1.9438,1.8902,1.9201,2.0107,2.0482,2.0748,2.0821,2.0186,2.002,2.0128,2.0128,2.0274,2.0524,2.0197,1.9897,1.9485,1.9313,1.9015,1.8784,1.8891,1.9138,1.9366,1.9366,1.9366,1.9366,1.9366,1.9366,1.9366,1.9366,1.9593,1.9853,2.0034,2.0307,2.0568,2.0748,2.0869,2.0949,2.0949,2.1042,2.1109,2.1109,2.1109,2.1109,2.1109,2.1109,2.1109,2.1109,2.1109,2.1109,2.1109,2.1109,2.1109,2.1109,2.1109,2.1109,2.1109,2.1109,2.1109,2.1109,2.1109,2.1109,2.1109,2.1109,2.1109,2.1855,2.1535,2.0728,0.0,0.0,0.0,0.0,2.0275,1.9947,1.9631,1.9715,0.0,0.0,0.0,0.0,0.0,1.3606,1.1844,0.8972,0.8426,0.8221,0.8127,0.9074,1.0298,1.1555,1.2617,1.361,1.4422,1.4522,1.4776,1.5364,1.5398,1.5896,1.703,1.7863,1.9039,2.0755,2.148,2.2306,2.3047,2.2217,2.14,2.0674,2.0674,2.0674,2.0584,2.0215,2.0305,2.061,2.0062,2.0345,2.1087,2.1599,2.2025,2.2257,2.1853,2.1752,2.1752,2.1752,2.2001,2.2258,2.1877,2.1515,2.131,2.0978,2.0674,2.0258,1.9913,1.9873,2.004,1.9482,1.9366,1.9366,1.9366,1.9432,1.9506,1.9506,1.9806,2.0134,2.0334,2.0615,2.0875,2.1076,2.1109,2.1109,2.1109,2.1109,2.1109,2.1109,2.1109,2.1109,2.1109,2.1109,2.1109,2.1109,2.1109,2.1109,2.1109,2.1109,2.1109,2.1109,2.1109,2.1109,2.1109,2.1109,2.1109,2.1109,2.1109,2.1109,2.1109,2.1109,2.1109,2.099,2.1114,0.0,0.0,0.0,0.0,1.8497,1.8258,1.8443,1.8415,0.0,1.7632,1.6234,1.5471,0.0,1.417,1.1139,0.8778,0.8423,0.7285,0.6532,0.6681,0.8901,1.0439,1.0444,1.262,1.4208,1.4502,1.4522,1.4776,1.5371,1.5398,1.5531,1.5818,1.8211,1.9497,1.9497,2.1863,2.3057,2.3135,2.3135,2.3135,2.3135,2.3135,2.3135,2.3047,2.1845,2.2031,2.2901,2.081,2.1121,2.2991,2.2991,2.3331,2.3583,2.2257,2.1752,2.1752,2.1752,2.2001,2.2258,2.1877,2.225,2.2855,2.2749,2.3005,2.3149,2.194,2.1586,2.1252,1.9815,1.9366,1.9366,1.9366,1.9586,1.98,1.98,2.0261,2.0675,2.0675,2.0909,2.1109,2.1109,2.1109,2.1109,2.1109,2.1109,2.1109,2.1109,2.1109,2.1109,2.1109,2.1109,2.1109,2.1109,2.1109,2.1109,2.1109,2.1109,2.1109,2.1109,2.1109,2.1109,2.1109,2.1109,2.1109,2.1109,2.1109,2.1109,2.1109,2.1109,2.1109,2.099,0.0,0.0,1.94,0.0,0.0,0.0,1.7291,0.0,0.0,1.5064,1.435,1.4266,1.3978,0.0,1.1664,1.0432,0.9232,0.823,0.7874,0.802,0.8882,0.9727,1.0674,1.1601,1.2372,1.3397,1.4796,1.483,1.509,1.5671,1.5698,1.5738,1.5825,1.7404,1.868,1.9488,2.1033,2.2217,2.3135,2.3135,2.3135,2.3135,2.3135,2.3135,2.3047,2.2677,2.2775,2.3076,2.2768,2.3157,2.4049,2.4355,2.4746,2.502,2.4609,2.4501,2.4501,2.4501,2.4781,2.5107,2.5086,2.4854,2.4623,2.4623,2.4139,2.3579,2.3231,2.3151,2.2822,2.1373,2.0923,2.0702,1.9707,1.9586,1.98,1.98,2.0261,2.0675,2.0675,2.0909,2.1109,2.1109,2.1109,2.1109,2.1109,2.1109,2.1109,2.1109,2.1109,2.1109,2.1109,2.1109,2.1109,2.1109,2.1109,2.1109,2.1109,2.1109,2.1109,2.1109,2.1109,2.1109,2.1109,2.1109,2.1109,2.1109,2.1109,2.1109,2.1109,2.1109,2.1109,2.0205,0.0,0.0,1.8778,1.8602,1.8203,1.6723,0.0,0.0,0.0,1.3134,1.2735,1.3185,1.2694,0.0,1.0857,1.0131,0.9419,0.8663,0.8589,0.8927,0.9722,1.0426,1.1156,1.2157,1.2705,1.3608,1.4917,1.4963,1.5217,1.5798,1.5832,1.5832,1.5832,1.749,1.8772,1.9488,2.1212,2.2403,2.3135,2.3135,2.3135,2.3135,2.3135,2.3135,2.3135,2.3135,2.3135,2.3154,2.3428,2.3779,2.4209,2.4639,2.5078,2.5488,2.5674,2.5742,2.5742,2.5742,2.6025,2.6387,2.6387,2.6321,2.6328,2.6328,2.5954,2.5498,2.4939,2.471,2.4378,2.2814,2.2476,2.1926,1.9924,1.9679,1.9973,1.9973,2.0434,2.0848,2.0848,2.0989,2.1109,2.1109,2.1109,2.1109,2.1109,2.1109,2.1109,2.1109,2.1109,2.1109,2.1109,2.1109,2.1109,2.1109,2.1109,2.1109,2.1109,2.1109,2.1109,2.1109,2.1109,2.1109,2.1109,2.1109,2.1109,2.1109,2.1109,2.1109,2.1109,2.1109,2.1109,0.0,0.0,0.0,1.8708,1.8704,0.0,1.6927,1.5155,1.36,1.2732,0.0,1.2533,1.2804,1.1903,1.1112,1.1118,1.0258,0.956,0.9442,0.9437,0.9606,0.9912,1.1101,1.193,1.2188,1.3394,1.4322,1.4883,1.4923,1.5177,1.5758,1.5792,1.5798,1.6015,1.8303,1.9579,1.967,2.1952,2.3135,2.3135,2.3135,2.3135,2.3135,2.3135,2.3135,2.3135,2.3135,2.3135,2.3135,2.3135,2.3398,2.3828,2.4209,2.4648,2.5117,2.5527,2.5703,2.5742,2.5742,2.5996,2.6338,2.6426,2.6973,2.7617,2.7695,2.7988,2.8067,2.6717,2.6264,2.5936,2.4378,2.4044,2.3279,2.0522,2.0287,2.0591,2.0618,2.1073,2.1355,2.1355,2.1229,2.1109,2.1109,2.1109,2.1109,2.1109,2.1109,2.1109,2.1109,2.1109,2.1109,2.1109,2.1109,2.1109,2.1109,2.1109,2.1122,2.1149,2.1149,2.1149,2.1149,2.1122,2.1109,2.1109,2.1109,2.1109,2.1109,2.1109,2.1109,2.1109,2.1109,2.1109,0.0,2.1013,0.0,0.0,1.9177,1.7872,1.6853,1.572,1.4807,1.4593,1.3954,1.3404,1.3477,1.249,1.1465,1.0724,1.0352,1.0183,1.0204,1.0364,1.0889,1.2005,1.2537,1.2994,1.3281,1.3741,1.4235,1.4589,1.4616,1.487,1.5458,1.5491,1.6051,1.7217,1.8764,1.9943,2.0935,2.2403,2.3135,2.3135,2.3135,2.3135,2.3135,2.3135,2.3135,2.3135,2.3135,2.3135,2.3135,2.3135,2.3398,2.3799,2.3887,2.4394,2.5078,2.5176,2.5439,2.5742,2.5742,2.5801,2.5986,2.666,2.7002,2.7275,2.7949,2.8223,2.8184,2.795,2.7843,2.7501,2.5936,2.5599,2.5229,2.3731,2.3665,2.3929,2.4309,2.3635,2.3084,2.3084,2.1971,2.1109,2.1109,2.1109,2.1109,2.1109,2.1109,2.1109,2.1109,2.1109,2.1109,2.1109,2.1109,2.1109,2.1109,2.1109,2.1209,2.1443,2.1456,2.1456,2.1456,2.1236,2.1109,2.1109,2.1109,2.1109,2.1109,2.1109,2.1109,2.1109,2.1109,2.1109,0.0,0.0,0.0,2.0764,0.0,1.9083,1.8639,1.816,1.7813,1.7813,1.5965,1.445,1.445,1.3882,1.3211,1.2466,1.2565,1.2614,1.2389,1.2706,1.3243,1.4037,1.4446,1.4773,1.502,1.5435,1.5769,1.6097,1.6119,1.6255,1.6743,1.6913,1.744,1.8154,1.9412,2.0482,2.1293,2.2301,2.2939,2.3135,2.3135,2.3135,2.3135,2.3135,2.3135,2.3135,2.3135,2.3135,2.3135,2.3135,2.3271,2.3496,2.3711,2.4189,2.4785,2.499,2.5352,2.5742,2.5742,2.5879,2.6152,2.6807,2.7158,2.7451,2.8096,2.8291,2.8291,2.8291,2.8291,2.8067,2.7384,2.7309,2.7334,2.7055,2.5924,2.5002,2.5476,2.4534,2.3574,2.3574,2.2223,2.1109,2.1109,2.1109,2.1109,2.1109,2.1109,2.1109,2.1109,2.1109,2.1109,2.1109,2.1236,2.1263,2.1122,2.137,2.1537,2.155,2.1683,2.1757,2.1757,2.161,2.1396,2.1116,2.1109,2.1109,2.1109,2.1109,2.1109,2.1109,2.1109,2.1109,0.0,0.0,2.1486,2.1267,2.1169,0.0,2.0876,2.0824,2.076,2.0655,1.8073,1.5834,1.5703,1.552,1.5166,1.4591,1.4866,1.4965,1.4591,1.4932,1.527,1.5495,1.5897,1.6343,1.6571,1.6998,1.7384,1.7688,1.7705,1.7861,1.8136,1.8431,1.8699,1.9021,2.0149,2.0929,2.1368,2.2179,2.2754,2.3027,2.3105,2.3135,2.3135,2.3135,2.3135,2.3135,2.3135,2.3135,2.3135,2.3135,2.3135,2.3174,2.3535,2.3984,2.4463,2.4824,2.5293,2.5752,2.582,2.6084,2.6465,2.6963,2.7373,2.7744,2.8164,2.8291,2.8291,2.8291,2.8291,2.8291,2.8291,2.8603,2.9033,2.9463,2.7633,2.592,2.6422,2.5424,2.4425,2.4425,2.3069,2.1964,2.1964,2.1727,2.1601,2.1839,2.1475,2.1229,2.1481,2.1229,2.1109,2.1109,2.1376,2.1456,2.1203,2.1677,2.1904,2.1717,2.1931,2.2064,2.2064,2.2064,2.181,2.1269,2.1209,2.1162,2.1109,2.1109,2.1136,2.1189,2.1189,2.1189,0.0,0.0,2.4382,0.0,2.3632,2.328,0.0,0.0,2.1374,0.0,1.9597,1.8415,1.7649,1.6671,1.5618,1.4815,1.4728,1.4736,1.4687,1.5002,1.518,1.5229,1.5823,1.6244,1.6294,1.6929,1.7359,1.7327,1.7327,1.7491,1.7853,1.7918,1.8507,1.9844,2.0363,2.1029,2.1791,2.2629,2.29,2.2598,2.2959,2.3135,2.3135,2.3135,2.3135,2.3135,2.3135,2.3135,2.3135,2.3135,2.3135,2.3144,2.3203,2.3711,2.4424,2.4482,2.5029,2.5791,2.6172,2.6338,2.6523,2.7324,2.7617,2.7744,2.8164,2.8291,2.8291,2.8291,2.8291,2.8291,2.8291,2.8603,2.9033,2.9463,2.9495,2.9633,3.0092,2.8883,2.7811,2.7811,2.647,2.5375,2.5375,2.417,2.3683,2.513,2.2937,2.1601,2.3084,2.1971,2.1109,2.1109,2.1376,2.1537,2.1496,2.1797,2.2078,2.2291,2.2338,2.2358,2.2358,2.2358,2.2205,2.1877,2.1623,2.137,2.1109,2.1109,2.1243,2.1496,2.1496,2.1496,2.107,2.2905,2.44,0.0,2.4543,2.463,2.3916,0.0,2.3566,2.2857,2.2323,2.1525,1.9738,1.8971,1.8222,1.7098,1.714,1.7025,1.6294,1.6547,1.6793,1.6793,1.7424,1.7906,1.7906,1.8634,1.9186,1.9186,1.9186,1.9188,1.9361,1.9598,1.9971,2.0649,2.0827,2.1301,2.1885,2.2012,2.2217,2.2519,2.2939,2.3135,2.3135,2.3135,2.3135,2.3135,2.3135,2.3135,2.3135,2.3135,2.3135,2.3164,2.3408,2.3877,2.4443,2.4687,2.5185,2.5801,2.624,2.6543,2.6836,2.7461,2.7822,2.8057,2.8232,2.8291,2.8291,2.8291,2.8291,2.8291,2.8291,2.8603,2.9033,2.9463,2.9893,3.0322,3.0791,2.953,2.817,2.7202,2.647,2.5976,2.5976,2.5375,2.5138,2.5855,2.4763,2.4155,2.4893,2.4278,2.3502,2.2828,2.388,2.3951,2.2051,2.312,2.3504,2.2418,2.2572,2.2665,2.2665,2.2665,2.2525,2.2231,2.1784,2.149,2.1356,2.1189,2.1176,2.1309,2.1476,2.1463,0.0,0.0,2.4037,2.4443,2.5356,2.6122,0.0,0.0,2.5966,0.0,2.5052,2.4485,2.2663,2.1556,2.0531,1.9339,1.9393,1.9314,1.8349,1.8451,1.8637,1.8486,1.9173,1.9608,1.9434,2.0127,2.0566,2.0566,2.0566,2.0566,2.0566,2.0879,2.1064,2.1064,2.1172,2.1338,2.1553,2.1455,2.1777,2.2519,2.2939,2.3135,2.3135,2.3135,2.3135,2.3135,2.3135,2.3135,2.3135,2.3135,2.3135,2.3184,2.3623,2.4043,2.4473,2.4912,2.5352,2.581,2.6357,2.6758,2.71,2.7646,2.8037,2.8291,2.8291,2.8291,2.8291,2.8291,2.8291,2.8291,2.8291,2.8603,2.9033,2.9463,2.9893,3.0322,3.0791,2.9903,2.8664,2.7443,2.7202,2.7202,2.7202,2.6832,2.6712,2.7202,2.6591,2.6098,2.6582,2.6302,2.574,2.4779,2.6119,2.6072,2.3522,2.454,2.4633,2.3089,2.2964,2.2859,2.2859,2.2859,2.2759,2.2539,2.2031,2.1704,2.155,2.1256,2.1149,2.1229,2.145,2.1476,0.0,2.2214,0.0,2.5005,2.6637,0.0,0.0,0.0,2.8027,2.7281,2.7114,2.7114,2.6982,2.4144,2.1542,2.0621,2.0515,2.0515,2.0429,2.0451,2.0303,1.9818,2.0229,2.035,1.9909,2.0293,2.0566,2.0566,2.0566,2.0566,2.0566,2.0586,2.0596,2.0596,2.1016,2.1045,2.0635,2.1445,2.207,2.2519,2.2939,2.3135,2.3135,2.3135,2.3135,2.3135,2.3135,2.3135,2.3135,2.3135,2.3135,2.3184,2.3623,2.4043,2.4473,2.4912,2.5352,2.5859,2.6689,2.6992,2.7158,2.7988,2.8271,2.8291,2.8291,2.8291,2.8291,2.8291,2.8291,2.8291,2.8291,2.8603,2.9033,2.9463,2.9893,3.0322,3.0791,3.0889,3.0772,3.0645,3.0645,3.0645,3.0645,2.9285,2.8792,3.0401,2.794,2.6591,2.8051,2.7278,2.6521,2.6413,2.6876,2.709,2.6837,2.5635,2.4922,2.4775,2.3628,2.2859,2.2859,2.2859,2.2853,2.2839,2.2532,2.2104,2.155,2.1256,2.1256,2.153,2.1543,2.1697,0.0,0.0,0.0,2.2758,2.4708,2.6486,2.7262,2.8333,2.8951,2.815,2.8408,2.8407,2.7491,2.6234,2.4801,2.3071,2.3065,2.2791,2.1291,2.1396,2.1587,2.1426,2.1809,2.204,2.1843,2.221,2.2188,2.1517,2.2113,2.1897,2.0634,2.1745,2.1897,2.0644,2.1306,2.1393,2.0644,2.1162,2.168,2.2119,2.2539,2.2881,2.3135,2.3135,2.3135,2.3135,2.3135,2.3135,2.3135,2.3135,2.3301,2.3603,2.4023,2.4453,2.4893,2.5332,2.5596,2.5859,2.6719,2.6836,2.6797,2.793,2.8115,2.7939,2.8213,2.8291,2.8291,2.8291,2.8291,2.8291,2.8291,2.8408,2.8691,2.9404,3.0117,3.0693,3.0859,3.0889,3.0889,3.0889,3.0889,3.0889,3.0889,3.0392,3.0265,3.0772,2.9903,2.9403,2.9903,2.9671,2.9092,2.8588,2.9659,2.9708,2.8002,2.7376,2.6534,2.5338,2.3732,2.2859,2.2859,2.2859,2.2859,2.2859,2.2572,2.2225,2.183,2.1724,2.163,2.1563,2.1937,2.2064,1.5758,0.0,0.0,0.0,0.0,2.519,2.665,2.8474,2.9794,2.9514,3.0023,3.0262,2.9259,2.8886,2.79,2.5487,2.5159,2.4722,2.3159,2.3053,2.3012,2.2914,2.3167,2.329,2.3104,2.3324,2.322,2.2553,2.3147,2.2936,2.168,2.2776,2.2936,2.1603,2.2188,2.2262,2.183,2.2292,2.2755,2.3207,2.3659,2.3944,2.4221,2.4221,2.4049,2.3714,2.4059,2.381,2.3135,2.3135,2.3398,2.3828,2.4248,2.4687,2.5127,2.5566,2.5742,2.584,2.6553,2.6621,2.6572,2.7715,2.7891,2.7744,2.8164,2.8291,2.8291,2.8291,2.8291,2.8291,2.8291,2.8398,2.8682,2.9404,3.0127,3.0703,3.0859,3.0889,3.0889,3.0889,3.0889,3.0889,3.0889,3.0889,3.0889,3.0889,3.0889,3.0947,3.1084,3.123,3.1204,3.0621,3.1731,3.1703,2.9904,2.8643,2.7457,2.6269,2.4132,2.2859,2.2859,2.2859,2.2859,2.2859,2.2672,2.2425,2.2131,2.2031,2.1891,2.171,2.2091,2.2225,0.0,0.0,0.0,0.0,0.0,0.0,2.5778,0.0,3.0608,3.1399,3.2129,3.261,3.2555,3.1992,3.0601,2.7874,2.6755,2.6233,2.6158,2.5459,2.4719,2.4333,2.4255,2.4085,2.3616,2.3588,2.3599,2.3526,2.3588,2.3588,2.3514,2.3514,2.3526,2.3537,2.3537,2.3772,2.434,2.4758,2.524,2.5824,2.6225,2.6461,2.6483,2.6483,2.5891,2.4872,2.6058,2.5221,2.3222,2.3135,2.3398,2.3828,2.4248,2.4687,2.5127,2.5566,2.5742,2.5801,2.624,2.6387,2.6523,2.7393,2.7666,2.7744,2.8164,2.8291,2.8291,2.8291,2.8291,2.8291,2.8291,2.8603,2.9023,2.9453,2.9883,3.0322,3.0771,3.0879,3.0889,3.0889,3.0889,3.0889,3.0889,3.0889,3.0889,3.0889,3.0889,3.1035,3.1445,3.1875,3.2305,3.2734,3.2793,3.2803,3.2812,2.9577,2.7514,2.7514,2.4549,2.2859,2.2859,2.2859,2.2859,2.2859,2.2859,2.2719,2.2432,2.2151,2.2004,2.1997,2.2004,2.2164,1.3404,0.0,0.0,0.0,0.0,0.0,2.3914,0.0,2.9364,3.0378,3.1933,3.283,3.1902,3.2028,3.187,3.0527,2.9676,2.8783,2.7789,2.7176,2.6868,2.6732,2.6244,2.5783,2.5697,2.5652,2.5358,2.4636,2.5288,2.5063,2.3599,2.3514,2.405,2.514,2.45,2.4374,2.4957,2.5104,2.5329,2.5813,2.5959,2.6206,2.6483,2.6483,2.6307,2.6058,2.6389,2.6141,2.5484,2.4628,2.4149,2.3828,2.4248,2.4687,2.5127,2.5566,2.5742,2.5801,2.624,2.6387,2.6523,2.7393,2.7666,2.7744,2.8164,2.8291,2.8291,2.8291,2.8291,2.8291,2.8291,2.8603,2.8945,2.9072,2.9668,3.0234,3.0361,3.0654,3.0889,3.0889,3.0889,3.0889,3.0889,3.0889,3.0889,3.0889,3.0889,3.0928,3.1055,3.1435,3.1865,3.2295,3.2617,3.292,3.3223,2.9974,2.8023,2.8023,2.4807,2.2859,2.2859,2.2859,2.2859,2.2859,2.2859,2.2819,2.2739,2.2659,2.2512,2.2305,2.2519,2.2665,0.0,0.0,0.0,0.0,0.0,0.0,2.1221,2.4477,2.7447,2.9012,3.1039,3.2337,3.158,3.1815,3.1881,3.1204,3.091,3.0393,2.9209,2.8592,2.8247,2.8247,2.7868,2.7417,2.704,2.6973,2.6633,2.5734,2.6164,2.6111,2.5146,2.5085,2.5624,2.6749,2.5946,2.5973,2.6718,2.6517,2.6777,2.751,2.7195,2.7372,2.7879,2.7879,2.7626,2.7197,2.7706,2.7383,2.6472,2.6284,2.5488,2.4504,2.4756,2.5239,2.5832,2.5543,2.5846,2.642,2.6222,2.6113,2.626,2.7119,2.7393,2.751,2.8105,2.8291,2.8291,2.8291,2.8291,2.8291,2.8291,2.8476,2.8701,2.8877,2.9307,2.9766,3.0117,3.041,3.0664,3.085,3.0889,3.0889,3.0889,3.0889,3.0889,3.0889,3.0889,3.0957,3.1133,3.1367,3.1748,3.2363,3.2646,3.2969,3.3389,3.0918,2.8952,2.8303,2.5517,2.3659,2.2866,2.2859,2.2859,2.2859,2.2859,2.2799,2.2679,2.2806,2.2772,2.2605,2.2779,2.2859,0.0,0.0,0.0,0.0,1.4551,0.0,1.8071,2.154,2.4919,2.721,2.958,3.1246,3.1262,3.1287,3.1106,3.0588,3.1016,3.1188,3.051,2.969,2.9156,2.9212,2.9162,2.8807,2.8106,2.8,2.7642,2.6815,2.6622,2.6791,2.7344,2.7369,2.762,2.8185,2.7657,2.7908,2.9013,2.8473,2.8737,2.9779,2.9277,2.9289,2.9792,2.9792,2.9275,2.8347,2.9365,2.8712,2.6976,2.7936,2.7215,2.5514,2.5567,2.6214,2.6904,2.5865,2.6357,2.74,2.6294,2.5859,2.5937,2.6699,2.6973,2.7168,2.7978,2.8223,2.8232,2.8281,2.8291,2.8291,2.8291,2.8291,2.8389,2.876,2.8926,2.9199,2.9961,3.0205,3.0391,3.081,3.0889,3.0889,3.0889,3.0889,3.0889,3.0889,3.0889,3.1025,3.1396,3.1484,3.1826,3.2637,3.2764,3.2969,3.3389,3.1826,3.0125,2.8303,2.6447,2.4723,2.2996,2.2859,2.2859,2.2859,2.2859,2.2732,2.2465,2.2699,2.2799,2.2766,2.2766,2.2766,0.0,0.0,0.0,1.0501,1.1903,0.0,1.5333,1.8859,2.2421,2.4573,2.7388,2.9534,2.9707,3.0297,3.0689,3.0513,3.0612,3.0839,3.1203,3.0584,3.0258,3.0731,3.0235,2.9979,3.0331,2.9879,2.9211,2.8368,2.7582,2.7369,2.7921,2.7946,2.8197,2.875,2.8235,2.8486,2.9616,2.9051,2.9114,2.9792,2.9679,2.9679,2.9792,2.9792,2.9702,2.9456,2.9702,2.9546,2.9209,2.9365,2.8191,2.6329,2.662,2.7128,2.7679,2.7897,2.7817,2.7589,2.7315,2.6814,2.6289,2.6455,2.6738,2.7109,2.7637,2.7783,2.7861,2.8193,2.8291,2.8291,2.8291,2.8291,2.831,2.8398,2.8935,2.9482,2.9658,3.0254,3.0781,3.0869,3.0889,3.0889,3.0889,3.0889,3.0889,3.0889,3.0889,3.0918,3.1006,3.1309,3.1719,3.2236,3.2598,3.2969,3.3389,3.1826,3.0125,2.8303,2.6447,2.4723,2.2996,2.2859,2.2859,2.2859,2.2859,2.2832,2.2772,2.2592,2.2385,2.2158,2.2158,2.2158,0.9281,0.9296,0.9327,0.9433,1.0297,0.0,0.0,1.5764,1.8715,2.1272,2.4117,2.6328,2.6913,2.8219,2.9207,2.9009,2.9796,3.0529,3.0914,3.0939,3.1013,3.1322,3.1264,3.1194,3.1098,3.0779,3.0275,2.9374,2.9466,2.9641,2.9932,2.9958,3.0222,3.0731,3.0249,3.0381,3.1193,3.0138,2.9928,3.0482,2.9707,2.9515,2.9792,2.9792,2.9792,2.9792,2.9792,2.9792,2.9792,2.9792,2.9131,2.8075,2.7731,2.8122,2.8838,2.8384,2.833,2.8402,2.7767,2.6906,2.6103,2.6318,2.6533,2.6787,2.7217,2.749,2.7754,2.8174,2.8291,2.8291,2.8291,2.8291,2.8291,2.8291,2.8779,2.9307,2.9521,3.0088,3.0615,3.084,3.0889,3.0889,3.0889,3.0889,3.0889,3.0889,3.0889,3.0889,3.0889,3.126,3.168,3.2119,3.2549,3.2969,3.3389,3.2629,3.1304,2.9605,2.8673,2.6956,2.4324,2.4188,2.3795,2.2859,2.2719,2.2565,2.2425,2.2131,2.2064,2.2205,2.2205,2.2124,0.9192,0.9286,0.9296,0.9341,0.9524,1.0031,0.0,0.0,0.0,1.8021,2.0537,2.2661,2.3742,2.5384,2.6659,2.6876,2.8295,2.9574,2.9933,3.0726,3.1319,3.1646,3.2243,3.2481,3.1849,3.1546,3.114,3.0639,3.1182,3.1709,3.1931,3.1944,3.2166,3.2579,3.2083,3.2055,3.2593,3.1334,3.0916,3.1449,3.0216,2.9757,3.0075,3.0075,3.0011,2.9792,2.9792,2.9792,2.9792,2.9792,2.9792,2.9702,2.8779,2.9027,2.9798,2.8939,2.903,2.9455,2.838,2.7125,2.6073,2.6241,2.6377,2.6572,2.6914,2.7373,2.7861,2.8193,2.8291,2.8291,2.8291,2.8291,2.8291,2.8291,2.8613,2.9014,2.9365,2.9844,3.0303,3.0684,3.083,3.0889,3.0889,3.0889,3.0889,3.0889,3.0889,3.0889,3.0889,3.126,3.168,3.2119,3.2549,3.2969,3.3389,3.3418,3.2629,3.0909,3.0771,2.9327,2.618,2.5644,2.4694,2.2779,2.2539,2.2271,2.1984,2.175,2.1817,2.2164,2.2164,2.2038,0.9493,0.9355,0.9404,0.9436,0.9841,1.0334,1.0689,0.0,1.4598,1.5523,0.0,1.9296,2.0807,0.0,0.0,2.4504,2.5639,2.6689,2.8111,2.9433,3.0732,3.205,3.293,3.3543,3.3843,3.2707,3.2141,3.2743,3.1509,3.1268,3.2441,3.2496,3.2524,3.2593,3.2083,3.2055,3.2593,3.1929,3.1929,3.2464,3.2253,3.1748,3.1044,3.1044,3.0558,2.9792,2.9792,2.9792,2.9792,2.9792,2.9792,2.9792,2.9624,2.9999,3.0518,3.0872,3.0724,3.0144,2.9432,2.8402,2.7231,2.617,2.6328,2.6953,2.7002,2.7578,2.8232,2.8281,2.8291,2.8291,2.8291,2.8291,2.8291,2.8291,2.8613,2.8926,2.8984,2.9629,3.0215,3.0264,3.0605,3.0889,3.0889,3.0889,3.0889,3.0889,3.0889,3.0889,3.0889,3.126,3.168,3.2119,3.2549,3.2969,3.3389,3.3418,3.2629,3.0909,3.0771,2.9986,2.7908,2.6306,2.4586,2.2472,2.2438,2.2271,2.1984,2.1951,2.1704,2.1256,2.1256,2.1243,1.0253,1.0187,1.0245,0.9736,0.9792,1.0056,1.0704,1.1665,1.2628,1.3163,0.0,0.0,0.0,0.0,0.0,0.0,2.3427,2.4926,2.6687,2.8024,2.9387,3.0837,3.2065,3.3078,3.3704,3.3942,3.3986,3.3947,3.3631,3.3723,3.4245,3.4274,3.4274,3.4274,3.408,3.4066,3.4259,3.3496,3.3194,3.338,3.289,3.2393,3.2033,3.2033,3.1829,3.1415,3.0833,3.062,3.0558,2.9998,2.9792,2.9792,2.9792,3.0131,3.067,3.1198,3.0952,3.0423,3.0411,2.9681,2.8402,2.721,2.6543,2.6318,2.6572,2.707,2.7598,2.7861,2.8105,2.8291,2.8291,2.8291,2.8291,2.8291,2.8613,2.8984,2.9248,2.9775,3.0273,3.0547,3.0762,3.0889,3.0889,3.0889,3.0889,3.0889,3.0889,3.0976,3.1221,3.1631,3.206,3.249,3.291,3.3232,3.3408,3.3418,3.3155,3.2355,3.1304,2.9995,2.8303,2.6439,2.4571,2.2425,2.2251,2.2024,2.1737,2.1563,2.1349,2.1116,2.1456,2.1436,1.2003,1.179,1.1725,1.1044,1.0723,1.0697,1.1283,1.1455,1.1496,1.1426,1.2599,0.0,0.0,0.0,0.0,0.0,0.0,2.268,2.4332,2.6127,2.7831,2.9563,3.1245,3.2608,3.3694,3.4588,3.5036,3.4786,3.4976,3.5245,3.5504,3.5504,3.5504,3.5504,3.5504,3.5504,3.5504,3.4773,3.4394,3.4394,3.3754,3.3255,3.2961,3.2961,3.282,3.2522,3.1888,3.1462,3.118,3.0482,2.9998,2.9792,2.9792,3.0043,3.0457,3.0984,3.1005,3.0736,3.0918,3.0099,2.868,2.7494,2.6567,2.5977,2.6299,2.6768,2.7256,2.7578,2.7969,2.8291,2.8291,2.8291,2.8291,2.8291,2.8525,2.8867,2.9297,2.9726,3.0156,3.0615,3.0801,3.0889,3.0889,3.0889,3.0889,3.0889,3.0889,3.1045,3.1465,3.1894,3.2324,3.2754,3.3174,3.3418,3.3418,3.3418,3.3418,3.3418,3.2228,3.0522,2.8303,2.6972,2.5056,2.2305,2.2171,2.1884,2.143,2.1296,2.1189,2.1122,2.155,2.1516,0.0,0.0,1.4152,1.3985,1.3431,1.2883,1.2636,1.2444,1.186,1.0634,1.0995,1.1477,0.0,0.0,0.0,0.0,0.0,0.0,0.0,2.3424,2.6388,2.8602,3.0715,3.2643,3.4304,3.4233,3.4451,3.5429,3.4555,3.448,3.5474,3.5504,3.5504,3.5504,3.5504,3.5504,3.5504,3.5439,3.5424,3.5439,3.5439,3.492,3.3959,3.3959,3.3449,3.2593,3.2593,3.2033,3.118,3.118,3.062,2.9792,2.9792,2.9804,2.988,3.0432,3.0972,3.1322,3.0639,2.9184,2.7494,2.6197,2.6025,2.6367,2.6387,2.6973,2.7646,2.7666,2.7969,2.8291,2.8291,2.8291,2.8291,2.8291,2.8301,2.8428,2.8848,2.9277,2.9717,3.0137,3.0586,3.0889,3.0889,3.0889,3.0889,3.0889,3.0889,3.1045,3.1465,3.1894,3.2324,3.2754,3.3174,3.3418,3.3418,3.3418,3.3418,3.3418,3.3292,3.1845,2.8303,2.8172,2.6137,2.2143,2.2265,2.1984,2.1122,2.1403,2.139,2.1109,2.1129,2.1129,0.0,0.0,1.5204,1.4624,1.3796,1.32,1.3297,1.3188,1.2698,1.1519,1.175,1.2039,1.1456,0.0,0.0,0.0,0.0,0.0,0.0,2.3063,2.5691,2.6953,3.0024,3.2434,3.3535,3.3539,3.4002,3.5234,3.417,3.4082,3.5409,3.5504,3.5504,3.5504,3.5504,3.5504,3.5504,3.5055,3.5055,3.5504,3.504,3.4912,3.4986,3.4986,3.4839,3.4476,3.3822,3.2961,3.2105,3.1462,3.062,2.9792,2.9792,2.9792,2.9854,3.0407,3.0947,3.1442,3.2005,3.0725,2.868,2.8308,2.7133,2.5957,2.5957,2.6357,2.6885,2.7158,2.7549,2.7939,2.8223,2.8291,2.8291,2.8291,2.8291,2.8486,2.9199,2.9463,2.9785,3.0518,3.0781,3.0889,3.0889,3.0889,3.0889,3.0889,3.0889,3.1045,3.1465,3.1894,3.2324,3.2754,3.3174,3.3418,3.3418,3.3418,3.3418,3.3418,3.3418,3.2365,2.9995,2.962,2.8331,2.5773,2.4287,2.3841,2.475,2.242,2.183,2.2709,2.1601,2.1109,1.7075,1.6349,0.0,1.5188,1.4285,0.0,1.3698,1.349,1.3104,1.2005,1.2264,1.2295,1.1306,0.0,0.0,0.0,0.0,0.0,0.0,2.22,2.4307,2.5977,2.9121,3.1476,3.2283,3.2639,3.3225,3.3912,3.3619,3.379,3.4632,3.5225,3.5504,3.5504,3.5504,3.5385,3.5145,3.4696,3.4577,3.4786,3.4577,3.4711,3.5145,3.5385,3.5504,3.5424,3.4461,3.3449,3.2522,3.1609,3.062,2.9792,2.9792,2.9792,2.9854,3.0407,3.1072,3.173,3.229,3.1146,2.9315,2.8866,2.7389,2.5742,2.5742,2.6045,2.6445,2.6719,2.7217,2.7725,2.7998,2.8174,2.8291,2.8291,2.8408,2.8711,2.9414,2.9687,3.001,3.0752,3.0889,3.0889,3.0889,3.0889,3.0889,3.0889,3.0889,3.1045,3.1465,3.1758,3.2158,3.2734,3.3037,3.3262,3.3408,3.3418,3.3418,3.3418,3.3418,3.2629,3.09,3.0528,2.9564,2.7756,2.6271,2.5921,2.6546,2.3702,2.2806,2.3574,2.1853,2.1109]},{"header":{"parameterUnit":"m.s-1","parameterCategory":1,"la1":30.6,"la2":29.2853,"lo1":-89.7004,"lo2":-87.6739,"dy":0.0162,"dx":0.0183,"nx":112,"ny":82,"refTime":"2023-03-10T06:00:00:Z","depth":0,"parameterNumber":3,"parameterNumberName":"V-component_of_WINDS"},"data":[0.0,0.0,0.0,0.0,0.0,0.0,0.0,0.0,0.0,0.0,0.0,0.0,0.0,0.0,0.0,0.0,0.0,0.0,0.0,0.0,0.0,0.0,0.0,0.0,0.0,0.0,0.0,0.0,0.0,0.0,0.0,0.0,0.0,0.0,0.0,0.0,0.0,0.0,0.0,0.0,0.0,0.0,0.0,0.0,0.0,0.0,0.0,0.0,0.0,0.0,0.0,0.0,0.0,0.0,0.0,0.0,0.0,0.0,0.0,0.0,0.0,0.0,0.0,0.0,0.0,0.0,0.0,0.0,0.0,0.0,0.0,0.0,0.0,0.0,0.0,0.0,0.0,0.0,0.0,0.0,0.0,0.0,0.0,0.0,0.0,0.0,0.0,0.0,0.0,0.0,-2.7819,-3.1146,-2.8985,-2.7237,-2.7265,-3.1944,-3.3893,-3.1645,0.0,0.0,0.0,0.0,0.0,0.0,0.0,0.0,0.0,0.0,0.0,0.0,0.0,0.0,0.0,0.0,0.0,0.0,0.0,0.0,0.0,0.0,0.0,0.0,0.0,0.0,0.0,0.0,0.0,0.0,0.0,0.0,0.0,0.0,0.0,0.0,0.0,0.0,0.0,0.0,0.0,0.0,0.0,0.0,0.0,0.0,0.0,0.0,0.0,0.0,0.0,0.0,0.0,0.0,0.0,0.0,0.0,0.0,0.0,0.0,0.0,0.0,0.0,0.0,0.0,0.0,0.0,0.0,0.0,0.0,0.0,0.0,0.0,0.0,0.0,0.0,0.0,0.0,0.0,0.0,0.0,0.0,0.0,0.0,0.0,0.0,0.0,0.0,0.0,0.0,0.0,0.0,0.0,0.0,0.0,0.0,0.0,0.0,0.0,0.0,0.0,0.0,0.0,0.0,-2.7747,-3.1142,-3.1016,-3.0751,-3.0712,-3.1555,-3.191,-3.1504,0.0,0.0,0.0,0.0,0.0,0.0,0.0,0.0,0.0,0.0,0.0,0.0,0.0,0.0,0.0,0.0,0.0,0.0,0.0,0.0,0.0,0.0,0.0,0.0,0.0,0.0,0.0,0.0,0.0,0.0,0.0,0.0,0.0,0.0,0.0,0.0,0.0,0.0,0.0,0.0,0.0,0.0,0.0,0.0,0.0,0.0,0.0,0.0,0.0,0.0,0.0,0.0,0.0,0.0,0.0,0.0,0.0,0.0,0.0,0.0,0.0,0.0,0.0,0.0,0.0,0.0,0.0,0.0,0.0,0.0,0.0,0.0,0.0,0.0,0.0,0.0,0.0,0.0,0.0,0.0,0.0,0.0,0.0,0.0,0.0,0.0,0.0,0.0,0.0,0.0,0.0,0.0,0.0,0.0,0.0,0.0,0.0,0.0,0.0,0.0,0.0,0.0,0.0,-2.7102,-2.7052,-2.8617,-2.8787,-2.9552,-3.1368,-3.1499,-3.213,-3.3646,-3.3689,0.0,0.0,0.0,0.0,0.0,0.0,0.0,0.0,0.0,0.0,0.0,0.0,0.0,0.0,0.0,0.0,0.0,0.0,0.0,0.0,0.0,0.0,0.0,0.0,0.0,0.0,0.0,0.0,0.0,0.0,0.0,0.0,0.0,0.0,0.0,0.0,0.0,0.0,0.0,0.0,0.0,0.0,0.0,0.0,0.0,0.0,0.0,0.0,0.0,0.0,0.0,0.0,0.0,0.0,0.0,0.0,0.0,0.0,0.0,0.0,0.0,0.0,0.0,0.0,0.0,0.0,0.0,0.0,0.0,0.0,0.0,0.0,0.0,0.0,0.0,0.0,0.0,0.0,0.0,0.0,0.0,0.0,0.0,0.0,0.0,0.0,0.0,0.0,0.0,0.0,0.0,0.0,0.0,0.0,0.0,0.0,0.0,0.0,0.0,0.0,0.0,0.0,-2.601,-2.5691,-2.5728,-2.6189,-2.7872,-3.122,-3.15,-3.2685,-3.5412,-3.558,0.0,0.0,0.0,0.0,0.0,0.0,0.0,0.0,0.0,0.0,0.0,0.0,0.0,0.0,0.0,0.0,0.0,0.0,0.0,0.0,0.0,0.0,0.0,0.0,0.0,0.0,0.0,0.0,0.0,0.0,0.0,0.0,0.0,0.0,0.0,0.0,0.0,0.0,0.0,0.0,0.0,0.0,0.0,0.0,0.0,0.0,0.0,0.0,0.0,0.0,0.0,0.0,0.0,0.0,0.0,0.0,0.0,0.0,0.0,0.0,0.0,0.0,0.0,0.0,0.0,0.0,0.0,0.0,0.0,0.0,0.0,0.0,0.0,0.0,0.0,0.0,0.0,0.0,0.0,0.0,0.0,0.0,0.0,0.0,0.0,0.0,0.0,0.0,0.0,0.0,0.0,0.0,0.0,0.0,0.0,0.0,0.0,0.0,0.0,0.0,0.0,0.0,-2.4655,-2.332,-2.3331,-2.5227,-2.7865,-3.1196,-3.1489,-3.2679,-3.5447,-3.5589,0.0,0.0,0.0,0.0,0.0,0.0,0.0,0.0,0.0,0.0,0.0,0.0,0.0,0.0,0.0,0.0,0.0,0.0,0.0,0.0,0.0,0.0,0.0,0.0,0.0,0.0,0.0,0.0,0.0,0.0,0.0,0.0,0.0,0.0,0.0,0.0,0.0,0.0,0.0,0.0,0.0,0.0,0.0,0.0,0.0,0.0,0.0,0.0,0.0,0.0,0.0,0.0,0.0,0.0,0.0,0.0,0.0,0.0,0.0,0.0,0.0,0.0,0.0,0.0,0.0,0.0,0.0,0.0,0.0,0.0,0.0,0.0,0.0,0.0,0.0,0.0,0.0,0.0,0.0,0.0,0.0,0.0,0.0,0.0,0.0,0.0,0.0,0.0,0.0,0.0,0.0,0.0,0.0,0.0,0.0,0.0,0.0,0.0,0.0,0.0,0.0,0.0,-2.3621,-2.3075,-2.3115,-2.5558,-2.8353,-3.1258,-3.3077,-3.4496,-3.5559,0.0,0.0,0.0,0.0,0.0,0.0,0.0,0.0,0.0,0.0,0.0,0.0,0.0,0.0,0.0,0.0,0.0,0.0,0.0,0.0,0.0,0.0,0.0,0.0,0.0,0.0,0.0,0.0,0.0,0.0,0.0,0.0,0.0,0.0,0.0,0.0,0.0,0.0,0.0,0.0,0.0,0.0,0.0,0.0,0.0,0.0,0.0,0.0,0.0,0.0,0.0,0.0,0.0,0.0,0.0,0.0,0.0,0.0,0.0,0.0,0.0,0.0,0.0,0.0,0.0,0.0,0.0,0.0,0.0,0.0,0.0,0.0,0.0,0.0,0.0,0.0,0.0,0.0,0.0,0.0,0.0,0.0,0.0,0.0,0.0,0.0,0.0,0.0,0.0,0.0,0.0,0.0,0.0,0.0,0.0,0.0,0.0,0.0,0.0,0.0,0.0,0.0,-2.5114,-2.4527,-2.4526,-2.4552,-2.6353,-2.8302,-3.0122,-3.3544,-3.5625,-3.5599,0.0,0.0,0.0,0.0,0.0,0.0,0.0,0.0,0.0,0.0,0.0,0.0,0.0,0.0,0.0,0.0,0.0,0.0,0.0,0.0,0.0,0.0,0.0,0.0,0.0,0.0,0.0,0.0,0.0,0.0,0.0,0.0,0.0,0.0,0.0,0.0,0.0,0.0,0.0,0.0,0.0,0.0,0.0,0.0,0.0,0.0,0.0,0.0,0.0,0.0,0.0,0.0,0.0,0.0,0.0,0.0,0.0,0.0,0.0,0.0,0.0,0.0,0.0,0.0,0.0,0.0,0.0,0.0,0.0,0.0,0.0,0.0,0.0,0.0,0.0,0.0,0.0,0.0,0.0,0.0,0.0,0.0,0.0,0.0,0.0,0.0,0.0,0.0,0.0,0.0,0.0,0.0,0.0,0.0,0.0,0.0,0.0,0.0,0.0,0.0,0.0,0.0,-2.7968,-2.7598,-2.7625,-2.7603,-2.7594,-2.7599,-2.7636,-3.2541,-3.5585,0.0,0.0,0.0,0.0,0.0,0.0,0.0,0.0,0.0,0.0,0.0,0.0,0.0,0.0,0.0,0.0,0.0,0.0,0.0,0.0,0.0,0.0,0.0,0.0,0.0,0.0,0.0,0.0,0.0,0.0,0.0,0.0,0.0,0.0,0.0,0.0,0.0,0.0,0.0,0.0,0.0,0.0,0.0,0.0,0.0,0.0,0.0,0.0,0.0,0.0,0.0,0.0,0.0,0.0,0.0,0.0,0.0,0.0,0.0,0.0,0.0,0.0,0.0,0.0,0.0,0.0,0.0,0.0,0.0,0.0,0.0,0.0,0.0,0.0,0.0,0.0,0.0,0.0,0.0,0.0,0.0,0.0,0.0,0.0,0.0,0.0,0.0,0.0,0.0,0.0,0.0,0.0,0.0,0.0,0.0,0.0,0.0,0.0,0.0,0.0,0.0,0.0,0.0,-3.0473,-2.8762,-2.7587,-2.7579,-2.7588,-2.8273,-2.9984,-3.3472,-3.56,-3.56,0.0,0.0,0.0,0.0,0.0,0.0,0.0,0.0,0.0,0.0,0.0,0.0,0.0,0.0,0.0,0.0,0.0,0.0,0.0,0.0,0.0,0.0,0.0,0.0,0.0,0.0,0.0,0.0,0.0,0.0,0.0,0.0,0.0,0.0,0.0,0.0,0.0,0.0,0.0,0.0,0.0,0.0,0.0,0.0,0.0,0.0,0.0,0.0,0.0,0.0,0.0,0.0,0.0,0.0,0.0,0.0,0.0,0.0,0.0,0.0,0.0,0.0,0.0,0.0,0.0,0.0,0.0,0.0,0.0,0.0,0.0,0.0,0.0,0.0,0.0,0.0,0.0,0.0,0.0,0.0,0.0,0.0,0.0,0.0,0.0,0.0,0.0,0.0,0.0,0.0,0.0,0.0,0.0,0.0,0.0,0.0,0.0,0.0,0.0,0.0,0.0,0.0,-3.0109,-2.8576,-2.7618,-2.7578,-2.8448,-2.9633,-3.109,-3.3902,-3.5924,-3.6753,0.0,0.0,0.0,0.0,0.0,0.0,0.0,0.0,0.0,0.0,0.0,0.0,0.0,0.0,0.0,0.0,0.0,0.0,0.0,0.0,0.0,0.0,0.0,0.0,0.0,0.0,0.0,0.0,0.0,0.0,0.0,0.0,0.0,0.0,0.0,0.0,0.0,0.0,0.0,0.0,0.0,0.0,0.0,0.0,0.0,0.0,0.0,0.0,0.0,0.0,0.0,0.0,0.0,0.0,0.0,0.0,0.0,0.0,0.0,0.0,0.0,0.0,0.0,0.0,0.0,0.0,0.0,0.0,0.0,0.0,0.0,0.0,0.0,0.0,0.0,0.0,0.0,0.0,0.0,0.0,0.0,0.0,0.0,0.0,0.0,0.0,0.0,0.0,0.0,0.0,0.0,0.0,0.0,0.0,0.0,0.0,0.0,0.0,0.0,0.0,0.0,0.0,-2.7944,-2.7801,-2.7931,-2.7936,-3.0119,-3.1702,-3.1884,-3.4366,-3.6666,-3.8582,0.0,0.0,0.0,0.0,0.0,0.0,0.0,0.0,0.0,0.0,0.0,0.0,0.0,0.0,0.0,0.0,0.0,0.0,0.0,0.0,0.0,0.0,0.0,0.0,0.0,0.0,0.0,0.0,0.0,0.0,0.0,0.0,0.0,0.0,0.0,0.0,0.0,0.0,0.0,0.0,0.0,0.0,0.0,0.0,0.0,0.0,0.0,0.0,0.0,0.0,0.0,0.0,0.0,0.0,0.0,0.0,0.0,0.0,0.0,0.0,-2.9438,-2.9517,0.0,0.0,0.0,0.0,0.0,0.0,0.0,0.0,0.0,0.0,0.0,0.0,0.0,0.0,0.0,0.0,0.0,0.0,0.0,0.0,0.0,0.0,0.0,0.0,0.0,0.0,0.0,0.0,0.0,0.0,0.0,0.0,0.0,0.0,0.0,0.0,0.0,0.0,0.0,0.0,-2.8233,-2.9268,-3.0445,-3.0436,-3.2982,-3.5332,-3.6958,-3.7667,-3.8241,-3.8678,-3.6924,0.0,0.0,0.0,0.0,0.0,0.0,0.0,0.0,0.0,0.0,0.0,0.0,0.0,0.0,0.0,0.0,0.0,0.0,0.0,0.0,0.0,0.0,0.0,0.0,0.0,0.0,0.0,0.0,0.0,0.0,0.0,0.0,0.0,0.0,0.0,0.0,0.0,0.0,0.0,0.0,0.0,0.0,0.0,0.0,0.0,0.0,0.0,0.0,0.0,0.0,0.0,0.0,0.0,0.0,0.0,0.0,0.0,0.0,0.0,-3.2391,-3.2126,0.0,0.0,0.0,0.0,0.0,0.0,0.0,0.0,0.0,0.0,0.0,0.0,0.0,0.0,0.0,0.0,0.0,0.0,0.0,0.0,0.0,0.0,0.0,0.0,0.0,0.0,0.0,0.0,0.0,0.0,0.0,0.0,0.0,0.0,0.0,0.0,0.0,0.0,0.0,0.0,-2.9876,-3.253,-3.4789,-3.4811,-3.6194,-3.7521,-3.8597,-3.8681,-3.872,-3.8711,-3.7637,0.0,0.0,0.0,0.0,0.0,0.0,0.0,0.0,0.0,0.0,0.0,0.0,0.0,0.0,0.0,0.0,0.0,0.0,0.0,0.0,0.0,0.0,0.0,0.0,0.0,0.0,0.0,0.0,0.0,0.0,0.0,0.0,0.0,0.0,0.0,0.0,0.0,0.0,0.0,0.0,0.0,0.0,0.0,0.0,0.0,0.0,0.0,0.0,0.0,0.0,0.0,0.0,0.0,-3.2956,-3.3931,-3.5983,-3.6933,-3.7964,-3.8758,-3.6417,-3.5525,-3.5666,-3.5066,0.0,0.0,0.0,0.0,0.0,0.0,0.0,0.0,0.0,0.0,0.0,0.0,0.0,0.0,0.0,0.0,0.0,0.0,0.0,0.0,0.0,0.0,-3.8743,-3.9667,-4.1362,-4.2337,-4.0579,0.0,0.0,0.0,0.0,0.0,0.0,0.0,0.0,0.0,0.0,0.0,-3.2627,-3.6212,-3.9237,-3.9834,-3.9365,-3.9006,-3.9014,-3.9577,-3.9901,-3.9894,-4.0839,-4.0928,0.0,0.0,0.0,0.0,0.0,0.0,0.0,0.0,0.0,0.0,0.0,0.0,0.0,0.0,0.0,0.0,0.0,0.0,0.0,0.0,0.0,0.0,0.0,0.0,0.0,0.0,0.0,0.0,0.0,0.0,0.0,0.0,-2.9173,-2.9402,0.0,0.0,0.0,0.0,0.0,0.0,0.0,0.0,0.0,0.0,0.0,0.0,0.0,-3.1287,-3.1225,-3.1925,-3.3108,-3.4627,-3.5849,-3.629,-3.6185,-3.9436,-4.2248,-4.4449,-4.3118,0.0,-4.0047,-3.8596,0.0,0.0,0.0,0.0,0.0,0.0,0.0,0.0,0.0,0.0,0.0,0.0,0.0,0.0,0.0,0.0,0.0,0.0,0.0,0.0,0.0,0.0,-3.9205,-4.0325,-4.1111,-4.1798,-4.2488,-4.2585,-4.2938,-4.4399,-4.241,-4.044,0.0,0.0,0.0,0.0,0.0,0.0,-3.6832,-3.8665,-4.1413,-4.4361,-4.2033,-4.0252,-4.0271,-4.298,-4.4691,-4.4704,-4.4829,-4.4858,-4.4715,-4.51,0.0,0.0,0.0,0.0,0.0,0.0,0.0,0.0,0.0,0.0,0.0,0.0,0.0,0.0,0.0,0.0,0.0,0.0,0.0,0.0,0.0,0.0,0.0,0.0,0.0,0.0,0.0,0.0,0.0,-2.7286,-2.8187,-2.7723,-2.7405,-2.7284,0.0,0.0,0.0,0.0,0.0,0.0,0.0,0.0,0.0,-3.0847,-3.3011,-3.4363,-3.4725,-3.55,-3.7022,-3.9231,-3.8912,-3.924,-4.0189,-4.2039,-4.3507,-4.4602,-4.4764,-4.4364,-4.3447,-4.1586,-4.0753,-4.0521,0.0,0.0,0.0,0.0,-3.8541,-3.7805,-3.9064,-3.9384,-3.9352,-4.0096,0.0,0.0,0.0,0.0,0.0,0.0,0.0,-4.0596,-4.0499,-4.0779,-4.1361,-4.2449,-4.3254,-4.3884,-4.4395,-4.4882,-4.5107,-4.4708,-4.3444,-4.2333,-4.2112,-4.1639,0.0,0.0,0.0,-4.1518,-4.0736,-4.2238,-4.3938,-4.5436,-4.4267,-4.3367,-4.3367,-4.4746,-4.5591,-4.5611,-4.5591,-4.5609,-4.5611,-4.5589,-4.5598,0.0,0.0,0.0,0.0,0.0,0.0,0.0,0.0,0.0,0.0,0.0,0.0,0.0,0.0,0.0,0.0,0.0,0.0,0.0,0.0,0.0,0.0,0.0,0.0,0.0,0.0,0.0,0.0,-2.6812,-2.7605,-2.6762,-2.7947,-2.8623,0.0,0.0,0.0,0.0,0.0,0.0,-2.9614,-3.1166,-3.2434,-3.3279,-3.5667,-3.7327,-3.8189,-3.8554,-4.0025,-4.2473,-4.1106,-4.1424,-4.3215,-4.3836,-4.4077,-4.4095,-4.5168,-4.5643,-4.5528,-4.3752,-4.2945,-4.2778,-4.2487,-4.2177,-4.1927,-4.2242,-4.1741,-4.1208,-4.3008,-4.3314,-4.2883,-4.3111,-4.3571,-4.3897,-4.3097,0.0,0.0,0.0,0.0,-4.2824,-4.2871,-4.333,-4.402,-4.5031,-4.5605,-4.599,-4.6201,-4.6586,-4.6451,-4.4968,-4.4489,-4.4245,-4.3944,-4.3235,0.0,-4.2392,-4.231,-4.2569,-4.3349,-4.471,-4.5592,-4.5601,-4.5601,-4.5601,-4.5601,-4.5601,-4.5584,-4.5586,-4.5586,-4.5586,-4.5586,-4.5586,-4.5607,-4.5591,0.0,0.0,0.0,0.0,0.0,0.0,0.0,0.0,0.0,0.0,0.0,0.0,0.0,0.0,0.0,0.0,0.0,0.0,0.0,0.0,0.0,0.0,0.0,0.0,0.0,0.0,0.0,0.0,0.0,-2.8425,-2.976,0.0,0.0,0.0,0.0,-3.0954,-3.2046,-3.2735,-3.277,-3.4633,-3.6116,-3.6988,-3.8597,-3.9973,-4.1176,-4.0402,-4.0756,-4.2212,-4.1671,-4.1949,-4.2956,-4.4135,-4.4658,-4.4716,-4.5468,-4.5796,-4.5719,-4.4662,-4.4203,-4.4109,-4.334,-4.2889,-4.2679,-4.2944,-4.2887,-4.2833,-4.3955,-4.4328,-4.4418,-4.5263,-4.5552,-4.5568,-4.5517,-4.5533,0.0,0.0,-4.55,-4.569,-4.6427,-4.6658,-4.6891,-4.7702,-4.7355,-4.7048,-4.7817,-4.7413,-4.6874,-4.6778,-4.6086,-4.5509,-4.549,0.0,-4.3069,-4.3052,-4.3686,-4.409,-4.3915,-4.4876,-4.5605,-4.5603,-4.5603,-4.5586,-4.5586,-4.5586,-4.5586,-4.5586,-4.5586,-4.5586,-4.5586,-4.5586,-4.5611,-4.5598,-4.5532,0.0,0.0,0.0,0.0,0.0,0.0,0.0,0.0,0.0,0.0,0.0,0.0,0.0,0.0,0.0,0.0,0.0,0.0,0.0,0.0,0.0,0.0,0.0,0.0,0.0,0.0,0.0,0.0,-2.9351,-3.126,0.0,-3.3045,-3.3534,-3.3898,-3.4031,-3.5132,-3.5675,-3.5261,-3.6996,-3.8361,-3.9205,-4.0272,-4.1593,-4.3196,-4.2003,-4.2195,-4.3786,-4.2506,-4.2047,-4.2425,-4.3976,-4.4389,-4.3934,-4.5281,-4.5858,-4.5834,-4.5488,-4.5315,-4.5257,-4.5007,-4.482,-4.4707,-4.4799,-4.4741,-4.4744,-4.5682,-4.6025,-4.6063,-4.6371,-4.61,-4.5635,-4.569,-4.5706,-4.5822,-4.6378,-4.6516,-4.6673,-4.7523,-4.7314,-4.7104,-4.7913,-4.749,-4.699,-4.7278,-4.7509,-4.7528,-4.7009,-4.7067,-4.7048,-4.6528,-4.5951,-4.5355,-4.4778,-4.4951,-4.5105,-4.5009,-4.5355,-4.5586,-4.5586,-4.5586,-4.5586,-4.5586,-4.5586,-4.5586,-4.5586,-4.5586,-4.5586,-4.5586,-4.5189,-4.5169,-4.5592,-4.5593,-4.4327,0.0,0.0,0.0,0.0,0.0,0.0,0.0,0.0,0.0,0.0,0.0,0.0,0.0,0.0,0.0,0.0,0.0,0.0,0.0,0.0,0.0,0.0,0.0,0.0,0.0,-2.9185,-3.0917,-3.0968,-3.3233,-3.5048,-3.565,-3.673,-3.7369,-3.727,-3.8167,-3.843,-3.7814,-3.9118,-4.0169,-4.0728,-4.1945,-4.3001,-4.3905,-4.3307,-4.3428,-4.4314,-4.3163,-4.278,-4.3122,-4.4278,-4.4655,-4.4445,-4.5493,-4.5968,-4.5969,-4.5969,-4.595,-4.5909,-4.5901,-4.5868,-4.5834,-4.5828,-4.5776,-4.5834,-4.6661,-4.6913,-4.6913,-4.6913,-4.6317,-4.5622,-4.5657,-4.5888,-4.6254,-4.681,-4.7159,-4.7488,-4.8026,-4.7951,-4.7798,-4.8048,-4.7702,-4.7298,-4.7298,-4.7509,-4.7702,-4.774,-4.7952,-4.7932,-4.7413,-4.7086,-4.6797,-4.649,-4.5951,-4.5701,-4.599,-4.5778,-4.5586,-4.5586,-4.5586,-4.5586,-4.5586,-4.5586,-4.5586,-4.5586,-4.5456,-4.5323,-4.5266,-4.5048,-4.5048,-4.5266,-4.5475,-4.5141,-4.4195,0.0,0.0,0.0,0.0,0.0,0.0,0.0,0.0,0.0,0.0,0.0,0.0,0.0,0.0,0.0,0.0,0.0,0.0,0.0,0.0,0.0,0.0,0.0,-2.8961,-3.1072,-3.2884,-3.3399,-3.5762,-3.7701,-3.8544,-4.0165,-4.1055,-4.0738,-4.1048,-4.1014,-4.0406,-4.1098,-4.1559,-4.1639,-4.3601,-4.4256,-4.3494,-4.4261,-4.4314,-4.364,-4.362,-4.4083,-4.4961,-4.498,-4.5469,-4.625,-4.6152,-4.6118,-4.6116,-4.6102,-4.6103,-4.6097,-4.5966,-4.5907,-4.59,-4.5916,-4.589,-4.6005,-4.6735,-4.6912,-4.6874,-4.6874,-4.6297,-4.5586,-4.5586,-4.624,-4.6951,-4.6913,-4.7567,-4.8241,-4.8144,-4.8721,-4.9125,-4.8298,-4.8086,-4.8067,-4.8067,-4.7471,-4.7413,-4.9009,-4.8682,-4.8125,-4.8105,-4.749,-4.7221,-4.7932,-4.6663,0.0,-4.6759,-4.6124,-4.5605,-4.5624,-4.5624,-4.5624,-4.5624,-4.5624,-4.5624,-4.5586,-4.5168,-4.4829,-4.4658,-4.523,-4.5268,-4.4636,-4.5249,-4.5593,-4.559,0.0,0.0,0.0,0.0,0.0,0.0,0.0,0.0,0.0,0.0,0.0,0.0,0.0,0.0,0.0,0.0,0.0,0.0,0.0,0.0,0.0,-3.1887,-3.3337,-3.1698,-3.3852,-3.5989,-3.7036,-3.9128,-4.0762,-4.1459,-4.2522,-4.3158,-4.3212,-4.3284,-4.2818,-4.1684,-4.1812,-4.2218,-4.2883,-4.2934,-4.3697,-4.5199,-4.4339,-4.407,-4.4389,-4.3761,-4.3649,-4.4004,-4.459,-4.5039,-4.5391,-4.5996,-4.6243,-4.624,-4.6259,-4.6238,-4.6246,-4.6196,-4.6139,-4.6053,-4.6046,-4.5983,-4.5941,-4.6124,-4.6161,-4.6105,-4.6161,-4.5893,-4.5605,-4.5719,-4.593,-4.624,-4.6817,-4.7239,-4.7642,-4.8239,-4.8029,-4.7759,-4.8145,-4.774,-4.724,-4.724,-4.7509,-4.774,-4.7605,-4.8375,-4.8836,-4.8221,-4.8432,-4.8163,-4.6528,-4.6432,-4.6394,-4.6009,-4.574,-4.5836,-4.649,-4.6547,-4.6547,-4.6547,-4.6547,-4.6278,-4.5624,-4.5475,-4.538,-4.5342,-4.526,-4.5154,-4.4982,-4.5385,-4.5602,0.0,0.0,0.0,0.0,0.0,0.0,0.0,0.0,0.0,0.0,0.0,0.0,0.0,0.0,0.0,0.0,0.0,0.0,0.0,0.0,0.0,0.0,-3.4945,-3.6818,-3.6465,-3.7878,-3.929,-4.029,-4.1873,-4.3158,-4.3763,-4.4373,-4.4805,-4.4902,-4.4231,-4.3635,-4.3256,-4.2576,-4.2577,-4.3459,-4.3392,-4.3821,-4.4848,-4.466,-4.4608,-4.4737,-4.4601,-4.4597,-4.4747,-4.5224,-4.5469,-4.5566,-4.6074,-4.6308,-4.6308,-4.6305,-4.6289,-4.6299,0.0,0.0,0.0,0.0,-4.6094,-4.5986,-4.5987,-4.5922,-4.5844,-4.5885,-4.5803,-4.5692,-4.5791,-4.5815,-4.593,-4.6355,-4.6565,-4.6762,-4.7229,-4.7155,-4.699,-4.7144,-4.7028,-4.6797,-4.6432,-4.7009,-4.7567,-4.7432,-4.849,0.0,-4.874,-4.8759,-4.8471,-4.7355,-4.6701,-4.6432,-4.6624,-4.6355,-4.6471,-4.7317,-4.7413,-4.7413,-4.7413,-4.7086,0.0,0.0,0.0,-4.54,-4.54,-4.5201,0.0,0.0,0.0,-4.5611,-4.5586,-4.5337,0.0,0.0,-4.4986,-4.5418,0.0,0.0,0.0,0.0,0.0,0.0,0.0,0.0,0.0,0.0,0.0,0.0,0.0,0.0,0.0,0.0,-3.8056,-4.0293,-4.2068,-4.2447,-4.2701,-4.3129,-4.4131,-4.4942,-4.5426,-4.5738,-4.592,-4.5932,-4.4491,-4.3938,-4.477,-4.3332,0.0,0.0,0.0,-4.4457,-4.3695,-4.5167,-4.5586,-4.4934,-4.5712,-4.6155,-4.6273,-4.6287,-4.6285,-4.6308,-4.6308,-4.6308,-4.6308,-4.6308,-4.6308,-4.6308,-4.6308,-4.6308,-4.6308,-4.6308,-4.6229,-4.6104,-4.6104,0.0,0.0,-4.5896,-4.5834,-4.5777,-4.5786,-4.5834,-4.5873,-4.5811,-4.5848,-4.59,-4.5832,-4.6287,-4.6586,-4.5797,-4.6201,-4.6547,-4.5759,-4.6355,-4.7259,-4.7971,-4.8875,-4.9548,-4.9548,-4.8913,-4.8586,-4.9163,-4.7413,-4.649,-4.7798,-4.7336,-4.7182,-4.7894,-4.7971,0.0,-4.8086,-4.7451,-4.7009,-4.6913,-4.5801,-4.5159,-4.5159,-4.5159,-4.5302,-4.5586,-4.5586,-4.5586,-4.5586,-4.5586,-4.6047,-4.6856,-4.5589,-4.6097,0.0,0.0,0.0,0.0,0.0,0.0,0.0,0.0,0.0,0.0,0.0,0.0,0.0,0.0,0.0,-3.8834,-4.1605,-4.392,-4.4817,-4.5749,-4.597,-4.5017,-4.5351,-4.5727,-4.5937,-4.6022,-4.6104,-4.6217,-4.5266,-4.4774,-4.4956,-4.398,-4.3786,-4.4546,-4.4834,-4.5101,-4.541,-4.5849,-4.595,-4.5699,-4.5861,0.0,-4.614,-4.6148,-4.621,-4.6308,-4.6308,-4.6308,-4.6308,-4.6308,-4.6308,-4.6308,-4.6308,-4.6308,-4.6308,-4.6308,-4.6228,-4.609,-4.609,-4.5989,-4.5823,-4.5883,-4.5777,-4.5671,-4.5774,-4.5815,0.0,-4.5794,-4.5839,-4.5911,-4.5877,-4.5945,-4.5969,-4.5815,-4.5797,-4.5797,-4.5624,-4.6797,-4.7913,-4.8067,-4.9375,-5.0452,-5.0452,-5.0298,-4.9779,-4.8548,-4.8529,-4.8298,-4.7259,-4.7009,-4.6971,-4.7124,-4.7144,-4.7394,-4.8048,-4.7971,-4.7586,-4.6951,-4.6031,-4.5495,-4.5495,-4.5495,-4.5531,-4.5586,-4.5586,-4.5586,-4.5586,-4.5586,-4.6047,-4.6894,-4.5897,-4.6416,0.0,0.0,0.0,0.0,0.0,0.0,0.0,0.0,0.0,0.0,0.0,-3.8621,0.0,0.0,-4.2408,-4.3353,-4.5318,-4.6854,-4.7226,-4.7419,-4.7075,-4.5978,-4.6008,-4.6123,-4.6188,-4.6191,-4.6235,-4.6289,-4.5488,-4.5195,-4.5625,-4.4824,-4.4687,-4.543,-4.5513,-4.5667,-4.5906,-4.5984,-4.6003,-4.5988,-4.6003,-4.6069,-4.6191,-4.6191,-4.624,-4.6308,-4.6308,-4.6308,-4.6308,-4.6308,-4.6261,-4.6191,-4.6191,-4.6191,-4.6191,-4.6191,-4.6113,-4.5996,-4.6015,-4.593,-4.5868,-4.5896,-4.5804,-4.5719,-4.5776,-4.5796,-4.5811,-4.5804,-4.5814,-4.5852,-4.5847,-4.5776,-4.5699,-4.5699,-4.5643,-4.5586,-4.5586,-4.6913,-4.8105,-4.8105,-4.951,-5.0702,-5.0702,-5.0702,-5.026,-4.8952,-4.8759,-4.8606,-4.8202,-4.7778,-4.7836,-4.8702,-4.8413,-4.849,-4.9336,-4.8606,-4.7567,-4.6336,-4.5836,-4.5586,-4.5586,-4.5586,-4.5586,-4.5586,-4.5586,-4.5586,-4.5586,-4.6028,-4.6682,-4.749,-4.7048,-4.7528,0.0,0.0,0.0,0.0,0.0,0.0,0.0,0.0,-4.0787,-4.3008,-4.3028,-4.289,-4.371,-4.5373,-4.6801,-4.736,-4.8332,-4.9032,-4.9139,-4.8548,-4.7727,-4.6677,-4.6406,-4.6308,-4.6308,-4.6308,-4.6308,-4.6308,-4.5644,-4.5566,-4.6269,-4.5625,-4.5527,-4.6113,-4.6133,-4.6083,-4.5981,-4.5981,-4.6027,-4.6129,-4.6129,-4.6201,-4.6308,-4.6308,-4.6308,-4.6308,-4.6308,-4.6308,-4.6308,-4.6276,-4.6201,-4.6103,-4.6065,-4.6046,-4.6046,-4.6065,-4.5984,-4.5867,-4.5873,-4.5853,-4.5834,-4.5834,-4.5815,-4.5757,-4.5757,-4.5757,-4.5757,-4.5757,-4.5757,-4.5757,-4.5757,-4.568,-4.5624,-4.5797,-4.572,-4.5682,-4.6009,-4.7144,-4.8144,-4.8317,-4.9625,-5.0702,-5.0702,-5.0702,-5.0452,-4.976,-4.9048,-4.8798,-4.9336,-4.8798,-4.8836,-5.0048,-4.9433,-4.9202,-4.9894,-4.8817,-4.7528,-4.6163,-4.5778,-4.5682,-4.5836,-4.5682,-4.5682,-4.5836,-4.5682,-4.5759,-4.6086,-4.6624,-4.7413,-4.8355,-4.8355,-4.8817,-4.098,-4.0824,-4.1383,-4.2279,-4.3088,-4.3964,0.0,0.0,-4.5523,-4.613,-4.6282,-4.6224,-4.5926,-4.6693,-4.7667,-4.8556,-4.9441,-5.0047,-5.0055,-4.9966,-4.9293,-4.7656,-4.6777,-4.6308,-4.6308,-4.6308,-4.6308,-4.6308,-4.6211,-4.6191,-4.6289,-4.6211,-4.6191,-4.6289,-4.6289,-4.6269,-4.6268,-4.6268,-4.6265,-4.628,-4.628,-4.6285,-4.6308,-4.6308,-4.6308,-4.6308,-4.6308,-4.6308,-4.6287,-4.6177,-4.6111,-4.6084,-4.5969,-4.5892,-4.5834,-4.5911,-4.5888,-4.5806,-4.5813,-4.5738,-4.5624,-4.5624,-4.5624,-4.5605,-4.5605,-4.5605,-4.5605,-4.5605,-4.5605,-4.5605,-4.5605,-4.5605,-4.5797,-4.6567,-4.6163,-4.6009,-4.7509,-4.7971,-4.8336,-4.9106,-5.0029,-5.0702,-5.0702,-5.0702,-5.0664,-5.0567,-5.0471,-5.0164,-4.949,-4.9317,-4.9029,-4.8452,-4.7663,-4.7221,-4.7317,-4.7798,-4.8029,-4.7836,-4.6413,-4.5951,-4.6721,-4.6009,-4.5951,-4.674,-4.599,-4.6317,-4.7817,-4.7201,-4.7721,-4.924,-4.924,-4.9721,-4.3213,-4.3395,-4.3965,0.0,-4.5413,-4.6591,-4.6915,-4.7213,-4.7488,-4.7704,-4.8263,-4.8665,-4.8552,-4.922,-4.9907,0.0,-5.0664,-5.0898,-5.0898,-5.0508,-4.9712,-4.8409,-4.793,-4.752,-4.7108,-4.7519,-4.7598,-4.709,-4.7051,-4.6836,-4.6328,-4.6308,-4.6308,-4.6308,-4.6308,-4.6308,-4.6308,-4.6308,-4.6308,-4.6308,-4.6308,-4.63,-4.6309,-4.6212,-4.613,-4.6069,-4.616,-4.6138,-4.6064,-4.6007,-4.596,-4.593,-4.5853,-4.5776,-4.5699,-4.5796,-4.5776,-4.568,-4.568,-4.5643,-4.5586,-4.5586,-4.5586,-4.5586,-4.5586,-4.5586,-4.5586,-4.5586,-4.597,-4.6355,-4.6355,-4.6701,-4.7144,-4.7509,-4.7317,-4.724,-4.7952,-4.8509,-4.8952,-4.9336,-5.0087,-5.0702,-5.0702,-5.0702,-5.0702,-5.0702,-5.0702,-5.0567,-5.0202,-4.9702,-4.9067,-4.8202,-4.8259,-4.7971,-4.699,-4.7644,-4.7894,-4.7432,-4.674,-4.6528,-4.6894,-4.7009,-4.7009,-4.6913,-4.6547,-4.6932,-4.8105,-4.7759,-4.8221,-4.9413,-4.9913,-5.0337,-4.3889,0.0,0.0,-4.5289,-4.6786,-4.8199,-4.8029,-4.8544,-4.9024,-4.9149,-4.9763,-5.0337,-5.0435,-5.0923,-5.1391,-5.1603,-5.1469,-5.1391,-5.1626,-5.0962,-5.0082,-4.9113,-4.9216,-4.9057,-4.8275,-4.8564,-4.8538,-4.7894,-4.7623,-4.7213,-4.6588,-4.6315,-4.6198,-4.6198,-4.6198,-4.6198,-4.6198,-4.6198,-4.6198,-4.6198,-4.6198,-4.6183,-4.6186,-4.6078,-4.5979,-4.5909,-4.5993,-4.5993,-4.5906,-4.5886,-4.5847,-4.5796,-4.5757,-4.5699,-4.5605,-4.5719,-4.568,-4.5586,-4.5586,-4.5586,-4.5586,-4.5586,-4.5586,-4.5586,-4.5586,-4.5586,-4.5586,-4.5586,-4.622,-4.6913,-4.6913,-4.7509,-4.8163,-4.8394,-4.8279,-4.824,-4.8702,-4.9125,-4.9471,-4.9702,-5.026,-5.0702,-5.0702,-5.0702,-5.0702,-5.0702,-5.0702,-5.0702,-5.0702,-5.0144,-4.9413,-4.8548,-4.924,-4.9067,-4.7375,-4.799,-4.8221,-4.7625,-4.7355,-4.7336,-4.7586,-4.7932,-4.7952,-4.7605,-4.7355,-4.7759,-4.8817,-4.8586,-4.8913,-4.976,-5.0414,-5.0702,0.0,0.0,-4.336,-4.4832,-4.6757,-4.8369,-4.8705,-4.9846,-5.0818,-5.0837,-5.0951,-5.1064,-5.1064,-5.1084,-5.1347,-5.2154,-5.1619,-5.1376,-5.2164,-5.157,-5.0744,-4.9868,-5.0511,-5.0682,0.0,-4.8987,-4.8497,-4.8477,-4.7698,-4.7201,-4.7162,-4.6364,-4.5907,-4.5907,-4.5907,-4.5907,-4.5907,-4.5907,-4.5907,-4.5907,-4.5907,-4.5907,-4.59,-4.5896,-4.5902,-4.5909,-4.5896,-4.5892,-4.589,-4.5832,-4.5796,-4.5796,-4.5643,-4.5586,-4.5586,-4.5586,-4.5586,-4.5586,-4.5586,-4.5586,-4.5586,-4.5586,-4.5586,-4.5586,-4.5586,-4.5586,-4.5586,-4.5586,-4.622,-4.6913,-4.6913,-4.7509,-4.8317,-4.9163,-4.8702,-4.8567,-5.026,-4.9971,-4.9644,-5.0491,-5.0664,-5.0702,-5.0702,-5.0702,-5.0702,-5.0702,-5.0702,-5.0702,-5.0702,-5.0664,-5.0317,-4.9452,-5.0144,-4.9952,-4.8221,-4.8856,-4.9356,-4.9336,-4.8529,-4.8432,-4.9279,-4.8548,-4.849,-4.9317,-4.849,-4.8913,-5.0606,-4.976,-4.9798,-5.0644,-5.0683,-5.0702,0.0,0.0,-4.4651,-4.5778,-4.7459,-4.8777,-4.8533,-4.9674,-5.076,-5.0779,-4.9599,-4.8613,-4.8697,-4.955,-5.0306,-5.054,-5.1792,-5.2657,-5.234,-5.2556,-5.1979,-4.9908,-5.0911,0.0,0.0,0.0,0.0,-4.9412,-4.8559,-4.7801,-4.7231,-4.6366,-4.5907,-4.5907,-4.5907,-4.5907,-4.5907,-4.5907,-4.5907,-4.5907,-4.5907,-4.5887,-4.5849,-4.5883,-4.5841,-4.5699,-4.5806,-4.5776,-4.5699,-4.568,-4.568,-4.5643,-4.5605,-4.5586,-4.5586,-4.5586,-4.5586,-4.5586,-4.5586,-4.5586,-4.5586,-4.5586,-4.5586,-4.5586,-4.5586,-4.5586,-4.5586,-4.5586,-4.622,-4.7028,-4.7567,-4.8336,-4.9183,-5.0048,-5.0029,-4.999,-5.0567,-5.0471,-5.0337,-5.0625,-5.0702,-5.0702,-5.0702,-5.0702,-5.0702,-5.0702,-5.0702,-5.0702,-5.0702,-5.0202,-4.9721,-4.9433,-4.9663,-4.9375,-4.8202,-4.8894,-4.9394,-4.9394,-4.9125,-4.9086,-4.9394,-4.9663,-4.9683,-4.9413,-4.9106,-4.9529,-5.0702,-4.9817,-4.9856,-5.0702,-5.0702,-5.0702,0.0,-4.4047,-4.5084,-4.6059,-4.7671,-4.8991,-4.8768,-4.9858,-5.0828,-5.0538,-4.9083,-4.7758,-4.7422,-4.7933,-4.8391,-4.8334,-4.9838,-5.1133,-5.1506,-5.1604,-5.1337,-5.0529,-5.1106,-5.1144,0.0,0.0,0.0,-5.0164,-4.9029,-4.8124,-4.7545,-4.6411,-4.5796,-4.5796,-4.5796,-4.5796,-4.5796,-4.5796,-4.5796,-4.5796,-4.5796,-4.5776,-4.5738,-4.5776,-4.5719,-4.5586,-4.5699,-4.568,-4.5586,-4.5586,-4.5586,-4.5586,-4.5586,-4.5586,-4.5586,-4.5586,-4.5586,-4.5586,-4.5586,-4.5586,-4.5586,-4.5586,-4.5586,-4.5586,-4.5586,-4.5586,-4.5586,-4.5586,-4.6432,-4.7451,-4.7971,-4.8971,-5.001,-5.0567,-5.0702,-5.0702,-5.0702,-5.0702,-5.0702,-5.0702,-5.0702,-5.0702,-5.0702,-5.0702,-5.0702,-5.0702,-5.0702,-5.0702,-5.0702,-5.0202,-4.9856,-4.9856,-4.9856,-4.9644,-4.9086,-4.9529,-4.9856,-4.9856,-4.9856,-4.9856,-4.9856,-5.0394,-5.0433,-4.9875,-4.9856,-5.0144,-5.0702,-5.0144,-5.0144,-5.0702,-5.0702,-5.0837,-4.1735,-4.3237,-4.4653,-4.5624,-4.7383,-4.8959,-4.9348,-5.0426,-5.1141,-5.0354,-4.943,-4.8348,0.0,0.0,-4.6006,-4.5956,-4.6391,-4.7562,-5.0007,-4.919,-4.9239,0.0,0.0,0.0,0.0,0.0,0.0,-5.0702,-4.9125,-4.8144,-4.8105,-4.6547,-4.5643,-4.5586,-4.5586,-4.5586,-4.5586,-4.5586,-4.5586,-4.5586,-4.5586,-4.5586,-4.5586,-4.5586,-4.5586,-4.5586,-4.5586,-4.5586,-4.5586,-4.5586,-4.5586,-4.5586,-4.5586,-4.5586,-4.5586,-4.5586,-4.5586,-4.5586,-4.5586,-4.5586,-4.5586,-4.5586,-4.5586,-4.5586,-4.5586,-4.5586,-4.5605,-4.5643,-4.6817,-4.8067,-4.8144,-4.9394,-5.0625,-5.0683,-5.0702,-5.0702,-5.0702,-5.0702,-5.0702,-5.0702,-5.0702,-5.0702,-5.0702,-5.0702,-5.0702,-5.0702,-5.0702,-5.0702,-5.0702,-5.0702,-5.0702,-5.0702,-5.0702,-5.0702,-5.0702,-5.0702,-5.0702,-5.0702,-5.0702,-5.0702,-5.0702,-5.0702,-5.0702,-5.0702,-5.0702,-5.0702,-5.0702,-5.0702,-5.0702,-5.0702,-5.0741,-5.1164,-4.237,-4.3817,-4.5062,-4.5736,-4.7198,-4.8487,-4.8567,-5.0233,-5.1699,-5.1537,-4.8861,-4.5927,0.0,0.0,0.0,-4.6816,-4.992,0.0,-5.2445,-5.2125,0.0,-5.1501,0.0,-5.1028,-5.0721,-5.0702,0.0,-5.0702,-4.9683,-4.8798,-4.8125,-4.7124,-4.6278,-4.5605,-4.5586,-4.5586,-4.5586,-4.5586,-4.5586,-4.5586,-4.5586,-4.5586,-4.5586,-4.5586,-4.5586,-4.5586,-4.5586,-4.5586,-4.5586,-4.5586,-4.5586,-4.5586,-4.5586,-4.5586,-4.5586,-4.5586,-4.5586,-4.5586,-4.5586,-4.5586,-4.5586,-4.5586,-4.5586,-4.5586,-4.5586,-4.5586,-4.574,-4.6394,-4.6874,-4.749,-4.874,-4.9394,-4.9894,-5.0548,-5.0702,-5.0702,-5.0702,-5.0702,-5.0702,-5.0702,-5.0702,-5.0702,-5.0702,-5.0702,-5.0702,-5.0702,-5.0702,-5.0702,-5.0702,-5.0702,-5.0702,-5.0702,-5.0702,-5.0702,-5.0702,-5.0702,-5.0702,-5.0702,-5.0702,-5.0702,-5.0702,-5.0702,-5.0702,-5.0702,-5.0702,-5.0702,-5.0702,-5.0702,-5.0702,-5.0702,-5.1318,-5.1702,-4.1775,-4.335,-4.4839,-4.5415,-4.693,-4.8268,-4.8051,-4.9305,-5.0434,-5.0052,-4.7835,0.0,-4.3144,-4.517,-4.6643,0.0,0.0,0.0,-5.1335,-5.1124,-5.0986,0.0,-5.0738,0.0,-5.0438,-5.0421,-5.035,-5.0144,-4.9317,-4.8625,-4.8125,-4.6971,-4.6105,-4.5605,-4.5586,-4.5586,-4.5586,-4.5586,-4.5586,-4.5586,-4.5586,-4.5586,-4.5586,-4.5586,-4.5586,-4.5586,-4.5586,-4.5586,-4.5586,-4.5586,-4.5586,-4.5586,-4.5586,-4.5586,-4.5586,-4.5586,-4.5586,-4.5586,-4.5586,-4.5586,-4.5586,-4.5586,-4.5586,-4.5586,-4.5586,-4.5586,-4.5778,-4.6644,-4.7163,-4.774,-4.9067,-4.9683,-5.0087,-5.0567,-5.0702,-5.0702,-5.0702,-5.0702,-5.0702,-5.0702,-5.0702,-5.0702,-5.0702,-5.0702,-5.0702,-5.0702,-5.0702,-5.0702,-5.0702,-5.0702,-5.0702,-5.0702,-5.0702,-5.0702,-5.0702,-5.0702,-5.0702,-5.0702,-5.0702,-5.0702,-5.0702,-5.0702,-5.0702,-5.0702,-5.0702,-5.0702,-5.0702,-5.1048,-5.1221,-5.1241,-5.2087,-5.2683,-4.0935,-4.2682,-4.4449,-4.5,-4.6648,-4.8029,-4.7554,-4.8048,-4.8379,-4.748,0.0,-4.5401,-4.3378,-4.4343,-4.4801,-4.2795,0.0,-4.783,-4.9119,-4.865,-4.8815,-5.0541,-4.9951,-4.9561,-4.9974,-4.9929,-4.9682,-4.9276,-4.8356,-4.7838,-4.7952,-4.6663,-4.5817,-4.5605,-4.5586,-4.5586,-4.5586,-4.5586,-4.5586,-4.5586,-4.5586,-4.5586,-4.5586,-4.5586,-4.5586,-4.5586,-4.5586,-4.5586,-4.5586,-4.5586,-4.5586,-4.5586,-4.5586,-4.5586,-4.5586,-4.5586,-4.5586,-4.5586,-4.5586,-4.5586,-4.5586,-4.5586,-4.5586,-4.5605,-4.574,-4.5682,-4.5797,-4.6778,-4.7567,-4.8298,-4.9163,-5.0048,-5.0702,-5.0702,-5.0702,-5.0721,-5.0837,-5.0856,-5.0856,-5.0856,-5.0856,-5.0856,-5.0856,-5.0856,-5.0856,-5.0856,-5.076,-5.0702,-5.0702,-5.0702,-5.0702,-5.0702,-5.0702,-5.0702,-5.0702,-5.0702,-5.0741,-5.0837,-5.0856,-5.0856,-5.0856,-5.0971,-5.0933,-5.0702,-5.0914,-5.0971,-5.0856,-5.1683,-5.2087,-5.2106,-5.2972,-5.378,-4.1877,-4.3413,-4.505,-4.5141,-4.6362,-4.7373,-4.6829,-4.7222,0.0,0.0,-4.5559,-4.4049,-4.2347,-4.2894,-4.359,-4.3754,-4.5436,-4.767,-5.0342,-4.945,-4.8963,0.0,-4.9559,-4.9171,-4.958,-4.8993,0.0,0.0,-4.7074,-4.6458,-4.7087,-4.7471,-4.7028,-4.5624,-4.5586,-4.5586,-4.5586,-4.5586,-4.5586,-4.5586,-4.5586,-4.5586,-4.5586,-4.5586,-4.5586,-4.5586,-4.5586,-4.5586,-4.5586,-4.5586,-4.5586,-4.5586,-4.5586,-4.5586,-4.5586,-4.5586,-4.5586,-4.5586,-4.5586,-4.5586,-4.5586,-4.5586,-4.5586,-4.572,-4.6471,-4.6163,-4.5913,-4.7471,-4.799,-4.8298,-4.9163,-5.0048,-5.0702,-5.0702,-5.0702,-5.0875,-5.1548,-5.1702,-5.1702,-5.1702,-5.1702,-5.1702,-5.1702,-5.1702,-5.1702,-5.1702,-5.1125,-5.0702,-5.0702,-5.0702,-5.0702,-5.0702,-5.0702,-5.0702,-5.0702,-5.0702,-5.0971,-5.1664,-5.1702,-5.1702,-5.1702,-5.2375,-5.2106,-5.0721,-5.2068,-5.2414,-5.1702,-5.2568,-5.2972,-5.301,-5.3876,-5.4357,-4.1437,-4.3133,-4.4808,-4.4808,-4.5846,-4.6605,-4.5439,0.0,0.0,0.0,-4.4541,-4.3613,-4.2423,-4.3342,0.0,-4.3067,-4.5354,-4.7441,-4.8068,-4.8146,-4.8146,-4.8253,-4.8188,-4.8292,-4.8699,-4.829,-4.7886,-4.7636,-4.6909,-4.6443,-4.6332,-4.6466,-4.6166,-4.538,-4.5513,-4.5586,-4.5586,-4.5586,-4.5586,-4.5586,-4.5586,-4.5586,-4.5586,-4.5586,-4.5586,-4.5586,-4.5586,-4.5586,-4.5586,-4.5586,-4.5586,-4.5586,-4.5586,-4.5586,-4.5586,-4.5586,-4.5586,-4.5586,-4.5586,-4.5586,-4.5586,-4.5586,-4.5586,-4.5682,-4.6105,-4.624,-4.6528,-4.7759,-4.8432,-4.8971,-4.9856,-5.0237,-5.0399,-5.0399,-5.0225,-5.0182,-5.0563,-5.0822,-5.1108,-5.151,-5.1753,-5.2049,-5.251,-5.2587,-5.2433,-5.1972,-5.1568,-5.1164,-5.0741,-5.0702,-5.0702,-5.0702,-5.0702,-5.0702,-5.0702,-5.1087,-5.1491,-5.1895,-5.2337,-5.2587,-5.2587,-5.2991,-5.2818,-5.201,-5.2799,-5.2991,-5.2587,-5.3453,-5.3876,-5.3895,-5.4722,-5.5126,-4.1247,-4.3009,-4.4644,-4.4837,-4.5695,-4.5985,-4.4253,-4.4301,0.0,0.0,-4.3119,-4.2805,-4.2166,-4.3086,-4.3384,0.0,-4.395,-4.5769,-4.5299,-4.6116,-4.6694,0.0,-4.6863,0.0,-4.7423,-4.7242,0.0,-4.6394,-4.6325,-4.6158,-4.5806,-4.5285,-4.4988,-4.4988,-4.5243,-4.54,-4.54,-4.5476,-4.5476,-4.54,-4.5457,-4.5476,-4.54,-4.54,-4.5419,-4.5495,-4.5495,-4.5531,-4.5586,-4.5586,-4.5586,-4.5586,-4.5586,-4.5586,-4.5586,-4.5586,-4.5549,-4.5495,-4.5568,-4.5513,-4.54,-4.5476,-4.5531,-4.5624,-4.5724,-4.63,-4.7049,-4.7683,-4.8527,-4.9411,-5.0002,-5.0073,-4.9974,-4.9974,-4.9879,-4.9824,-5.0013,-5.0277,-5.078,-5.1675,-5.2078,-5.2504,-5.3086,-5.3203,-5.2874,-5.1928,-5.17,-5.1375,-5.0661,-5.0663,-5.0702,-5.0702,-5.0702,-5.076,-5.0933,-5.1548,-5.2068,-5.2433,-5.3106,-5.3491,-5.3491,-5.3645,-5.3568,-5.3222,-5.3549,-5.3645,-5.3491,-5.4337,-5.4761,-5.4761,-5.5415,-5.5662,-4.2654,-4.4141,-4.5507,-4.6389,-4.6601,-4.6012,-4.3931,0.0,0.0,-4.1733,-4.09,-4.0408,-4.0357,-3.9898,-3.9727,0.0,0.0,-4.0967,-4.4198,-4.4113,-4.4431,-4.6378,0.0,0.0,-4.5587,-4.5378,-4.4947,-4.4227,-4.396,-4.44,-4.5722,-4.5085,-4.465,-4.465,-4.4676,-4.4682,-4.4682,-4.4988,-4.4988,-4.4701,-4.4988,-4.4988,-4.4682,-4.4682,-4.4872,-4.5159,-4.5159,-4.5322,-4.5586,-4.5586,-4.5586,-4.5586,-4.5586,-4.5586,-4.5586,-4.5586,-4.5419,-4.5201,-4.5495,-4.5203,-4.4732,-4.5052,-4.5342,-4.5685,-4.6103,-4.655,-4.6935,-4.7049,-4.7954,-4.8786,-4.8499,-4.8975,-4.958,-4.958,-5.0118,-5.0892,-5.1598,-5.1798,-5.2191,-5.3331,-5.3582,-5.3536,-5.3257,-5.3203,-5.2773,-5.1544,-5.1058,-5.0661,-5.0202,-5.0483,-5.0702,-5.0702,-5.0702,-5.0991,-5.1741,-5.1875,-5.2587,-5.4164,-5.4337,-5.4376,-5.4376,-5.5068,-5.4741,-5.3241,-5.4684,-5.5107,-5.4376,-5.5184,-5.5588,-5.5588,-5.5665,-5.5512,-4.1942,-4.3423,-4.4756,-4.5715,-4.515,-4.4155,-4.3457,0.0,0.0,-4.1878,-4.1219,-4.0899,-4.1339,-4.046,-3.9597,0.0,0.0,0.0,-4.1623,-4.2258,-4.3062,-4.4409,-4.4872,0.0,0.0,0.0,-4.4091,-4.3253,-4.3083,-4.3412,-4.4376,-4.4304,-4.4233,-4.4233,-4.4474,-4.458,-4.458,-4.4732,-4.4732,-4.4606,-4.4751,-4.4751,-4.458,-4.458,-4.4657,-4.4825,-4.5011,-4.518,-4.5322,-4.5513,-4.5495,-4.5302,-4.5302,-4.518,-4.4988,-4.4988,-4.4919,-4.4825,-4.4966,-4.4806,-4.4606,-4.4776,-4.5214,-4.576,-4.5943,-4.6448,-4.7067,-4.7586,-4.8437,-4.9181,-4.9023,-4.9063,-4.9094,-4.8847,-4.9429,-5.0189,-5.0505,-5.1071,-5.1869,-5.2873,-5.3263,-5.3395,-5.324,-5.321,-5.2699,-5.1242,-5.1285,-5.1064,-4.9906,-5.029,-5.0501,-5.0032,-5.0641,-5.1174,-5.1499,-5.2241,-5.2992,-5.3658,-5.4218,-5.4504,-5.4504,-5.504,-5.4906,-5.4009,-5.4887,-5.5059,-5.4504,-5.4827,-5.5227,-5.5693,-5.5693,-5.5854,-4.0977,-4.2528,-4.3938,-4.5082,-4.3974,-4.2696,0.0,0.0,0.0,-4.1802,-4.1623,-4.1627,-4.1914,-4.1119,-4.0172,0.0,0.0,-4.0476,-4.0289,-4.0927,-4.1802,-4.269,0.0,-4.358,-4.3683,-4.3602,-4.32,-4.249,-4.2616,-4.2864,-4.325,-4.3642,-4.3849,-4.3849,-4.4125,-4.428,-4.428,-4.4364,-4.4364,-4.4299,-4.4392,-4.4364,-4.428,-4.428,-4.4392,-4.4606,-4.4849,-4.5074,-4.5243,-4.54,-4.5322,-4.5096,-4.4988,-4.4825,-4.458,-4.458,-4.4527,-4.4447,-4.4553,-4.4447,-4.428,-4.4392,-4.4731,-4.5225,-4.5683,-4.6534,-4.7429,-4.7777,-4.8503,-4.9196,-4.9458,-4.9321,-4.9102,-4.9044,-4.9499,-5.0013,-5.0251,-5.0931,-5.1807,-5.279,-5.3169,-5.3362,-5.3208,-5.2994,-5.2322,-5.0823,-5.0972,-5.0889,-4.9814,-5.0282,-5.0568,-5.0229,-5.1092,-5.1604,-5.1513,-5.2548,-5.3321,-5.3566,-5.4163,-5.4503,-5.4503,-5.476,-5.479,-5.4503,-5.4779,-5.4893,-5.4861,-5.4861,-5.5276,-5.6055,-5.6055,-5.6421,-4.0103,-4.1705,-4.3176,-4.4804,-4.3666,-4.2043,0.0,0.0,-4.116,-4.1023,-4.1673,-4.2066,-4.1339,-4.1204,-4.095,-4.0223,0.0,0.0,-4.0811,-4.0355,-4.0404,0.0,0.0,-4.1997,-4.2105,-4.2107,-4.2021,-4.1821,-4.2342,-4.2693,-4.2711,-4.3214,-4.3532,-4.3532,-4.3532,-4.3513,-4.3513,-4.3818,-4.3818,-4.3513,-4.3849,-4.3818,-4.3513,-4.3513,-4.3899,-4.458,-4.4606,-4.4988,-4.5568,-4.5243,-4.5096,-4.5074,-4.4732,-4.4606,-4.458,-4.458,-4.4364,-4.4058,-4.4474,-4.4125,-4.3582,-4.3912,-4.3772,-4.3826,-4.5442,-4.6983,-4.8047,-4.7296,-4.7682,-4.8489,-4.9391,-4.9612,-4.9814,-5.0582,-5.0784,-5.1004,-5.1793,-5.1958,-5.2342,-5.3535,-5.3795,-5.368,-5.3276,-5.2541,-5.1588,-5.0291,-4.9778,-4.9676,-5.003,-5.0453,-5.1002,-5.1782,-5.2252,-5.2351,-5.202,-5.2718,-5.3566,-5.4428,-5.4484,-5.4503,-5.4503,-5.4503,-5.4503,-5.4503,-5.4503,-5.4899,-5.5678,-5.5678,-5.6092,-5.6888,-5.6888,-5.7076,-3.6942,-3.7843,-3.8969,-4.0817,-3.991,-3.8928,-4.0192,0.0,0.0,-4.072,-4.105,-4.1379,-4.1755,-4.0927,-4.0153,-4.0121,-3.9851,0.0,0.0,0.0,0.0,-4.1858,-4.2072,-4.1816,0.0,0.0,-4.0868,-4.115,-4.1358,-4.1853,-4.2673,-4.2864,-4.3142,-4.3497,-4.3497,-4.3497,-4.3497,-4.3597,-4.3597,-4.3497,-4.3597,-4.3597,-4.3497,-4.3497,-4.3631,-4.3836,-4.4076,-4.4299,-4.4516,-4.4707,-4.4606,-4.4346,-4.4233,-4.4046,-4.3855,-4.3855,-4.3758,-4.3679,-4.3791,-4.3679,-4.3605,-4.4276,-4.4777,-4.5333,-4.6416,-4.6688,-4.6826,-4.7684,-4.8526,-4.9095,-4.8783,-4.9554,-5.0343,-5.005,-5.082,-5.1683,-5.194,-5.2435,-5.2918,-5.3304,-5.3381,-5.3164,-5.251,-5.2196,-5.1675,-5.0728,-5.0915,-5.1083,-5.0616,-5.1193,-5.1472,-5.1176,-5.1726,-5.2194,-5.2316,-5.2865,-5.3325,-5.3565,-5.4102,-5.4417,-5.4417,-5.523,-5.5529,-5.5273,-5.5529,-5.5659,-5.5603,-5.5603,-5.6047,-5.6844,-5.7418,-5.7722,0.0,-3.5286,-3.622,-3.796,-3.7278,0.0,0.0,0.0,0.0,-4.0183,-4.0812,-4.1288,-4.1566,-4.0775,-4.0148,-4.0356,-4.0069,-3.9982,0.0,0.0,0.0,-4.1017,0.0,0.0,0.0,-4.032,-4.056,-4.0594,-4.078,-4.1223,-4.1979,-4.244,-4.2864,-4.3178,-4.341,-4.3497,-4.3497,-4.3497,-4.3497,-4.3497,-4.3497,-4.3497,-4.3497,-4.3497,-4.3563,-4.3693,-4.3893,-4.4106,0.0,-4.4318,-4.4252,-4.3986,-4.3849,-4.366,-4.3497,-4.3497,-4.3497,-4.3497,-4.3497,-4.3699,-4.403,-4.4544,-4.5461,-4.6452,-4.6966,-4.6966,-4.7021,-4.8031,-4.893,-4.9536,-4.9315,-5.0233,-5.1206,-5.1004,-5.172,-5.2454,-5.2454,-5.2858,-5.3206,-5.3206,-5.3206,-5.3041,-5.2546,-5.2197,-5.183,-5.1334,-5.1426,-5.1481,-5.1279,-5.1683,-5.1922,-5.1738,-5.216,-5.2541,-5.2749,-5.33,-5.3665,-5.3665,-5.4418,-5.484,-5.484,-5.5586,-5.5863,-5.5574,-5.5863,-5.6011,-5.6051,-5.6345,-5.6748,-5.7262,-5.7776,-5.7997,0.0,0.0,0.0,0.0,0.0,0.0,0.0,0.0,0.0,0.0,0.0,0.0,-4.0843,-4.0696,-4.0715,-4.0715,-4.0129,-4.0146,0.0,-4.044,0.0,0.0,-3.9731,0.0,-3.9781,-4.0577,-4.0832,-4.0121,-4.0577,-4.0856,-4.0903,-4.1979,-4.2673,-4.2711,-4.3214,-4.3497,-4.3497,-4.3497,-4.3497,-4.3497,-4.3497,-4.3497,-4.3497,-4.3497,-4.3679,-4.3955,-4.3955,-4.4194,-4.4501,-4.4136,-4.3955,-4.3924,-4.3612,-4.3497,-4.3497,-4.3497,-4.3497,-4.3497,-4.3552,-4.4066,-4.4727,-4.4837,-4.5938,-4.7205,-4.7205,-4.7719,-4.8306,-4.8306,-4.8967,-4.9829,-5.0545,-5.1389,-5.2252,-5.2968,-5.317,-5.3206,-5.3206,-5.3206,-5.3206,-5.3206,-5.3206,-5.3206,-5.3206,-5.2582,-5.2087,-5.2087,-5.1444,-5.1242,-5.1977,-5.2087,-5.2362,-5.3133,-5.3261,-5.3298,-5.3298,-5.3977,-5.4399,-5.4399,-5.5207,-5.5684,-5.5684,-5.5721,-5.5757,-5.5757,-5.5757,-5.6143,-5.6895,-5.7648,-5.7997,-5.7997,-5.7997,-5.7997,0.0,0.0,0.0,0.0,0.0,0.0,0.0,0.0,0.0,0.0,0.0,0.0,0.0,0.0,-3.9734,-3.9945,-3.9759,-3.9707,-4.0146,0.0,0.0,-3.9916,-4.0028,-3.9572,-3.8408,-3.9563,-4.0273,-4.0087,-4.0204,-4.0449,-4.0856,-4.1621,-4.2203,-4.2711,-4.3214,-4.3497,-4.3497,-4.3497,-4.3497,-4.3497,-4.3497,-4.3497,-4.3497,-4.3497,-4.3548,-4.3631,-4.3631,-4.3679,-4.3744,-4.3646,-4.3631,-4.3631,-4.3548,-4.3497,-4.3497,-4.3497,-4.3497,-4.3589,-4.4195,-4.4544,-4.4911,-4.6159,-4.7223,-4.8031,-4.8031,-4.8159,-4.8306,-4.8306,-4.937,-5.0417,-4.9976,-5.1389,-5.2821,-5.238,-5.2747,-5.3206,-5.3206,-5.3206,-5.3206,-5.3206,-5.3206,-5.3206,-5.3206,-5.3041,-5.2931,-5.2931,-5.2766,-5.2711,-5.2894,-5.2931,-5.3004,-5.3188,-5.3757,-5.4124,-5.4124,-5.4289,-5.4399,-5.4399,-5.5739,-5.6528,-5.6528,-5.7116,-5.7428,-5.7428,-5.7428,-5.7519,-5.7721,-5.7905,-5.7997,-5.7997,-5.7997,-5.7997,0.0,0.0,0.0,-3.2191,-3.255,-3.3129,0.0,0.0,0.0,0.0,0.0,0.0,0.0,0.0,0.0,0.0,-3.9554,0.0,0.0,0.0,-3.8975,-3.9429,-3.9183,-3.8912,-3.8852,-3.9615,-4.007,-4.007,-4.007,-4.0254,-4.0546,-4.1105,-4.1664,-4.2262,-4.2846,-4.325,-4.3497,-4.3497,-4.3497,-4.3497,-4.3497,-4.3497,-4.3497,-4.3497,-4.3497,-4.3497,-4.3497,-4.3497,-4.3497,-4.3497,-4.3718,-4.4011,-4.3626,-4.3718,-4.4011,-4.3626,-4.3718,-4.4103,-4.4562,-4.5186,-4.603,-4.726,-4.7957,-4.8306,-4.8306,-4.8306,-4.8379,-4.8783,-4.9811,-5.0784,-5.071,-5.194,-5.3096,-5.2656,-5.2894,-5.3206,-5.3206,-5.3206,-5.3206,-5.3206,-5.3206,-5.3206,-5.3206,-5.3206,-5.3206,-5.3206,-5.3206,-5.3206,-5.3206,-5.3206,-5.3206,-5.3206,-5.3922,-5.4399,-5.4399,-5.5078,-5.55,-5.55,-5.6657,-5.7354,-5.7354,-5.7776,-5.7997,-5.7997,-5.7997,-5.7997,-5.7997,-5.7997,-5.7997,-5.7997,-5.7997,-5.7997,-3.5844,-3.4193,-3.3002,-3.3241,-3.3422,-3.3659,-3.4332,0.0,0.0,0.0,0.0,0.0,0.0,-3.8428,0.0,0.0,0.0,0.0,-3.878,-3.8137,-3.8011,-3.8797,-3.8212,0.0,-3.9878,-3.9995,-3.9995,-3.9995,-3.9995,-4.0014,-4.0034,-4.0607,-4.1218,-4.1793,-4.2462,-4.305,-4.3497,-4.3497,-4.3497,-4.3497,-4.3497,-4.3497,-4.3497,-4.3497,-4.3497,-4.3497,-4.3497,-4.3497,-4.3497,-4.3626,-4.4011,-4.447,-4.403,-4.4121,-4.447,-4.403,-4.4213,-4.4745,-4.4984,-4.6049,-4.7407,-4.8086,-4.8306,-4.8306,-4.8306,-4.8398,-4.8673,-4.9536,-5.027,-5.0986,-5.1775,-5.2601,-5.3206,-5.3206,-5.3206,-5.3206,-5.3206,-5.3206,-5.3206,-5.3206,-5.3206,-5.3206,-5.3206,-5.3316,-5.339,-5.339,-5.35,-5.3573,-5.3573,-5.3573,-5.3573,-5.3573,-5.4289,-5.4766,-5.4766,-5.6124,-5.6987,-5.6987,-5.7611,-5.7997,-5.7997,-5.7997,-5.7997,-5.7997,-5.7997,-5.7997,-5.7997,-5.7997,-5.7997,-5.7997,-5.7997,-5.7997,-3.6753,-3.6025,-3.5248,-3.3058,-3.2989,-3.3506,-3.3659,0.0,0.0,0.0,0.0,0.0,0.0,-3.8799,-3.9003,0.0,0.0,-3.8768,0.0,0.0,-3.8446,-3.9276,0.0,-3.8491,-3.9498,-3.9557,-3.9515,-3.9515,-3.9515,-3.9582,-3.9767,-4.0742,-4.1471,-4.1775,-4.2828,-4.341,-4.3497,-4.3497,-4.3497,-4.3497,-4.3497,-4.3497,-4.3497,-4.3497,-4.3497,-4.3497,-4.3497,-4.3497,-4.3534,-4.4232,-4.4195,-4.3809,-4.5039,-4.4764,-4.3828,-4.5057,-4.5186,-4.4892,-4.6269,-4.7352,-4.8141,-4.8269,-4.8306,-4.8306,-4.8306,-4.882,-4.9554,-5.038,-5.071,-5.0986,-5.1775,-5.2601,-5.3206,-5.3206,-5.3206,-5.3206,-5.3206,-5.3206,-5.3206,-5.3206,-5.3206,-5.3206,-5.3206,-5.3775,-5.4216,-5.4216,-5.4803,-5.5225,-5.5225,-5.5225,-5.5225,-5.5225,-5.5959,-5.6436,-5.6436,-5.7281,-5.7813,-5.7813,-5.7923,-5.7997,-5.7997,-5.7997,-5.7997,-5.7997,-5.7997,-5.7997,-5.7997,-5.7997,-5.7997,-5.7997,-5.7997,-5.7997,-3.7345,-3.6667,-3.5856,-3.3742,-3.3779,-3.4403,-3.4811,0.0,0.0,0.0,0.0,0.0,0.0,0.0,-3.8904,-3.9005,0.0,-3.8651,-3.8989,-3.8704,-3.8631,0.0,-3.9434,-3.9646,-3.9469,-3.9799,-3.987,-3.9428,-3.9411,-3.9623,-4.0141,-4.0683,-4.1243,-4.1775,-4.2306,-4.26,-4.26,-4.26,-4.2903,-4.3497,-4.3214,-4.3214,-4.3497,-4.3497,-4.3497,-4.3497,-4.3497,-4.3497,-4.3552,-4.4378,-4.4488,-4.4268,-4.5443,-4.5443,-4.4929,-4.6122,-4.6324,-4.6177,-4.7352,-4.7994,-4.8306,-4.8306,-4.8306,-4.8306,-4.8306,-4.8912,-4.9756,-5.0563,-5.1114,-5.1628,-5.2435,-5.2931,-5.3206,-5.3206,-5.3206,-5.3206,-5.3206,-5.3206,-5.3335,-5.3775,-5.3849,-5.3995,-5.4418,-5.4803,-5.5042,-5.5042,-5.5354,-5.5592,-5.5592,-5.5592,-5.5592,-5.5592,-5.6326,-5.6804,-5.6804,-5.7538,-5.7997,-5.7997,-5.7997,-5.7997,-5.7997,-5.7997,-5.7997,-5.7997,-5.7997,-5.7997,-5.7997,-5.7997,-5.7997,-5.7997,-5.7997,-5.7997,-3.7357,-3.6741,-3.5964,-3.4611,0.0,-3.5059,-3.5502,0.0,0.0,0.0,0.0,0.0,0.0,-3.863,0.0,-3.9144,-3.8842,-3.8602,-3.885,-3.8707,-3.8761,-3.913,-3.9995,-4.0311,-3.9675,-3.9935,-3.9875,-3.9269,-3.9233,-3.9605,-4.0446,-4.0637,-4.1123,-4.2003,-4.2021,-4.2021,-4.2021,-4.1707,-4.2085,-4.3105,-4.2675,-4.2714,-4.3105,-4.3105,-4.3105,-4.3105,-4.325,-4.3232,-4.3178,-4.4455,-4.4693,-4.4417,-4.5734,-4.6247,-4.634,-4.691,-4.7241,-4.748,-4.8104,-4.8306,-4.8306,-4.8306,-4.8306,-4.8343,-4.8545,-4.9187,-5.0031,-5.0839,-5.1665,-5.2417,-5.3041,-5.3206,-5.3206,-5.3206,-5.3206,-5.3206,-5.3206,-5.3353,-5.3665,-5.4289,-5.4546,-5.4876,-5.5482,-5.5757,-5.5868,-5.5868,-5.6033,-5.6143,-5.6143,-5.6143,-5.6143,-5.6143,-5.6712,-5.7079,-5.7079,-5.7648,-5.7997,-5.7997,-5.7997,-5.7997,-5.7997,-5.7997,-5.7997,-5.7997,-5.7997,-5.7997,-5.7997,-5.7997,-5.7997,-5.7997,-5.7997,-5.7997,-3.6504,-3.6319,-3.6167,-3.5243,0.0,0.0,-3.4211,-3.4643,0.0,-3.7058,0.0,0.0,0.0,-3.9378,-3.9097,-3.8437,-3.832,-3.8593,-3.9333,-3.8803,-3.8912,-4.0453,-3.9802,-3.9491,-4.0187,-3.9399,-3.8816,-3.8761,-3.8761,-3.9188,-4.0184,-4.0775,-4.1557,-4.26,-4.2616,-4.2616,-4.2616,-4.1534,-4.1313,-4.1919,-4.1895,-4.1877,-4.1919,-4.1919,-4.1919,-4.1961,-4.2519,-4.2422,-4.2127,-4.4725,-4.4696,-4.3287,-4.6194,-4.7307,-4.7277,-4.7142,-4.759,-4.8233,-4.8288,-4.8306,-4.8306,-4.8306,-4.8306,-4.8453,-4.9242,-5.0068,-5.0875,-5.1683,-5.2491,-5.3133,-5.3188,-5.3206,-5.3206,-5.3206,-5.3206,-5.3206,-5.3206,-5.3794,-5.4326,-5.4399,-5.4987,-5.5519,-5.5574,-5.6216,-5.6712,-5.6712,-5.7354,-5.7831,-5.7831,-5.7831,-5.7831,-5.7831,-5.7886,-5.7905,-5.7905,-5.796,-5.7997,-5.7997,-5.7997,-5.7997,-5.7997,-5.7997,-5.7997,-5.7997,-5.7997,-5.7997,-5.7997,-5.7997,-5.7997,-5.7997,-5.7997,-5.7997,-3.6089,-3.5473,-3.4601,-3.3356,0.0,0.0,0.0,0.0,-3.5729,-3.6995,-3.7882,0.0,0.0,0.0,-3.9186,-3.8984,-3.8987,-3.9054,-3.9045,-3.9694,-4.0015,-3.9596,-4.0533,-4.0783,-3.9674,-3.9649,-3.9642,-3.9473,-3.9441,-4.0056,-4.1428,-4.1727,-4.2118,-4.2675,-4.2711,-4.2342,-4.1578,-4.1133,-4.0827,-4.0737,-4.1105,-4.1446,-4.181,-4.181,-4.181,-4.1793,-4.2021,-4.2021,-4.1924,-4.3471,-4.3638,-4.312,-4.5205,-4.6328,-4.6766,-4.6703,-4.688,-4.7132,-4.7132,-4.7473,-4.777,-4.7294,-4.8034,-4.915,-4.9029,-5.019,-5.161,-5.1903,-5.2582,-5.3206,-5.3206,-5.3206,-5.3206,-5.3206,-5.3206,-5.3206,-5.3206,-5.383,-5.4546,-5.5042,-5.5794,-5.651,-5.7005,-5.7336,-5.7556,-5.7556,-5.7813,-5.7997,-5.7997,-5.7997,-5.7997,-5.7997,-5.7997,-5.7997,-5.7997,-5.7997,-5.7997,-5.7997,-5.7997,-5.7997,-5.7997,-5.7997,-5.7997,-5.7997,-5.7997,-5.7997,-5.7997,-5.7997,-5.7997,-5.7997,-5.7997,-5.7997,-3.5146,-3.4631,-3.3661,0.0,0.0,0.0,0.0,-3.5294,-3.5256,-3.6346,-3.7275,0.0,0.0,0.0,0.0,0.0,-3.8962,-3.9044,-3.8479,-3.9222,-3.9525,-3.8647,-4.0099,-4.0549,-3.9008,-3.9416,-3.9808,-3.9895,-3.99,-4.0598,-4.2213,-4.2304,-4.2516,-4.2958,-4.2598,-4.2021,-4.1178,-4.0827,-4.0449,-4.0121,-4.0497,-4.0891,-4.1241,-4.1241,-4.1241,-4.1286,-4.1446,-4.1402,-4.1338,-4.2538,-4.3138,-4.3476,-4.453,-4.5409,-4.6143,-4.6336,-4.6383,-4.6383,-4.6383,-4.6914,-4.7462,-4.6648,-4.7761,-4.9303,-4.8829,-4.9911,-5.1427,-5.1876,-5.2455,-5.2893,-5.3164,-5.3206,-5.3206,-5.3206,-5.339,-5.3592,-5.3592,-5.4418,-5.5317,-5.5868,-5.6638,-5.7354,-5.7905,-5.7997,-5.7997,-5.7997,-5.7997,-5.7997,-5.7997,-5.7997,-5.7997,-5.7997,-5.7997,-5.7997,-5.7997,-5.7997,-5.7997,-5.7997,-5.7997,-5.7997,-5.7997,-5.7997,-5.7997,-5.7997,-5.7997,-5.7997,-5.7997,-5.7997,-5.7997,-5.7997,-5.7997,-5.7997,-3.3591,-3.3789,0.0,0.0,0.0,0.0,-3.3716,-3.3802,-3.3968,-3.5002,0.0,-3.6967,-3.756,-3.8534,0.0,-3.7155,-3.7909,-3.8404,-3.7603,-3.7044,-3.7046,-3.7892,-3.8175,-3.829,-3.8309,-3.8553,-3.9038,-3.9845,-3.99,-4.0598,-4.2231,-4.2304,-4.2671,-4.3461,-4.2386,-4.181,-4.181,-4.0689,-4.0138,-4.007,-4.007,-4.007,-4.007,-4.007,-4.007,-4.0121,-4.0655,-4.0577,-4.0272,-4.2198,-4.3546,-4.4401,-4.4401,-4.4818,-4.5545,-4.6143,-4.6383,-4.6383,-4.6383,-4.6914,-4.7462,-4.6648,-4.7444,-4.8735,-4.8785,-4.9333,-5.0214,-5.1688,-5.2112,-5.2271,-5.2999,-5.3206,-5.3206,-5.3206,-5.3812,-5.4399,-5.4399,-5.5666,-5.6804,-5.6804,-5.7446,-5.7997,-5.7997,-5.7997,-5.7997,-5.7997,-5.7997,-5.7997,-5.7997,-5.7997,-5.7997,-5.7997,-5.7997,-5.7997,-5.7997,-5.7997,-5.7997,-5.7997,-5.7997,-5.7997,-5.7997,-5.7997,-5.7997,-5.7997,-5.7997,-5.7997,-5.7997,-5.7997,-5.7997,-5.7997,-5.7997,-5.7997,-3.3591,0.0,0.0,-3.1658,0.0,0.0,0.0,-3.2349,0.0,0.0,-3.549,-3.5742,-3.6448,-3.6894,0.0,-3.6994,-3.7299,-3.7373,-3.6746,-3.7043,-3.7332,-3.7357,-3.7953,-3.8489,-3.8852,-3.8941,-3.9468,-4.0653,-4.0744,-4.146,-4.3057,-4.313,-4.324,-4.3479,-4.2808,-4.2203,-4.1793,-4.1059,-4.0497,-4.007,-4.007,-4.007,-4.007,-4.007,-4.007,-4.0121,-4.0286,-4.0254,-4.0172,-4.1287,-4.2209,-4.2943,-4.3488,-4.4187,-4.4906,-4.5089,-4.5125,-4.5125,-4.5125,-4.564,-4.6241,-4.5963,-4.724,-4.8852,-4.8852,-4.9767,-5.0854,-5.1272,-5.1393,-5.1562,-5.2242,-5.2445,-5.2554,-5.306,-5.3812,-5.4399,-5.4399,-5.5666,-5.6804,-5.6804,-5.7446,-5.7997,-5.7997,-5.7997,-5.7997,-5.7997,-5.7997,-5.7997,-5.7997,-5.7997,-5.7997,-5.7997,-5.7997,-5.7997,-5.7997,-5.7997,-5.7997,-5.7997,-5.7997,-5.7997,-5.7997,-5.7997,-5.7997,-5.7997,-5.7997,-5.7997,-5.7997,-5.7997,-5.7997,-5.7997,-5.7997,-5.7997,-3.2492,0.0,0.0,-3.1098,-3.1113,-3.1371,-3.1124,0.0,0.0,0.0,-3.4666,-3.4752,-3.5502,-3.5846,0.0,-3.6363,-3.6531,-3.6419,-3.5742,-3.6122,-3.6482,-3.6602,-3.728,-3.7965,-3.8558,-3.8813,-3.952,-4.0983,-4.1111,-4.1809,-4.3406,-4.3497,-4.3497,-4.3497,-4.2752,-4.2162,-4.1793,-4.0967,-4.0417,-4.007,-4.007,-4.007,-4.007,-4.007,-4.007,-4.007,-4.007,-4.007,-4.0104,-4.0578,-4.1187,-4.1931,-4.2675,-4.3436,-4.4147,-4.4468,-4.4587,-4.4587,-4.4587,-4.5077,-4.5703,-4.5703,-4.6999,-4.8489,-4.8489,-4.9331,-5.0314,-5.0572,-5.0662,-5.0823,-5.1544,-5.1692,-5.197,-5.2937,-5.4069,-5.4876,-5.4876,-5.6143,-5.7281,-5.7281,-5.7666,-5.7997,-5.7997,-5.7997,-5.7997,-5.7997,-5.7997,-5.7997,-5.7997,-5.7997,-5.7997,-5.7997,-5.7997,-5.7997,-5.7997,-5.7997,-5.7997,-5.7997,-5.7997,-5.7997,-5.7997,-5.7997,-5.7997,-5.7997,-5.7997,-5.7997,-5.7997,-5.7997,-5.7997,-5.7997,-5.7997,-5.7997,0.0,0.0,0.0,-3.0981,-3.1439,0.0,-3.1834,-3.25,-3.3243,-3.3606,0.0,-3.3973,-3.4706,-3.5066,-3.5243,-3.5261,-3.548,-3.5371,-3.4634,-3.4615,-3.4934,-3.5741,-3.631,-3.6991,-3.779,-3.8354,-3.935,-4.0891,-4.1001,-4.1699,-4.3296,-4.3387,-4.3406,-4.341,-4.2346,-4.175,-4.1707,-4.0642,-4.007,-4.007,-4.007,-4.007,-4.007,-4.007,-4.007,-4.007,-4.007,-4.007,-4.007,-4.007,-4.0527,-4.1271,-4.1931,-4.2692,-4.3504,-4.4215,-4.4519,-4.4587,-4.4587,-4.5026,-4.5618,-4.5771,-4.6718,-4.7834,-4.797,-4.8477,-4.9107,-4.9722,-4.9919,-5.009,-5.0823,-5.0981,-5.1378,-5.2771,-5.4261,-5.544,-5.5514,-5.674,-5.7886,-5.7886,-5.7932,-5.7997,-5.7997,-5.7997,-5.7997,-5.7997,-5.7997,-5.7997,-5.7997,-5.7997,-5.7997,-5.7997,-5.7997,-5.7997,-5.7997,-5.7997,-5.8033,-5.8107,-5.8107,-5.8107,-5.8107,-5.8033,-5.7997,-5.7997,-5.7997,-5.7997,-5.7997,-5.7997,-5.7997,-5.7997,-5.7997,-5.7997,0.0,-3.1154,0.0,0.0,-3.0393,-3.1269,-3.1696,-3.223,-3.2681,-3.2777,-3.3075,-3.3386,-3.3567,-3.3405,-3.3296,-3.3501,-3.3598,-3.3568,-3.3377,-3.39,-3.4535,-3.5114,-3.5901,-3.6693,-3.7503,-3.8272,-3.9111,-4.0084,-4.0157,-4.0855,-4.247,-4.2561,-4.2646,-4.2884,-4.2144,-4.1578,-4.1087,-4.0417,-4.007,-4.007,-4.007,-4.007,-4.007,-4.007,-4.007,-4.007,-4.007,-4.007,-4.007,-4.007,-4.0527,-4.1221,-4.1373,-4.2252,-4.3436,-4.3606,-4.4062,-4.4587,-4.4587,-4.4688,-4.501,-4.6177,-4.6769,-4.7242,-4.8409,-4.8883,-4.9063,-4.9152,-4.9212,-4.9359,-5.009,-5.0241,-5.0602,-5.2074,-5.3153,-5.4062,-5.4598,-5.6019,-5.7134,-5.7134,-5.7613,-5.7997,-5.7997,-5.7997,-5.7997,-5.7997,-5.7997,-5.7997,-5.7997,-5.7997,-5.7997,-5.7997,-5.7997,-5.7997,-5.7997,-5.7997,-5.8272,-5.8914,-5.8951,-5.8951,-5.8951,-5.8345,-5.7997,-5.7997,-5.7997,-5.7997,-5.7997,-5.7997,-5.7997,-5.7997,-5.7997,-5.7997,0.0,0.0,0.0,-2.938,0.0,-3.0245,-3.0566,-3.083,-3.1009,-3.1009,-3.2022,-3.284,-3.284,-3.2703,-3.2495,-3.2265,-3.252,-3.2648,-3.2274,-3.2885,-3.3619,-3.431,-3.5092,-3.5887,-3.6714,-3.7494,-3.8307,-3.9102,-3.9156,-3.9733,-4.0926,-4.1342,-4.1589,-4.1751,-4.116,-4.0857,-4.0903,-4.0027,-3.9732,-4.007,-4.007,-4.007,-4.007,-4.007,-4.007,-4.007,-4.007,-4.007,-4.007,-4.007,-4.0307,-4.0696,-4.1068,-4.1897,-4.2929,-4.3284,-4.391,-4.4587,-4.4587,-4.4823,-4.5297,-4.643,-4.7039,-4.7547,-4.8663,-4.9001,-4.9001,-4.9001,-4.9001,-4.9107,-4.9402,-4.9778,-5.0343,-5.1423,-5.2569,-5.3617,-5.4323,-5.5759,-5.6912,-5.6912,-5.7516,-5.7997,-5.7997,-5.7997,-5.7997,-5.7997,-5.7997,-5.7997,-5.7997,-5.7997,-5.7997,-5.7997,-5.8345,-5.8419,-5.8033,-5.8712,-5.9171,-5.9208,-5.9575,-5.9777,-5.9777,-5.9373,-5.8786,-5.8015,-5.7997,-5.7997,-5.7997,-5.7997,-5.7997,-5.7997,-5.7997,-5.7997,0.0,0.0,-2.8905,-2.8872,-2.8871,0.0,-2.9132,-2.9194,-2.9239,-2.9361,-3.0836,-3.2109,-3.2195,-3.2175,-3.1976,-3.1469,-3.188,-3.2092,-3.1469,-3.2022,-3.2747,-3.3419,-3.4287,-3.5049,-3.574,-3.6661,-3.7494,-3.815,-3.8185,-3.8522,-3.9341,-3.9979,-4.0329,-4.0329,-3.9975,-3.9991,-4.04,-3.9603,-3.9411,-3.9884,-4.002,-4.007,-4.007,-4.007,-4.007,-4.007,-4.007,-4.007,-4.007,-4.007,-4.007,-4.0138,-4.0764,-4.1542,-4.2371,-4.2997,-4.3809,-4.4604,-4.4722,-4.5179,-4.5838,-4.6701,-4.7411,-4.8054,-4.8781,-4.9001,-4.9001,-4.9001,-4.9001,-4.9001,-4.9001,-4.9543,-5.0287,-5.1031,-5.2244,-5.344,-5.4173,-5.5466,-5.651,-5.651,-5.7098,-5.7594,-5.7594,-5.7726,-5.7774,-5.7642,-5.7821,-5.7932,-5.7839,-5.7932,-5.7997,-5.7997,-5.8731,-5.8951,-5.8253,-5.9557,-6.0181,-5.9667,-6.0254,-6.0621,-6.0621,-6.0621,-5.9924,-5.8437,-5.8272,-5.8143,-5.7997,-5.7997,-5.807,-5.8217,-5.8217,-5.8217,0.0,0.0,-2.7559,0.0,-2.6711,-2.7018,0.0,0.0,-2.8623,0.0,-2.9891,-3.0496,-3.1036,-3.0864,-3.0819,-3.1235,-3.1405,-3.1423,-3.1317,-3.1989,-3.2553,-3.2659,-3.3933,-3.4836,-3.4942,-3.6305,-3.7226,-3.737,-3.737,-3.7724,-3.8504,-3.8646,-3.88,-3.8947,-3.9537,-3.9342,-3.832,-3.9393,-3.9665,-3.914,-3.9766,-4.007,-4.007,-4.007,-4.007,-4.007,-4.007,-4.007,-4.007,-4.007,-4.007,-4.0087,-4.0189,-4.1068,-4.2303,-4.2405,-4.3352,-4.4671,-4.5331,-4.5618,-4.594,-4.7327,-4.7834,-4.8054,-4.8781,-4.9001,-4.9001,-4.9001,-4.9001,-4.9001,-4.9001,-4.9543,-5.0287,-5.1031,-5.1868,-5.2643,-5.346,-5.4322,-5.4878,-5.4878,-5.5495,-5.6004,-5.6004,-5.6598,-5.6825,-5.6114,-5.713,-5.7774,-5.7134,-5.7613,-5.7997,-5.7997,-5.8731,-5.9171,-5.9061,-5.9887,-6.0658,-6.1245,-6.1374,-6.1429,-6.1429,-6.1429,-6.1006,-6.0107,-5.941,-5.8712,-5.7997,-5.7997,-5.8364,-5.9061,-5.9061,-5.9061,-3.1984,-2.9716,-2.77,0.0,-2.609,-2.5955,-2.6562,0.0,-2.6872,-2.7605,-2.7939,-2.8436,-2.9821,-2.9922,-2.9882,-3.0068,-3.0449,-3.0714,-3.0644,-3.1284,-3.175,-3.175,-3.3118,-3.4034,-3.4034,-3.5417,-3.6274,-3.6274,-3.6274,-3.6471,-3.68,-3.7249,-3.756,-3.7638,-3.7963,-3.8035,-3.7905,-3.8125,-3.8481,-3.9005,-3.9732,-4.007,-4.007,-4.007,-4.007,-4.007,-4.007,-4.007,-4.007,-4.007,-4.007,-4.0121,-4.0544,-4.1356,-4.2337,-4.276,-4.3623,-4.4688,-4.5449,-4.5974,-4.6481,-4.7564,-4.8189,-4.8595,-4.89,-4.9001,-4.9001,-4.9001,-4.9001,-4.9001,-4.9001,-4.9543,-5.0287,-5.1031,-5.1775,-5.252,-5.3331,-5.4106,-5.4695,-5.5161,-5.5495,-5.5706,-5.5706,-5.6004,-5.6132,-5.5762,-5.6277,-5.6562,-5.6241,-5.6509,-5.709,-5.7951,-5.837,-5.8911,-5.9773,-6.0624,-6.123,-6.1594,-6.2016,-6.2273,-6.2273,-6.2273,-6.1887,-6.108,-5.985,-5.9043,-5.8676,-5.8217,-5.818,-5.8547,-5.9006,-5.8969,0.0,0.0,-2.8144,-2.6558,-2.5356,-2.4681,0.0,0.0,-2.5295,0.0,-2.6631,-2.7074,-2.8492,-2.8999,-2.9185,-2.9219,-2.9721,-3.0028,-2.9942,-3.0406,-3.0864,-3.1227,-3.2387,-3.3287,-3.366,-3.4861,-3.5622,-3.5622,-3.5622,-3.5622,-3.5622,-3.6163,-3.6485,-3.6485,-3.6671,-3.6958,-3.733,-3.7161,-3.7719,-3.9005,-3.9732,-4.007,-4.007,-4.007,-4.007,-4.007,-4.007,-4.007,-4.007,-4.007,-4.007,-4.0155,-4.0916,-4.1644,-4.2388,-4.3149,-4.391,-4.4705,-4.5652,-4.6346,-4.6938,-4.7885,-4.8562,-4.9001,-4.9001,-4.9001,-4.9001,-4.9001,-4.9001,-4.9001,-4.9001,-4.9543,-5.0287,-5.1031,-5.1775,-5.252,-5.3331,-5.3946,-5.4482,-5.5042,-5.5161,-5.5161,-5.5161,-5.532,-5.5379,-5.5161,-5.5437,-5.5649,-5.5419,-5.5769,-5.6481,-5.7676,-5.7982,-5.856,-5.9714,-6.0738,-6.1353,-6.1346,-6.2247,-6.2805,-6.2805,-6.2805,-6.253,-6.1924,-6.0529,-5.963,-5.9208,-5.84,-5.8107,-5.8327,-5.8933,-5.9006,0.0,-3.0575,0.0,-2.5893,-2.3774,0.0,0.0,0.0,-2.4471,-2.6576,-2.6996,-2.6996,-2.71,-2.7897,-2.8717,-2.9313,-2.9435,-2.9435,-2.9448,-2.948,-2.996,-3.1259,-3.2062,-3.3045,-3.431,-3.5148,-3.5622,-3.5622,-3.5622,-3.5622,-3.5622,-3.5656,-3.5673,-3.5673,-3.64,-3.6451,-3.574,-3.7144,-3.8227,-3.9005,-3.9732,-4.007,-4.007,-4.007,-4.007,-4.007,-4.007,-4.007,-4.007,-4.007,-4.007,-4.0155,-4.0916,-4.1644,-4.2388,-4.3149,-4.391,-4.479,-4.6227,-4.6752,-4.7039,-4.8477,-4.8968,-4.9001,-4.9001,-4.9001,-4.9001,-4.9001,-4.9001,-4.9001,-4.9001,-4.9543,-5.0287,-5.1031,-5.1775,-5.252,-5.3331,-5.3501,-5.3568,-5.3618,-5.3618,-5.3618,-5.3618,-5.4218,-5.4437,-5.3734,-5.4835,-5.5437,-5.4757,-5.5929,-5.6874,-5.6967,-5.7635,-5.8096,-5.8213,-5.9667,-6.054,-6.0558,-6.1956,-6.2805,-6.2805,-6.2805,-6.2787,-6.275,-6.1906,-6.0731,-5.9208,-5.84,-5.84,-5.9153,-5.9189,-5.9612,0.0,0.0,0.0,-2.7485,-2.5474,-2.4058,-2.3803,-2.3356,-2.334,-2.4687,-2.5133,-2.569,-2.678,-2.7285,-2.7788,-2.849,-2.8996,-2.9435,-2.9987,-3.0416,-3.083,-3.1322,-3.203,-3.2676,-3.3159,-3.3876,-3.4496,-3.4941,-3.4544,-3.4704,-3.556,-3.48,-3.4704,-3.5577,-3.5459,-3.5429,-3.5577,-3.6654,-3.755,-3.8311,-3.9039,-3.9631,-4.007,-4.007,-4.007,-4.007,-4.007,-4.007,-4.007,-4.007,-4.0358,-4.0882,-4.161,-4.2354,-4.3115,-4.3876,-4.4333,-4.479,-4.6278,-4.6481,-4.6413,-4.8376,-4.8697,-4.8392,-4.8866,-4.9001,-4.9001,-4.9001,-4.9001,-4.9001,-4.9001,-4.9204,-4.9695,-5.093,-5.2164,-5.3162,-5.345,-5.3501,-5.3501,-5.3501,-5.3501,-5.3501,-5.3501,-5.3717,-5.3766,-5.3568,-5.3946,-5.4154,-5.3946,-5.4364,-5.5294,-5.6718,-5.6673,-5.7374,-5.9372,-6.0072,-6.0662,-6.1171,-6.223,-6.2805,-6.2805,-6.2805,-6.2805,-6.2805,-6.2016,-6.1062,-5.9979,-5.9685,-5.9428,-5.9245,-6.0272,-6.0621,-3.5187,0.0,0.0,0.0,0.0,-2.5522,-2.4313,-2.3368,-2.2965,-2.3793,-2.4312,-2.4946,-2.6115,-2.6585,-2.706,-2.7693,-2.8437,-2.9074,-2.9643,-3.0316,-3.0958,-3.1394,-3.1887,-3.2352,-3.2844,-3.331,-3.3786,-3.4235,-3.3836,-3.4003,-3.4864,-3.4087,-3.4003,-3.4911,-3.4496,-3.4611,-3.5276,-3.6024,-3.6771,-3.7502,-3.8233,-3.8883,-3.9332,-3.9332,-3.9437,-3.9662,-3.9454,-3.9627,-4.007,-4.007,-4.0527,-4.1271,-4.1999,-4.276,-4.3521,-4.4282,-4.4587,-4.4756,-4.5991,-4.6109,-4.6024,-4.8003,-4.8308,-4.8054,-4.8781,-4.9001,-4.9001,-4.9001,-4.9001,-4.9001,-4.9001,-4.9187,-4.9678,-5.093,-5.2181,-5.3179,-5.345,-5.3501,-5.3501,-5.3501,-5.3501,-5.3501,-5.3501,-5.3501,-5.3501,-5.3501,-5.3501,-5.3602,-5.3839,-5.4093,-5.4873,-5.6692,-5.637,-5.6901,-5.9007,-5.9716,-6.0249,-6.0777,-6.2055,-6.2805,-6.2805,-6.2805,-6.2805,-6.2805,-6.2291,-6.1612,-6.0805,-6.0529,-6.0144,-5.9648,-6.0694,-6.1062,0.0,0.0,0.0,0.0,0.0,0.0,-2.6231,0.0,-2.338,-2.3985,-2.4542,-2.4909,-2.4981,-2.5791,-2.6601,-2.6918,-2.7706,-2.8254,-2.8297,-2.9031,-3.012,-3.1427,-3.161,-3.2107,-3.3415,-3.3531,-3.3547,-3.3598,-3.3531,-3.3531,-3.3582,-3.3582,-3.3598,-3.3614,-3.3614,-3.395,-3.4601,-3.5358,-3.6046,-3.671,-3.7454,-3.779,-3.7822,-3.7822,-3.8206,-3.8854,-3.8092,-3.8652,-4.002,-4.007,-4.0527,-4.1271,-4.1999,-4.276,-4.3521,-4.4282,-4.4587,-4.4688,-4.5449,-4.5703,-4.594,-4.7445,-4.7919,-4.8054,-4.8781,-4.9001,-4.9001,-4.9001,-4.9001,-4.9001,-4.9001,-4.9543,-5.027,-5.1014,-5.1758,-5.252,-5.3298,-5.3484,-5.3501,-5.3501,-5.3501,-5.3501,-5.3501,-5.3501,-5.3501,-5.3501,-5.3501,-5.3754,-5.4465,-5.5209,-5.5953,-5.6697,-5.6799,-5.6816,-5.6833,-5.8363,-5.9342,-5.9342,-6.1533,-6.2805,-6.2805,-6.2805,-6.2805,-6.2805,-6.2805,-6.242,-6.163,-6.086,-6.0456,-6.0438,-6.0456,-6.0896,-3.5378,0.0,0.0,0.0,0.0,0.0,-2.7269,0.0,-2.3885,-2.2581,-2.2464,-2.2988,-2.4259,-2.5023,-2.5693,-2.6537,-2.7313,-2.7917,-2.8033,-2.9271,-3.0236,-3.0616,-3.1138,-3.1697,-3.2018,-3.2104,-3.2312,-3.2841,-3.2367,-3.2516,-3.3547,-3.3582,-3.3562,-3.3513,-3.4032,-3.4649,-3.5313,-3.5521,-3.6007,-3.6694,-3.6901,-3.7253,-3.7822,-3.7822,-3.7921,-3.8092,-3.7863,-3.8035,-3.8502,-3.9032,-3.9993,-4.1271,-4.1999,-4.276,-4.3521,-4.4282,-4.4587,-4.4688,-4.5449,-4.5703,-4.594,-4.7445,-4.7919,-4.8054,-4.8781,-4.9001,-4.9001,-4.9001,-4.9001,-4.9001,-4.9001,-4.9543,-5.0135,-5.0355,-5.1386,-5.2367,-5.2587,-5.3095,-5.3501,-5.3501,-5.3501,-5.3501,-5.3501,-5.3501,-5.3501,-5.3501,-5.3501,-5.3568,-5.3788,-5.4448,-5.5192,-5.5936,-5.6494,-5.7019,-5.7543,-5.9147,-6.0096,-6.0096,-6.1788,-6.2805,-6.2805,-6.2805,-6.2805,-6.2805,-6.2805,-6.2695,-6.2475,-6.2254,-6.1851,-6.1282,-6.1869,-6.2273,0.0,0.0,0.0,0.0,0.0,0.0,-2.8809,-2.6712,-2.4713,-2.2666,-2.2038,-2.2121,-2.3156,-2.4083,-2.5021,-2.5952,-2.6752,-2.7366,-2.784,-2.8969,-2.9766,-2.9766,-3.0147,-3.0584,-3.097,-3.1029,-3.1321,-3.2064,-3.1739,-3.1959,-3.3068,-3.3139,-3.3243,-3.3478,-3.3661,-3.4156,-3.5136,-3.4872,-3.5214,-3.6178,-3.5926,-3.616,-3.6829,-3.6829,-3.6995,-3.7263,-3.6935,-3.7175,-3.7806,-3.7889,-3.9061,-4.0782,-4.1201,-4.2004,-4.2992,-4.3799,-4.4097,-4.4188,-4.4963,-4.5229,-4.5483,-4.6972,-4.7445,-4.7648,-4.868,-4.9001,-4.9001,-4.9001,-4.9001,-4.9001,-4.9001,-4.9323,-4.9712,-5.0016,-5.076,-5.1555,-5.2164,-5.2672,-5.3112,-5.3433,-5.3501,-5.3501,-5.3501,-5.3501,-5.3501,-5.3501,-5.3501,-5.3619,-5.3923,-5.4329,-5.4989,-5.6055,-5.6545,-5.7103,-5.7831,-5.9078,-6.0023,-6.0353,-6.1604,-6.2446,-6.2823,-6.2805,-6.2805,-6.2805,-6.2805,-6.264,-6.231,-6.2658,-6.2567,-6.2108,-6.2585,-6.2805,0.0,0.0,0.0,0.0,-3.4074,0.0,-3.0679,-2.8326,-2.603,-2.3863,-2.2698,-2.2083,-2.2094,-2.3257,-2.4522,-2.544,-2.6025,-2.6637,-2.7471,-2.8298,-2.8903,-2.8958,-2.9035,-2.9443,-3.0273,-3.0291,-3.0565,-3.1396,-3.1586,-3.1928,-3.2587,-3.2617,-3.2916,-3.3589,-3.2961,-3.326,-3.4577,-3.3933,-3.4247,-3.5489,-3.4891,-3.4906,-3.5504,-3.5504,-3.5831,-3.6446,-3.5782,-3.6258,-3.7472,-3.6737,-3.7805,-3.9857,-3.9939,-4.0754,-4.2029,-4.2835,-4.3222,-4.3426,-4.4196,-4.4564,-4.4925,-4.6244,-4.6718,-4.7056,-4.846,-4.8883,-4.89,-4.8984,-4.9001,-4.9001,-4.9001,-4.9001,-4.9171,-4.9813,-5.0101,-5.0574,-5.1894,-5.2317,-5.2638,-5.3365,-5.3501,-5.3501,-5.3501,-5.3501,-5.3501,-5.3501,-5.3501,-5.3737,-5.438,-5.4532,-5.5124,-5.6528,-5.6748,-5.7103,-5.7831,-5.8616,-5.9443,-6.0353,-6.1189,-6.1969,-6.2755,-6.2805,-6.2805,-6.2805,-6.2805,-6.2456,-6.1722,-6.2365,-6.264,-6.2548,-6.2548,-6.2548,0.0,0.0,0.0,-3.545,-3.5066,0.0,-3.2696,-3.0476,-2.7936,-2.5224,-2.3599,-2.2662,-2.2692,-2.3143,-2.3977,-2.5378,-2.5686,-2.5992,-2.665,-2.7417,-2.8093,-2.8532,-2.9197,-2.9849,-3.0463,-3.0141,-3.0249,-3.1094,-3.187,-3.2617,-3.3275,-3.3305,-3.3604,-3.4262,-3.3649,-3.3948,-3.5295,-3.4622,-3.4696,-3.5504,-3.537,-3.537,-3.5504,-3.5504,-3.5554,-3.5733,-3.5554,-3.5683,-3.591,-3.5782,-3.6739,-3.8309,-3.8914,-3.9656,-4.0462,-4.1164,-4.2227,-4.3306,-4.3502,-4.4407,-4.5534,-4.5821,-4.6312,-4.6955,-4.7868,-4.8122,-4.8257,-4.8832,-4.9001,-4.9001,-4.9001,-4.9001,-4.9035,-4.9187,-5.0118,-5.1065,-5.1369,-5.2401,-5.3315,-5.3467,-5.3501,-5.3501,-5.3501,-5.3501,-5.3501,-5.3501,-5.3501,-5.3551,-5.3704,-5.4228,-5.4938,-5.5835,-5.6461,-5.7103,-5.7831,-5.8616,-5.9443,-6.0353,-6.1189,-6.1969,-6.2755,-6.2805,-6.2805,-6.2805,-6.2805,-6.2732,-6.2567,-6.2071,-6.1502,-6.0878,-6.0878,-6.0878,-3.4941,-3.4694,-3.4807,-3.5203,-3.5327,0.0,0.0,-3.2143,-3.0244,-2.7473,-2.5526,-2.4231,-2.4021,-2.3889,-2.4076,-2.5217,-2.5561,-2.5845,-2.6055,-2.6659,-2.7198,-2.7468,-2.815,-2.8836,-2.951,-2.9336,-2.9492,-3.0417,-3.1461,-3.2206,-3.2522,-3.2551,-3.2838,-3.3537,-3.2867,-3.301,-3.4041,-3.3915,-3.4126,-3.4758,-3.4937,-3.5175,-3.5504,-3.5504,-3.5504,-3.5504,-3.5504,-3.5504,-3.5504,-3.5504,-3.5973,-3.6754,-3.7477,-3.8353,-3.933,-4.0162,-4.1413,-4.2707,-4.3169,-4.4123,-4.5213,-4.5585,-4.5957,-4.6397,-4.7141,-4.7614,-4.8071,-4.8798,-4.9001,-4.9001,-4.9001,-4.9001,-4.9001,-4.9001,-4.9847,-5.076,-5.1133,-5.2114,-5.3027,-5.3416,-5.3501,-5.3501,-5.3501,-5.3501,-5.3501,-5.3501,-5.3501,-5.3501,-5.3501,-5.4143,-5.4871,-5.5632,-5.6376,-5.7103,-5.7831,-5.8263,-5.8875,-5.9704,-6.0113,-6.0902,-6.2148,-6.22,-6.2394,-6.2805,-6.242,-6.1998,-6.1612,-6.0805,-6.0621,-6.1006,-6.1006,-6.0786,-3.5227,-3.496,-3.4997,-3.5167,-3.5543,-3.5566,0.0,0.0,0.0,-2.9844,-2.7881,-2.6416,-2.5796,-2.5273,-2.5079,-2.5504,-2.5814,-2.5936,-2.5792,-2.6127,-2.6514,-2.6672,-2.7175,-2.7741,-2.8552,-2.8654,-2.9038,-2.9847,-3.0911,-3.1571,-3.1792,-3.1805,-3.2026,-3.2579,-3.1943,-3.1916,-3.2593,-3.2732,-3.3154,-3.3725,-3.4003,-3.4534,-3.5213,-3.5213,-3.5294,-3.5504,-3.5504,-3.5504,-3.5504,-3.5504,-3.5504,-3.5554,-3.618,-3.7153,-3.8311,-3.9109,-4.0325,-4.1677,-4.2675,-4.3621,-4.4485,-4.5223,-4.5686,-4.6024,-4.6616,-4.7411,-4.8257,-4.8832,-4.9001,-4.9001,-4.9001,-4.9001,-4.9001,-4.9001,-4.956,-5.0253,-5.0862,-5.1691,-5.2486,-5.3145,-5.3399,-5.3501,-5.3501,-5.3501,-5.3501,-5.3501,-5.3501,-5.3501,-5.3501,-5.4143,-5.4871,-5.5632,-5.6376,-5.7103,-5.7831,-5.7881,-5.8263,-5.9061,-5.9111,-5.9797,-6.1304,-6.153,-6.1896,-6.2585,-6.1924,-6.119,-6.0401,-5.9758,-5.9942,-6.0896,-6.0896,-6.0548,-3.6056,-3.585,-3.6039,-3.6818,-3.6408,-3.5743,-3.5516,0.0,-3.3373,-3.1652,0.0,-2.9153,-2.8119,0.0,0.0,-2.7215,-2.6666,-2.6342,-2.6214,-2.6155,-2.648,-2.7373,-2.7754,-2.827,-2.9033,-2.9321,-2.9711,-3.0268,-3.0829,-3.1542,-3.2441,-3.2496,-3.2524,-3.2593,-3.1943,-3.1916,-3.2593,-3.2069,-3.2069,-3.2749,-3.2821,-3.3309,-3.4177,-3.4177,-3.4691,-3.5504,-3.5504,-3.5504,-3.5504,-3.5504,-3.5504,-3.5504,-3.5619,-3.6069,-3.6857,-3.7451,-3.8626,-4.0185,-4.1645,-4.2707,-4.3578,-4.4428,-4.5602,-4.6684,-4.6769,-4.7767,-4.89,-4.8984,-4.9001,-4.9001,-4.9001,-4.9001,-4.9001,-4.9001,-4.956,-5.0101,-5.0202,-5.1319,-5.2334,-5.2418,-5.301,-5.3501,-5.3501,-5.3501,-5.3501,-5.3501,-5.3501,-5.3501,-5.3501,-5.4143,-5.4871,-5.5632,-5.6376,-5.7103,-5.7831,-5.7881,-5.8263,-5.9061,-5.9111,-5.9491,-6.0537,-6.1229,-6.1624,-6.1741,-6.1649,-6.119,-6.0401,-6.0309,-5.963,-5.84,-5.84,-5.8364,-3.5177,-3.5237,-3.5728,-3.6335,-3.6543,-3.6572,-3.6429,-3.644,-3.5911,-3.4069,0.0,0.0,0.0,0.0,0.0,0.0,-2.893,-2.8174,-2.8122,-2.7659,-2.7165,-2.6806,-2.7386,-2.8003,-2.8533,-2.9247,-2.9674,-2.951,-3.0017,-3.0498,-3.097,-3.0996,-3.0996,-3.0996,-3.0686,-3.0673,-3.0983,-3.1236,-3.15,-3.1815,-3.2321,-3.282,-3.3171,-3.3171,-3.3394,-3.3837,-3.4394,-3.461,-3.4691,-3.5279,-3.5504,-3.5504,-3.5504,-3.5908,-3.6552,-3.718,-3.8394,-3.9827,-4.0912,-4.1804,-4.2707,-4.3545,-4.4615,-4.5585,-4.6024,-4.6887,-4.78,-4.8257,-4.868,-4.9001,-4.9001,-4.9001,-4.9001,-4.9001,-4.956,-5.0202,-5.0659,-5.1572,-5.2435,-5.2909,-5.3281,-5.3501,-5.3501,-5.3501,-5.3501,-5.3501,-5.3501,-5.3653,-5.4076,-5.4786,-5.553,-5.6275,-5.7002,-5.756,-5.7865,-5.7881,-5.801,-5.837,-5.8875,-5.9509,-6.0353,-6.1171,-6.1588,-6.1612,-6.1135,-6.0511,-5.9722,-5.9245,-5.8657,-5.8015,-5.8951,-5.8896,-3.4371,-3.4733,-3.5558,-3.6123,-3.6789,-3.7305,-3.7193,-3.7468,-3.7312,-3.5696,-3.4614,0.0,0.0,0.0,0.0,0.0,0.0,-2.9962,-2.9781,-2.9144,-2.8321,-2.709,-2.7644,-2.8221,-2.8273,-2.9152,-2.9529,-2.9189,-2.9479,-2.9705,-2.9792,-2.9792,-2.9792,-2.9792,-2.9792,-2.9792,-2.9792,-3.0495,-3.0833,-3.0833,-3.1476,-3.1974,-3.2249,-3.2249,-3.2393,-3.2664,-3.331,-3.3739,-3.4027,-3.4758,-3.5279,-3.5504,-3.5504,-3.5804,-3.6297,-3.6926,-3.7948,-3.9164,-4.0112,-4.1238,-4.252,-4.3366,-4.4214,-4.4993,-4.5551,-4.6363,-4.7208,-4.7767,-4.8443,-4.9001,-4.9001,-4.9001,-4.9001,-4.9001,-4.9407,-4.9999,-5.0744,-5.1488,-5.2232,-5.3027,-5.3348,-5.3501,-5.3501,-5.3501,-5.3501,-5.3501,-5.3501,-5.3771,-5.4499,-5.5243,-5.5987,-5.6731,-5.7459,-5.7881,-5.7881,-5.7881,-5.7881,-5.7881,-5.8441,-5.9262,-6.0353,-6.0938,-6.1245,-6.1282,-6.0915,-6.0126,-5.8877,-5.851,-5.8217,-5.8033,-5.9208,-5.9116,0.0,0.0,-3.5926,-3.6912,-3.7408,-3.7683,-3.7766,-3.7192,-3.65,-3.5899,-3.487,-3.4055,0.0,0.0,0.0,0.0,0.0,0.0,0.0,-3.0253,-2.9827,-2.9233,-2.9403,-2.9392,-2.8912,-2.9238,-2.9554,-2.9729,-2.9643,-2.9579,-2.9767,-2.9792,-2.9792,-2.9792,-2.9792,-2.9792,-2.9792,-2.9869,-2.9856,-2.9869,-2.9869,-3.0355,-3.1254,-3.1254,-3.1742,-3.2593,-3.2593,-3.3171,-3.4027,-3.4027,-3.461,-3.5504,-3.5504,-3.5519,-3.5609,-3.6267,-3.6911,-3.7661,-3.9216,-4.1295,-4.3366,-4.4253,-4.5077,-4.5669,-4.5703,-4.6718,-4.7885,-4.7919,-4.8443,-4.9001,-4.9001,-4.9001,-4.9001,-4.9001,-4.9018,-4.9238,-4.9965,-5.071,-5.1471,-5.2198,-5.2976,-5.3501,-5.3501,-5.3501,-5.3501,-5.3501,-5.3501,-5.3771,-5.4499,-5.5243,-5.5987,-5.6731,-5.7459,-5.7881,-5.7881,-5.7881,-5.7881,-5.7881,-5.7954,-5.8651,-6.0353,-6.0414,-6.0472,-6.0426,-6.1172,-6.0401,-5.8033,-5.8804,-5.8767,-5.7997,-5.8052,-5.8052,0.0,0.0,-3.5388,-3.5969,-3.69,-3.78,-3.8346,-3.8301,-3.7951,-3.7387,-3.6433,-3.5721,-3.5789,0.0,0.0,0.0,0.0,0.0,0.0,-3.2634,-3.1445,-3.0734,-3.0024,-2.9332,-2.8642,-2.9413,-2.9951,-2.996,-2.9967,-2.9889,-2.9844,-2.9792,-2.9792,-2.9792,-2.9792,-2.9792,-2.9792,-2.9415,-2.9415,-2.9792,-2.9402,-2.9555,-3.0279,-3.0279,-3.0419,-3.0771,-3.1402,-3.2249,-3.3101,-3.3739,-3.461,-3.5504,-3.5504,-3.5504,-3.5579,-3.6237,-3.6881,-3.7638,-3.8998,-4.0774,-4.252,-4.2769,-4.3846,-4.4959,-4.4959,-4.5652,-4.6566,-4.7039,-4.7716,-4.8392,-4.8883,-4.9001,-4.9001,-4.9001,-4.9001,-4.934,-5.0574,-5.1031,-5.1589,-5.2858,-5.3315,-5.3501,-5.3501,-5.3501,-5.3501,-5.3501,-5.3501,-5.3771,-5.4499,-5.5243,-5.5987,-5.6731,-5.7459,-5.7881,-5.7881,-5.7881,-5.7881,-5.7881,-5.7881,-5.8388,-5.9509,-5.9085,-5.9065,-5.9629,-5.9365,-5.8639,-5.7263,-5.8026,-5.8,-5.7284,-5.7774,-5.7997,-3.1777,-3.3336,0.0,-3.5352,-3.6734,0.0,-3.8681,-3.863,-3.8329,-3.8074,-3.719,-3.648,-3.641,0.0,0.0,0.0,0.0,0.0,0.0,-3.4023,-3.2551,-3.1513,-3.0821,-3.0132,-2.9324,-3.0437,-3.0983,-3.0668,-3.0671,-3.0424,-2.9972,-2.982,-2.9792,-2.9792,-2.9792,-2.9691,-2.949,-2.9114,-2.9013,-2.9189,-2.9013,-2.9126,-2.949,-2.9691,-2.9792,-2.9856,-3.0758,-3.1742,-3.2664,-3.3602,-3.461,-3.5504,-3.5504,-3.5504,-3.5579,-3.6237,-3.703,-3.7982,-3.9345,-4.0774,-4.2062,-4.2395,-4.341,-4.4587,-4.4587,-4.5111,-4.5805,-4.6278,-4.7141,-4.802,-4.8494,-4.8798,-4.9001,-4.9001,-4.9204,-4.9729,-5.0947,-5.142,-5.1978,-5.3264,-5.3501,-5.3501,-5.3501,-5.3501,-5.3501,-5.3501,-5.3501,-5.3771,-5.4499,-5.5006,-5.57,-5.6697,-5.7222,-5.7611,-5.7865,-5.7881,-5.7881,-5.7881,-5.7881,-5.8263,-5.9044,-5.8643,-5.8654,-5.9186,-5.9006,-5.8221,-5.6927,-5.7937,-5.7897,-5.6912,-5.7679,-5.7997]}]]